     2.11           OBSERVATION DATA    G (GPS)             RINEX VERSION / TYPE
teqc 2010Oct21 OPUS Account 20111025 19:12:50UTC            PGM / RUN BY / DATE
R 1521                                                      MARKER NAME
1143                                                        MARKER NUMBER
CSMIDDLETON NGS                                             OBSERVER / AGENCY
4624K01590 TRIMBLE NETR5 4.41                               REC # / TYPE / VERS
12236910 TRM41249.00 NONE                                   ANT # / TYPE
  -739367.9137 -5470935.1135  3183778.0959                  APPROX POSITION XYZ
        2.0010        0.0000        0.0000                  ANTENNA: DELTA H/E/N
     1     1                                                WAVELENGTH FACT L1/2
     5    L1    L2    C1    P1    P2                        # / TYPES OF OBSERV
    15                                                      LEAP SECONDS
  2011     7    27     0     0    0.0000000     GPS         TIME OF FIRST OBS
                                                            END OF HEADER
 11  7 27  0  0  0.0000000  0  8G10G17G09G04G28G02G20G27
 124708350.324 7  97175416.40544  23731211.063                    23731221.469
 112043079.289 8  87306269.04846  21321032.219                    21321039.449
 116814405.226 7  91024259.19645  22229042.406                    22229049.953
 104825939.605 8  81682697.41346  19947697.945                    19947704.996
 114213535.559 8  88997544.38445  21734078.273                    21734085.207
 118146570.637 7  92062382.36845  22482537.234                    22482544.156
 126916044.522 6  98895570.36843  24151296.797                    24151304.891
 117911515.751 7  91879172.35045  22437819.977                    22437827.754
 11  7 27  0  0 30.0000000  0  8G10G17G09G04G28G02G20G27
 124614143.360 7  97102008.50544  23713283.758                    23713294.102
 112073291.577 8  87329811.09346  21326781.383                    21326788.359
 116781130.566 7  90998330.89645  22222710.492                    22222718.141
 104805778.937 8  81666987.82446  19943861.250                    19943868.625
 114260916.980 8  89034464.94245  21743095.180                    21743101.668
 118064062.483 7  91998090.37945  22466836.453                    22466843.320
 126945964.722 6  98918884.76343  24156989.602                    24156998.180
 117896676.823 7  91867609.56445  22434996.008                    22435004.316
 11  7 27  0  1  0.0000000  0  8G10G17G09G04G28G02G20G27
 124519951.055 7  97028612.02844  23695359.555                    23695369.723
 112103602.863 8  87353430.27746  21332549.336                    21332556.672
 116748483.457 7  90972891.59445  22216497.906                    22216505.883
 104786192.389 8  81651725.59446  19940133.984                    19940141.699
 114308669.059 8  89071674.32745  21752181.914                    21752188.609
 117981831.096 7  91934014.05745  22451188.820                    22451195.094
 126976384.716 6  98942588.61543  24162779.930                    24162787.039
 117882329.627 7  91856429.92945  22432265.922                    22432273.684
 11  7 27  0  1 30.0000000  0  8G10G17G09G04G28G02G20G27
 124425776.824 7  96955229.62444  23677438.391                    23677448.617
 112134013.003 7  87377126.49046  21338336.367                    21338343.219
 116716465.140 7  90947942.25445  22210404.570                    22210412.766
 104767180.136 8  81636910.86346  19936516.352                    19936523.535
 114356792.029 8  89109172.71545  21761339.195                    21761346.207
 117899878.546 7  91870155.00445  22435593.461                    22435599.883
 127007304.256 6  98966681.78043  24168663.500                    24168671.008
 117868474.421 7  91845633.66445  22429629.391                    22429637.082
 11  7 27  0  2  0.0000000  0  8G10G17G09G04G28G02G20G27
 124331623.471 6  96881863.46643  23659521.438                    23659531.215
 112164521.230 8  87400899.13546  21344141.906                    21344148.520
 116685076.417 7  90923483.51945  22204431.594                    22204439.613
 104748742.069 8  81622543.55546  19933007.555                    19933014.887
 114405286.000 8  89146960.18345  21770567.242                    21770574.512
 117818205.800 7  91806513.97645  22420051.859                    22420058.133
 127038722.930 6  98991163.85343  24174641.617                    24174649.484
 117855111.200 7  91835220.77445  22427086.719                    22427094.145
 11  7 27  0  2 30.0000000  0  8G10G17G09G04G28G02G20G27
 124237494.235 6  96808516.10443  23641609.164                    23641618.375
 112195128.115 8  87424748.65446  21349966.344                    21349973.457
 116654318.514 7  90899516.32545  22198578.867                    22198586.949
 104730878.387 8  81608623.82146  19929608.219                    19929615.629
 114454151.373 8  89185037.06645  21779866.188                    21779873.191
 117736814.348 8  91743092.13845  22404563.156                    22404569.617
 127070640.453 6  99016034.64643  24180715.422                    24180723.516
 117842240.420 7  91825191.59345  22424637.453                    22424645.121
 11  7 27  0  3  0.0000000  0  8G10G17G09G04G28G02G20G27
 124143392.031 6  96735189.79243  23623700.656                    23623710.934
 112225832.395 8  87448674.06746  21355809.063                    21355816.117
 116624192.107 7  90876041.20645  22192845.766                    22192853.621
 104713588.920 8  81595151.52946  19926318.273                    19926325.469
 114503388.440 8  89223403.57345  21789235.680                    21789242.656
 117655705.644 8  91679890.62045  22389128.789                    22389134.879
 127103056.249 6  99041293.69343  24186884.219                    24186891.934
 117829862.014 7  91815546.07745  22422281.367                    22422289.785
 11  7 27  0  3 30.0000000  0  8G10G17G09G04G28G02G20G27
 124049320.118 6  96661887.11543  23605799.773                    23605810.012
 112256633.958 8  87472675.28246  21361670.234                    21361677.195
 116594697.884 7  90853058.69745  22187233.188                    22187241.023
 104696873.398 8  81582126.45446  19923137.086                    19923144.629
 114552997.152 8  89262059.68245  21798676.078                    21798682.645
 117574881.079 7  91616910.51445  22373748.391                    22373754.195
 127135969.828 6  99066940.58343  24193148.430                    24193155.047
 117817976.020 7  91806284.26145  22420020.086                    22420027.273
 11  7 27  0  4  0.0000000  0  8G10G17G09G04G28G02G20G27
 123955281.558 6  96588610.45943  23587905.539                    23587914.801
 112287532.657 8  87496752.19646  21367550.258                    21367557.137
 116565836.598 7  90830569.39045  22181740.688                    22181748.625
 104680731.744 8  81569548.55646  19920065.820                    19920073.016
 114602977.454 8  89301005.34445  21808186.688                    21808193.680
 117494342.383 8  91554153.15545  22358422.688                    22358428.484
 127169380.663 6  99092975.00243  24199504.891                    24199513.160
 117806582.579 7  91797406.25545  22417851.531                    22417859.863
 11  7 27  0  4 30.0000000  0  8G10G17G09G04G28G02G20G27
 123861279.482 6  96515362.23344  23570017.766                    23570027.813
 112318527.717 8  87520904.17846  21373448.516                    21373455.039
 116537608.995 7  90808573.86545  22176369.266                    22176377.188
 104665163.537 8  81557417.50446  19917102.953                    19917110.516
 114653329.590 8  89340240.73845  21817768.867                    21817775.785
 117414090.690 8  91491619.43745  22343151.117                    22343156.988
 127203287.974 6  99119396.26743  24205958.031                    24205965.059
 117795681.613 7  91788911.98845  22415777.766                    22415785.445
 11  7 27  0  5  0.0000000  0  8G10G17G09G04G28G02G20G27
 123767316.888 7  96442144.73044  23552137.570                    23552147.180
 112349618.648 8  87545130.87746  21379364.672                    21379371.770
 116510015.564 7  90787072.49945  22171118.367                    22171126.539
 104650168.699 8  81545733.22246  19914249.781                    19914257.090
 114704053.311 8  89379765.68345  21827421.258                    21827427.770
 117334127.487 8  91429310.50945  22327934.148                    22327940.578
 127237691.254 6  99146204.00143  24212503.867                    24212512.465
 117785273.251 7  91780801.57345  22413796.703                    22413804.652
 11  7 27  0  5 30.0000000  0  8G10G17G09G04G28G02G20G27
 123673396.898 7  96368960.43344  23534264.602                    23534274.813
 112380805.464 7  87569432.27646  21385299.375                    21385306.133
 116483057.256 7  90766066.03245  22165988.656                    22165996.512
 104635746.777 8  81534495.36946  19911505.406                    19911512.570
 114755148.775 8  89419580.30345  21837144.086                    21837150.770
 117254453.656 8  91367227.06545  22312772.719                    22312778.996
 127272589.849 6  99173397.71143  24219145.852                    24219153.707
 117775357.183 7  91773074.77545  22411909.656                    22411917.660
 11  7 27  0  6  0.0000000  0  8G10G17G09G04G28G02G20G27
 123579522.836 7  96295811.90544  23516401.164                    23516411.070
 112412087.480 8  87593807.87346  21391252.273                    21391259.047
 116456734.719 7  90745554.97245  22160979.914                    22160987.559
 104621897.870 8  81523704.02346  19908869.836                    19908877.227
 114806616.132 8  89459684.69945  21846938.047                    21846944.855
 117175071.032 8  91305370.54045  22297666.805                    22297673.008
 127307983.166 6  99200976.91243  24225880.688                    24225888.660
 117765933.599 7  91765731.71545  22410116.258                    22410124.328
 11  7 27  0  6 30.0000000  0  8G10G17G09G04G28G02G20G27
 123485697.764 7  96222701.56644  23498546.883                    23498556.773
 112443464.446 8  87618257.44146  21397223.117                    21397229.574
 116431048.185 7  90725539.50845  22156091.531                    22156099.449
 104608621.079 8  81513358.47846  19906343.141                    19906351.141
 114858455.421 7  89500078.92945  21856802.852                    21856809.680
 117095980.896 8  91243741.92045  22282616.672                    22282622.539
 127343870.231 6  99228940.86643  24232709.273                    24232717.176
 117757002.262 7  91758772.21145  22408416.586                    22408424.969
 11  7 27  0  7  0.0000000  0  8G10G17G09G04G28G02G20G27
 123391924.938 7  96149631.91144  23480702.766                    23480712.434
 112474936.248 8  87642780.92046  21403211.633                    21403218.785
 116405998.507 7  90706020.28245  22151324.977                    22151333.008
 104595916.720 8  81503458.98346  19903926.008                    19903932.945
 114910666.780 8  89540763.07345  21866738.531                    21866745.223
 117017184.287 8  91182342.03145  22267621.547                    22267627.727
 127380251.028 6  99257289.51043  24239632.328                    24239640.238
 117748563.324 7  91752196.41245  22406810.648                    22406819.141
 11  7 27  0  7 30.0000000  0  8G10G17G09G04G28G02G20G27
 123298207.609 7  96076605.52044  23462868.508                    23462877.820
 112506502.464 8  87667377.96346  21409218.914                    21409225.543
 116381586.053 7  90686997.60745  22146679.648                    22146687.559
 104583784.292 8  81494005.15146  19901616.945                    19901624.332
 114963249.863 8  89581736.86545  21876744.563                    21876751.793
 116938682.822 8  91121172.11645  22252683.422                    22252689.566
 127417124.652 6  99286022.18343  24246649.570                    24246657.242
 117740616.438 7  91746004.00945  22405298.734                    22405306.293
 11  7 27  0  8  0.0000000  0  8G10G17G09G04G28G02G20G27
 123204548.628 6  96003624.59344  23445045.656                    23445055.250
 112538162.764 8  87692048.31446  21415243.758                    21415250.340
 116357811.703 7  90668472.15245  22142155.516                    22142163.367
 104572223.291 8  81484996.58146  19899416.719                    19899424.418
 115016204.916 8  89623000.51345  21886821.469                    21886828.617
 116860477.849 8  91060233.22945  22237801.328                    22237807.547
 127454490.186 6  99315138.16643  24253760.922                    24253768.395
 117733161.572 7  91740195.00545  22403880.320                    22403888.164
 11  7 27  0  8 30.0000000  0  8G10G17G09G04G28G02G20G27
 123110951.254 6  95930691.66144  23427234.258                    23427244.371
 112569916.659 8  87716791.59746  21421286.484                    21421293.172
 116334675.818 7  90650444.18745  22137752.453                    22137760.508
 104561233.326 8  81476432.98246  19897325.883                    19897332.965
 115069531.956 8  89664554.00745  21896969.664                    21896976.449
 116782570.605 8  90999526.33845  22222976.375                    22222981.824
 127492346.937 6  99344636.90143  24260964.539                    24260971.668
 117726198.513 7  91734769.23945  22402554.563                    22402562.711
 11  7 27  0  9  0.0000000  0  8G10G17G09G04G28G02G20G27
 123017418.413 6  95857809.05843  23409434.297                    23409445.285
 112601763.692 8  87741607.45646  21427346.391                    21427353.043
 116312178.614 7  90632913.91545  22133471.328                    22133479.410
 104550813.554 8  81468313.68446  19895342.938                    19895350.246
 115123230.289 7  89706396.83545  21907187.906                    21907194.574
 116704962.198 8  90939052.31245  22208207.633                    22208213.477
 127530694.174 6  99374517.84643  24268261.508                    24268268.832
 117719726.942 7  91729726.44545  22401323.352                    22401331.148
 11  7 27  0  9 30.0000000  0  8G10G17G09G04G28G02G20G27
 122923953.693 6  95784979.48743  23391649.500                    23391658.715
 112633703.692 8  87766495.75746  21433424.578                    21433430.949
 116290320.620 7  90615881.71345  22129312.516                    22129320.238
 104540964.084 8  81460638.78146  19893468.789                    19893475.996
 115177300.217 7  89748529.21745  21917477.438                    21917484.227
 116627654.082 8  90878812.27845  22193496.445                    22193502.258
 127569531.227 6  99404780.47743  24275651.141                    24275659.137
 117713746.859 7  91725066.62945  22400185.914                    22400193.426
 11  7 27  0 10  0.0000000  0  8G10G17G09G04G28G02G20G27
 122830560.466 6  95712205.66243  23373876.688                    23373887.121
 112665736.478 8  87791456.35346  21439520.336                    21439527.137
 116269102.314 7  90599347.97645  22125274.625                    22125282.434
 104531684.617 8  81453408.03346  19891702.781                    19891709.852
 115231742.143 7  89790951.46345  21927837.289                    21927844.055
 116550647.605 8  90818807.29345  22178842.336                    22178848.488
 127608857.352 6  99435424.17443  24283135.234                    24283142.969
 117708257.956 7  91720789.53845  22399141.000                    22399148.727
 11  7 27  0 10 30.0000000  0  8G10G17G09G04G28G02G20G27
 122737241.551 6  95639489.70443  23356119.555                    23356128.656
 112697862.174 8  87816489.34846  21445633.469                    21445640.277
 116248524.230 7  90583313.11145  22121358.648                    22121366.613
 104522974.415 8  81446620.87246  19890045.148                    19890052.301
 115286555.621 7  89833663.22245  21938267.781                    21938274.762
 116473944.101 8  90759038.38945  22164246.297                    22164252.551
 127648671.765 6  99466448.36843  24290711.836                    24290719.746
 117703260.104 7  91716895.09445  22398189.992                    22398197.797
 11  7 27  0 11  0.0000000  0  8G10G17G09G04G28G02G20G27
 122644000.274 6  95566834.22743  23338376.203                    23338385.199
 112730080.179 8  87841594.27446  21451764.430                    21451771.059
 116228586.500 7  90567777.22945  22117564.813                    22117572.395
 104514833.061 8  81440276.96646  19888496.148                    19888503.508
 115341740.545 7  89876664.41945  21948769.367                    21948776.266
 116397544.734 8  90699506.47745  22149708.242                    22149714.129
 127688973.488 6  99497852.30943  24298381.211                    24298388.625
 117698753.216 7  91713383.21745  22397332.594                    22397340.453
 11  7 27  0 11 30.0000000  0  8G10G17G09G04G28G02G20G27
 122550839.949 6  95494241.84144  23320648.273                    23320657.102
 112762390.290 8  87866770.97046  21457912.742                    21457919.680
 116209289.557 7  90552740.64945  22113892.633                    22113900.441
 104507260.002 8  81434375.89146  19887054.906                    19887062.156
 115397296.886 7  89919955.03745  21959341.266                    21959348.500
 116321450.741 8  90640212.51545  22135227.656                    22135233.570
 127729761.632 6  99529635.25543  24306142.391                    24306150.324
 117694736.972 7  91710253.67145  22396568.375                    22396576.031
 11  7 27  0 12  0.0000000  0  8G10G17G09G04G28G02G20G27
 122457763.265 7  95421714.61244  23302936.750                    23302944.973
 112794791.527 8  87892018.66646  21464078.508                    21464085.391
 116190633.428 7  90538203.41145  22110342.711                    22110350.230
 104500254.245 8  81428916.86346  19885722.109                    19885729.227
 115453223.913 7  89963534.51545  21969984.063                    21969990.750
 116245663.133 8  90581157.29545  22120805.930                    22120811.629
 127771035.342 6  99561796.57943  24313996.758                    24314004.438
 117691210.527 7  91707505.78945  22395897.648                    22395905.387
 11  7 27  0 12 30.0000000  0  8G10G17G09G04G28G02G20G27
 122364773.678 6  95349255.28543  23285241.484                    23285250.086
 112827284.255 8  87917337.66446  21470261.758                    21470268.441
 116172618.482 7  90524165.79245  22106913.758                    22106921.531
 104493815.473 8  81423899.65246  19884496.438                    19884504.215
 115509522.067 7  90007403.17345  21980697.016                    21980704.109
 116170183.308 8  90522341.90045  22106442.563                    22106448.449
 127812793.710 6  99594335.55743  24321943.031                    24321951.492
 117688173.856 7  91705139.53945  22395319.672                    22395327.184
 11  7 27  0 13  0.0000000  0  8G10G17G09G04G28G02G20G27
 122271874.577 7  95276866.46044  23267562.617                    23267571.820
 112859868.222 8  87942727.75546  21476462.039                    21476468.668
 116155245.066 7  90510628.06945  22103608.078                    22103616.199
 104487943.370 8  81419324.00146  19883379.055                    19883386.023
 115566191.281 7  90051560.95645  21991480.859                    21991487.645
 116095012.667 8  90463767.43545  22092138.016                    22092144.039
 127855036.046 6  99627251.62343  24329981.164                    24329989.004
 117685626.575 7  91703154.64545  22394834.938                    22394842.441
 11  7 27  0 13 30.0000000  0  8G10G17G09G04G28G02G20G27
 122179069.125 6  95204550.63644  23249902.148                    23249911.949
 112892543.335 8  87968188.86146  21482680.016                    21482686.910
 116138513.404 7  90497590.41845  22100424.203                    22100432.629
 104482637.059 8  81415189.22746  19882369.414                    19882377.031
 115623231.176 7  90096007.60345  22002335.180                    22002341.773
 116020152.189 8  90405434.65745  22077891.844                    22077898.434
 127897761.158 6  99660543.86943  24338111.742                    24338119.219
 117683568.560 7  91701550.98645  22394442.547                    22394451.168
 11  7 27  0 14  0.0000000  0  8G10G17G09G04G28G02G20G27
 122086360.641 6  95132310.34344  23232260.852                    23232269.859
 112925309.160 8  87993720.67446  21488915.250                    21488922.094
 116122423.448 7  90485052.79045  22097362.094                    22097370.063
 104477896.071 8  81411494.96246  19881466.969                    19881474.293
 115680641.443 7  90140742.83445  22013259.914                    22013266.871
 115945603.111 8  90347344.51545  22063706.219                    22063712.023
 127940968.218 6  99694211.70443  24346334.570                    24346342.035
 117681999.323 7  91700328.19845  22394144.633                    22394152.359
 11  7 27  0 14 30.0000000  0  8G10G17G09G04G28G02G20G27
 121993752.400 6  95060148.20944  23214637.453                    23214647.180
 112958165.740 8  88019323.19046  21495167.594                    21495174.555
 116106975.396 7  90473015.33345  22094422.367                    22094430.242
 104473719.462 8  81408240.47046  19880672.203                    19880679.422
 115738421.740 7  90185766.41045  22024255.133                    22024262.105
 115871366.763 8  90289498.06445  22049579.250                    22049585.594
 127984656.084 6  99728254.16943  24354647.273                    24354655.523
 117680918.366 7  91699485.89245  22393938.813                    22393946.684
 11  7 27  0 15  0.0000000  0  8G10G17G09G04G28G02G20G27
 121901247.615 6  94988066.65744  23197034.023                    23197044.148
 112991112.300 7  88044995.82446  21501437.086                    21501444.008
 116092169.222 7  90461478.05145  22091605.039                    22091612.973
 104470106.782 8  81405425.40346  19879984.719                    19879991.973
 115796571.924 7  90231078.20345  22035320.891                    22035327.898
 115797444.360 8  90231896.23845  22035512.438                    22035518.496
 128028823.87916  99762670.61353  24363051.867                    24363059.676
 117680325.430 7  91699023.86245  22393825.742                    22393833.559
 11  7 27  0 15 30.0000000  0  8G10G17G09G04G28G02G20G27
 121808849.342 6  94916068.11844  23179451.438                    23179461.027
 113024149.056 7  88070738.73646  21507724.023                    21507730.641
 116078005.187 7  90450441.14245  22088909.813                    22088917.949
 104467057.067 8  81403049.01446  19879404.367                    19879411.793
 115855091.943 7  90276678.19145  22046456.977                    22046463.938
 115723836.609 8  90174539.59545  22021505.000                    22021511.090
 128073470.716 6  99797460.29743  24371548.570                    24371555.246
 117680219.857 7  91698941.59145  22393805.492                    22393813.766
 11  7 27  0 16  0.0000000  0  8G10G17G09G04G28G02G20G27
 121716560.921 6  94844155.15943  23161889.578                    23161899.145
 113057275.867 7  88096551.83146  21514027.570                    21514034.840
 116064483.273 7  90439904.58745  22086336.258                    22086344.781
 104464569.953 8  81401111.01546  19878931.172                    19878938.629
 115913981.683 7  90322566.25845  22057663.438                    22057670.422
 115650545.227 8  90117429.47546  22007558.250                    22007564.098
 128118595.521 6  99832622.44542  24380135.391                    24380143.207
 117680601.431 7  91699238.91645  22393878.406                    22393886.605
 11  7 27  0 16 30.0000000  0  8G10G17G09G04G28G02G20G27
 121624385.720 7  94772330.40944  23144349.219                    23144358.332
 113090492.350 7  88122434.80946  21520348.484                    21520355.633
 116051603.613 7  90429868.47145  22083885.602                    22083893.336
 104462644.473 8  81399610.65246  19878564.938                    19878572.133
 115973240.590 7  90368741.99645  22068939.734                    22068946.996
 115577571.059 8  90060566.53346  21993671.625                    21993677.754
 128164197.059 6  99868156.14243  24388812.727                    24388820.387
 117681469.433 7  91699915.28645  22394043.656                    22394051.508
 11  7 27  0 17  0.0000000  0  9G12G10G17G09G04G28G02G20G27
 129491345.31516 100902392.78053  24641387.031                    24641394.809
 121532327.277 7  94700596.59644  23126831.828                    23126840.172
 113123798.898 7  88148387.96246  21526686.688                    21526693.465
 116039366.339 7  90420332.92945  22081557.141                    22081564.832
 104461280.190 8  81398547.57946  19878305.313                    19878312.594
 116032868.983 7  90415205.64645  22080286.766                    22080294.090
 115504915.769 8  90003952.06546  21979845.859                    21979851.988
 128210274.837 6  99904060.88843  24397581.328                    24397589.293
 117682823.878 7  91700970.69045  22394301.258                    22394309.402
 11  7 27  0 17 30.0000000  0  9G12G10G17G09G04G28G02G20G27
 129394463.226 6 100826900.30743  24622951.547                    24622959.160
 121440388.984 7  94628956.42444  23109336.008                    23109344.871
 113157194.659 7  88174410.62846  21533041.727                    21533048.555
 116027771.238 7  90411297.78645  22079350.813                    22079358.285
 104460476.031 8  81397920.98046  19878152.227                    19878159.402
 116092865.914 7  90461956.46045  22091703.594                    22091711.289
 115432579.996 8  89947586.56746  21966081.008                    21966086.449
 128256827.475 6  99940335.63543  24406440.219                    24406447.996
 117684663.869 7  91702404.45345  22394651.578                    22394659.320
 11  7 27  0 18  0.0000000  0  9G12G10G17G09G04G28G02G20G27
 129297560.173 6 100751391.51043  24604510.797                    24604519.012
 121348573.628 7  94557412.01244  23091863.938                    23091872.707
 113190679.527 7  88200502.72946  21539413.531                    21539420.410
 116016818.157 7  90402762.90145  22077266.070                    22077274.063
 104460231.134 8  81397730.16646  19878105.602                    19878112.594
 116153230.969 7  90508994.10745  22103190.859                    22103198.406
 115360564.764 8  89891470.85046  21952377.000                    21952382.730
 128303853.559 6  99976979.31343  24415389.180                    24415396.922
 117686988.696 7  91704215.99845  22395094.055                    22395102.023
 11  7 27  0 18 30.0000000  0  9G12G10G17G09G04G28G02G20G27
 129200637.804 6 100675867.64643  24586067.633                    24586075.727
 121256884.317 7  94485965.83844  23074416.141                    23074425.254
 113224253.073 7  88226663.93246  21545802.430                    21545809.191
 116006506.806 7  90394728.07845  22075303.938                    22075311.711
 104460544.192 8  81397974.11746  19878165.164                    19878172.586
 116213963.665 7  90556318.24245  22114748.016                    22114755.191
 115288871.232 8  89835605.80646  21938733.953                    21938739.852
 128351351.859 6 100013990.94042  24424427.617                    24424435.648
 117689797.588 7  91706404.73645  22395628.156                    22395636.699
 11  7 27  0 19  0.0000000  0  9G12G10G17G09G04G28G02G20G27
 129103697.754 6 100600330.01243  24567620.234                    24567628.184
 121165324.244 7  94414620.39144  23056992.578                    23057001.996
 113257916.137 7  88252894.88646  21552208.289                    21552215.328
 115996836.951 7  90387193.11145  22073463.727                    22073471.785
 104461414.542 8  81398652.31546  19878330.602                    19878338.102
 116275064.344 7  90603929.10645  22126374.813                    22126382.539
 115217500.123 8  89779991.99746  21925152.453                    21925158.289
 128399321.501 6 100051369.85342  24433555.789                    24433563.828
 117693090.016 7  91708970.25445  22396254.750                    22396263.082
 11  7 27  0 19 30.0000000  0  9G12G10G17G09G04G28G02G20G27
 129006741.966 7 100524780.10744  24549170.461                    24549178.797
 121073897.059 6  94343378.50544  23039594.016                    23039603.762
 113291667.702 7  88279194.79946  21558631.109                    21558638.250
 115987808.440 7  90380157.89845  22071745.914                    22071753.758
 104462841.590 8  81399764.31846  19878602.438                    19878609.273
 116336532.174 7  90651826.06045  22138072.039                    22138079.508
 115146452.771 8  89724630.47645  21911632.578                    21911638.281
 128447761.181 5 100089115.03642  24442772.617                    24442781.996
 117696865.667 7  91711912.31245  22396973.453                    22396981.477
 11  7 27  0 20  0.0000000  0  9G12G10G17G09G04G28G02G20G27
 128909771.713 6 100449218.94944  24530717.531                    24530725.641
 120982605.818 6  94272242.53444  23022221.672                    23022231.285
 113325507.511 7  88305563.47646  21565070.422                    21565077.445
 115979421.037 7  90373622.25845  22070149.938                    22070158.121
 104464824.142 7  81401309.17246  19878979.406                    19878986.590
 116398366.640 7  90700008.70845  22149839.047                    22149846.258
 115075730.327 8  89669522.12846  21898174.320                    21898180.254
 128496669.708 6 100127225.55343  24452080.477                    24452088.426
 117701123.676 7  91715230.22145  22397784.141                    22397791.785
 11  7 27  0 20 30.0000000  0  9G12G10G17G09G04G28G02G20G27
 128812788.841 7 100373647.94244  24512261.836                    24512269.793
 120891453.834 6  94201215.08444  23004876.578                    23004885.852
 113359435.571 7  88332000.92146  21571526.953                    21571533.801
 115971674.961 7  90367586.34445  22068675.742                    22068683.590
 104467361.342 8  81403286.22546  19879462.406                    19879469.395
 116460567.505 7  90748476.86445  22161675.563                    22161682.445
 115005333.893 8  89614667.81746  21884778.367                    21884784.328
 128546045.837 6 100165700.42742  24461476.992                    24461484.395
 117705863.462 7  91718923.54445  22398685.578                    22398693.746
 11  7 27  0 21  0.0000000  0  9G12G10G17G09G04G28G02G20G27
 128715795.235 6 100298068.56244  24493804.695                    24493813.133
 120800444.565 7  94130298.86844  22987558.180                    22987567.938
 113393451.931 7  88358507.17446  21577999.977                    21578006.891
 115964569.370 7  90362049.50645  22067323.789                    22067331.602
 104470452.221 8  81405694.71146  19880050.938                    19880057.859
 116523134.288 7  90797230.15545  22173582.016                    22173588.594
 114935264.277 8  89560068.16046  21871444.586                    21871450.344
 128595888.258 6 100204538.67642  24470961.461                    24470968.508
 117711084.099 7  91722991.56245  22399679.352                    22399687.852
 11  7 27  0 21 30.0000000  0  9G12G10G17G09G04G28G02G20G27
 128618792.621 7 100222482.15944  24475345.563                    24475353.793
 120709581.094 7  94059496.24244  22970267.008                    22970276.750
 113427556.370 7  88385082.04946  21584489.641                    21584497.082
 115958103.832 7  90357011.42145  22066093.508                    22066101.125
 104474095.504 8  81408533.64246  19880743.844                    19880750.777
 116586066.304 7  90846268.05345  22185557.297                    22185563.715
 114865522.504 8  89505723.97146  21858173.070                    21858178.727
 128646195.710 6 100243739.28142  24480534.266                    24480541.707
 117716784.845 7  91727433.68445  22400764.523                    22400772.168
 11  7 27  0 22  0.0000000  0  9G12G10G17G09G04G28G02G20G27
 128521782.461 6 100146889.85943  24456884.578                    24456892.469
 120618867.002 7  93988810.03144  22953005.297                    22953014.238
 113461748.883 7  88411725.56846  21590996.234                    21591003.102
 115952278.464 7  90352472.17145  22064984.758                    22064992.754
 104478290.694 8  81411802.63346  19881542.289                    19881549.145
 116649363.748 7  90895590.69745  22197602.508                    22197609.465
 114796109.928 8  89451636.30146  21844964.430                    21844970.090
 128696967.137 6 100283301.41343  24490196.164                    24490203.379
 117722965.204 7  91732249.53745  22401940.242                    22401948.211
 11  7 27  0 22 30.0000000  0  9G12G10G17G09G04G28G02G20G27
 128424766.146 6 100071292.78444  24438423.367                    24438431.598
 120528305.231 7  93918242.50544  22935771.961                    22935780.777
 113496028.973 7  88438437.31646  21597519.352                    21597526.719
 115947092.775 7  90348431.38045  22063997.945                    22064005.926
 104483036.225 8  81415500.46146  19882445.219                    19882451.910
 116713025.510 7  90945197.23845  22209717.078                    22209723.832
 114727027.096 8  89397805.57246  21831818.125                    21831823.945
 128748201.217 6 100323224.04043  24499945.977                    24499953.289
 117729624.286 7  91737438.40845  22403207.430                    22403215.336
 11  7 27  0 23  0.0000000  0  9G12G10G17G09G04G28G02G20G27
 128327745.890 6  99995692.63143  24419961.188                    24419969.301
 120437899.444 7  93847796.52944  22918567.531                    22918576.625
 113530397.543 7  88465218.02146  21604059.367                    21604066.973
 115942546.755 7  90344889.03045  22063132.594                    22063140.719
 104488331.514 7  81419626.66046  19883452.828                    19883459.957
 116777051.686 7  90995087.71445  22221900.633                    22221907.926
 114658275.218 8  89344232.73446  21818735.180                    21818740.785
 128799896.637 6 100363506.19542  24509783.492                    24509790.242
 117736761.720 7  91743000.02645  22404565.477                    22404573.215
 11  7 27  0 23 30.0000000  0  9G12G10G17G09G04G28G02G20G27
 128230723.394 6  99920090.76343  24401497.945                    24401506.387
 120347652.766 7  93777474.51344  22901394.172                    22901403.074
 113564853.862 8  88492067.09446  21610616.539                    21610623.641
 115938639.590 7  90341844.46945  22062389.625                    22062397.582
 104494175.371 8  81424180.32146  19884565.000                    19884572.063
 116841441.669 7  91045261.68945  22234152.813                    22234160.488
 114589855.409 8  89290918.64246  21805714.906                    21805720.934
 128852051.956 6 100404146.66542  24519707.844                    24519715.305
 117744376.618 7  91748933.69145  22406014.781                    22406023.020
 11  7 27  0 24  0.0000000  0  9G12G10G17G09G04G28G02G20G27
 128133700.396 6  99844488.47043  24383035.516                    24383044.004
 120257568.620 7  93707279.15044  22884251.828                    22884260.086
 113599397.679 8  88518984.35446  21617190.297                    21617197.031
 115935370.713 7  90339297.30145  22061767.445                    22061774.977
 104500566.552 8  81429160.46246  19885781.000                    19885788.184
 116906194.520 7  91095718.39945  22246475.867                    22246483.141
 114521768.430 8  89237863.89846  21792758.828                    21792764.270
 128904665.903 6 100445144.56842  24529720.016                    24529727.742
 117752467.960 7  91755238.62245  22407554.141                    22407562.672
 11  7 27  0 24 30.0000000  0  9G12G10G17G09G04G28G02G20G27
 128036678.499 6  99768887.04843  24364572.836                    24364580.820
 120167650.128 7  93637212.84444  22867140.938                    22867148.934
 113634028.959 7  88545969.76846  21623780.438                    21623786.945
 115932739.767 7  90337247.21045  22061267.148                    22061274.461
 104507504.065 7  81434566.32546  19887101.328                    19887108.145
 116971310.230 7  91146457.87845  22258866.797                    22258874.180
 114454015.344 8  89185069.33246  21779865.664                    21779871.266
 128957737.163 6 100486498.78143  24539818.758                    24539826.340
 117761034.819 7  91761914.07445  22409184.805                    22409192.750
 11  7 27  0 25  0.0000000  0  9G12G10G17G09G04G28G02G20G27
 127939659.589 7  99693287.89143  24346110.570                    24346118.223
 120077900.408 7  93567278.07644  22850061.563                    22850070.387
 113668747.661 8  88573023.29346  21630386.891                    21630393.582
 115930746.153 7  90335693.74645  22060887.664                    22060895.340
 104514986.692 8  81440396.94246  19888524.977                    19888532.059
 117036787.909 7  91197479.41045  22271326.773                    22271334.168
 114386596.973 8  89132535.58046  21767036.516                    21767042.309
 129011264.464 6 100528208.36843  24550004.977                    24550012.559
 117770076.495 7  91768959.52145  22410904.766                    22410913.465
 11  7 27  0 25 30.0000000  0  9G12G10G17G09G04G28G02G20G27
 127842645.541 7  99617692.54843  24327649.430                    24327657.090
 119988323.490 7  93497477.97544  22833015.508                    22833024.289
 113703554.417 7  88600145.44445  21637010.570                    21637017.211
 115929389.862 7  90334636.89945  22060629.406                    22060636.859
 104523013.710 8  81446651.77446  19890052.633                    19890059.621
 117102627.273 7  91248782.77545  22283855.469                    22283862.949
 114319514.551 8  89080263.59746  21754271.195                    21754276.781
 129065246.571 6 100570272.32143  24560277.273                    24560284.969
 117779592.328 7  91776374.43545  22412715.836                    22412724.051
 11  7 27  0 26  0.0000000  0  9G12G10G17G09G04G28G02G20G27
 127745638.119 7  99542102.37043  24309189.164                    24309197.605
 119898922.304 7  93427814.77944  22816003.289                    22816011.934
 113738448.660 8  88627335.76246  21643650.688                    21643657.727
 115928669.672 7  90334075.71445  22060492.492                    22060500.129
 104531583.681 8  81453329.67346  19891683.445                    19891690.227
 117168827.932 7  91300367.66645  22296452.711                    22296460.301
 114252768.933 8  89028254.06746  21741569.680                    21741575.242
 129119681.646 6 100612689.25843  24570635.563                    24570643.781
 117789581.332 7  91784158.05845  22414616.992                    22414624.832
 11  7 27  0 26 30.0000000  0  9G12G10G17G09G04G28G02G20G27
 127648639.957 7  99466519.42743  24290731.742                    24290739.188
 119809701.035 7  93358291.79944  22799025.109                    22799033.992
 113773430.982 8  88654594.70046  21650307.594                    21650314.305
 115928586.126 7  90334010.61645  22060476.313                    22060483.914
 104540696.392 8  81460430.49646  19893417.352                    19893424.457
 117235389.949 7  91352234.12545  22309119.383                    22309126.672
 114186361.753 8  88976508.24646  21728932.969                    21728938.227
 129174569.691 6 100655459.16143  24581080.922                    24581088.250
 117800043.497 7  91792310.37945  22416607.242                    22416615.844
 11  7 27  0 27  0.0000000  0  8G12G10G17G09G04G28G02G27
 127551652.541 7  99390944.87344  24272275.695                    24272283.008
 119720662.742 7  93288911.38844  22782081.617                    22782090.125
 113808501.093 8  88681922.06546  21656981.367                    21656988.141
 115929138.125 7  90334440.74745  22060581.477                    22060589.254
 104550350.125 8  81467952.88946  19895254.344                    19895261.395
 117302312.234 7  91404381.32145  22321854.109                    22321861.938
 114120293.611 8  88925026.62246  21716360.383                    21716366.082
 117810977.363 7  91800830.27045  22418688.656                    22418696.363
 11  7 27  0 27 30.0000000  0  8G12G10G17G09G04G28G02G27
 127454677.017 7  99315379.56144  24253821.422                    24253829.531
 119631809.895 7  93219675.46344  22765173.484                    22765182.301
 113843658.183 8  88709317.19146  21663671.383                    21663678.230
 115930323.995 7  90335364.79745  22060806.586                    22060814.902
 104560542.724 8  81475895.17546  19897194.031                    19897201.250
 117369593.520 7  91456808.24544  22334657.922                    22334665.281
 114054564.484 8  88873809.15746  21703852.625                    21703858.324
 117822381.135 7  91809716.31145  22420858.484                    22420866.469
 11  7 27  0 28  0.0000000  0  8G12G10G17G09G04G28G02G27
 127357714.967 7  99239824.75944  24235370.539                    24235378.156
 119543145.812 7  93150586.63645  22748301.023                    22748310.375
 113878902.333 7  88736780.14946  21670378.250                    21670385.125
 115932143.384 7  90336782.49745  22061153.547                    22061161.043
 104571273.037 8  81484256.46946  19899235.773                    19899242.445
 117437233.326 7  91509514.54945  22347529.211                    22347536.391
 113989175.448 8  88822856.71946  21691409.484                    21691415.047
 117834254.049 7  91818967.91045  22423118.070                    22423126.207
 11  7 27  0 28 30.0000000  0  8G12G10G17G09G04G28G02G27
 127260768.387 6  99164282.00244  24216921.648                    24216929.230
 119454674.013 7  93081647.63545  22731465.938                    22731474.707
 113914233.843 7  88764311.18446  21677101.141                    21677108.441
 115934595.451 7  90338693.19945  22061620.250                    22061627.605
 104582540.025 8  81493035.94146  19901380.297                    19901387.109
 117505230.926 7  91562499.63145  22360468.656                    22360476.043
 113924127.280 8  88772169.88346  21679030.938                    21679037.109
 117846595.193 7  91828584.38245  22425466.461                    22425474.605
 11  7 27  0 29  0.0000000  0  8G12G10G17G09G04G28G02G27
 127163838.982 6  99088752.62844  24198476.633                    24198484.281
 119366397.797 7  93012861.05245  22714667.070                    22714676.266
 113949652.320 7  88791909.96346  21683841.422                    21683848.563
 115937679.331 7  90341096.21445  22062206.773                    22062213.887
 104594341.927 8  81502232.23546  19903626.109                    19903633.027
 117573585.317 7  91615762.73545  22373476.070                    22373483.652
 113859420.685 8  88721749.19546  21666717.844                    21666723.723
 117859403.331 7  91838564.73145  22427903.469                    22427911.254
 11  7 27  0 29 30.0000000  0  8G12G10G17G09G04G28G02G27
 127066928.709 6  99013238.17744  24180034.805                    24180043.086
 119278320.535 7  92944229.49545  22697906.727                    22697915.535
 113985158.249 7  88819576.90146  21690597.906                    21690604.918
 115941394.564 7  90343991.19545  22062913.734                    22062921.309
 104606677.935 8  81511844.71246  19905973.438                    19905980.273
 117642296.361 7  91669303.75445  22386551.414                    22386558.926
 113795056.563 8  88671595.38646  21654469.531                    21654475.199
 117872677.630 7  91848908.33345  22430429.570                    22430437.629
 11  7 27  0 30  0.0000000  0  8G12G10G17G09G04G28G02G27
 126970039.783 6  98937740.33244  24161598.547                    24161605.496
 119190445.871 7  92875755.80244  22681184.125                    22681193.707
 114020751.324 8  88847311.75046  21697370.852                    21697377.676
 115945740.460 7  90347377.60445  22063740.648                    22063748.414
 104619547.054 8  81521872.59946  19908421.859                    19908429.203
 117711363.516 7  91723122.26045  22399694.820                    22399702.195
 113731036.334 8  88621709.55046  21642286.727                    21642292.484
 117886417.171 7  91859614.45645  22433044.234                    22433052.078
 11  7 27  0 30 30.0000000  0  8G12G10G17G09G04G28G02G27
 126873173.662 6  98862260.25043  24143164.969                    24143171.813
 119102776.538 7  92807442.10844  22664501.141                    22664510.246
 114056431.641 8  88875114.56846  21704161.188                    21704167.582
 115950715.887 7  90351254.55545  22064688.070                    22064695.332
 104632947.248 8  81532314.31846  19910972.102                    19910979.805
 117780785.857 7  91777217.55245  22412905.641                    22412912.668
 113667360.275 8  88572091.88846  21630169.906                    21630175.258
 117900620.513 7  91870681.98245  22435746.781                    22435755.109
 11  7 27  0 31  0.0000000  0  8G12G10G17G09G04G28G02G27
 126776332.639 6  98786799.75243  24124736.469                    24124744.664
 119015316.473 7  92739291.47444  22647857.938                    22647866.520
 114092199.266 8  88902985.42646  21710967.297                    21710973.984
 115956320.370 7  90355621.66245  22065754.188                    22065761.598
 104646877.888 8  81543169.35946  19913623.266                    19913630.215
 117850562.826 7  91831589.15945  22426183.602                    22426190.770
 113604029.797 8  88522743.51546  21618118.383                    21618124.340
 117915286.956 7  91882110.35545  22438537.867                    22438545.953
 11  7 27  0 31 30.0000000  0  8G12G10G17G09G04G28G02G27
 126679518.486 7  98711360.20543  24106313.258                    24106320.984
 118928068.674 7  92671306.24844  22631255.164                    22631263.996
 114128054.149 8  88930924.28146  21717789.969                    21717797.109
 115962552.493 7  90360477.84845  22066940.031                    22066948.125
 104661337.021 8  81554436.21946  19916374.930                    19916381.871
 117920693.509 7  91886236.38445  22439529.180                    22439536.609
 113541045.143 8  88473664.61646  21606132.711                    21606138.082
 117930415.173 7  91893898.55645  22441416.930                    22441424.656
 11  7 27  0 32  0.0000000  0  8G12G10G17G09G04G28G02G27
 126582733.288 7  98635943.21843  24087895.797                    24087903.168
 118841036.517 7  92603489.04044  22614693.531                    22614702.633
 114163996.300 8  88958931.13646  21724629.773                    21724636.453
 115969411.481 7  90365822.49545  22068245.625                    22068253.168
 104676323.563 8  81566114.05446  19919226.313                    19919233.742
 117991177.322 7  91941158.80245  22452941.688                    22452948.941
 113478407.075 8  88424855.77846  21594212.766                    21594218.746
 117946004.147 7  91906045.80545  22444383.531                    22444391.102
 11  7 27  0 32 30.0000000  0  8G12G10G17G09G04G28G02G27
 126485978.712 7  98560550.04543  24069483.500                    24069491.297
 118754223.323 7  92535842.45644  22598173.641                    22598182.383
 114200025.925 7  88987006.15546  21731485.906                    21731493.207
 115976896.182 7  90371654.70745  22069669.852                    22069677.598
 104691835.834 8  81578201.54046  19922178.367                    19922185.605
 118062013.450 7  91996355.73044  22466421.195                    22466428.703
 113416116.410 8  88376317.64746  21582359.258                    21582365.219
 117962052.743 8  91918551.18745  22447437.094                    22447445.117
 11  7 27  0 33  0.0000000  0  8G12G10G17G09G04G28G02G27
 126389256.470 7  98485182.10544  24051078.367                    24051085.711
 118667632.418 7  92468369.07544  22581695.766                    22581704.441
 114236142.887 7  89015149.21146  21738358.781                    21738365.730
 115985005.634 7  90377973.74345  22071212.984                    22071220.871
 104707872.241 8  81590697.44646  19925229.836                    19925237.148
 118133200.950 7  92051826.46944  22479967.805                    22479975.430
 113354173.639 8  88328050.59446  21570572.125                    21570577.785
 117978559.558 7  91931413.62545  22450577.945                    22450586.805
 11  7 27  0 33 30.0000000  0  8G12G10G17G09G04G28G02G27
 126292568.732 7  98409841.04844  24032679.359                    24032687.063
 118581267.116 7  92401071.47945  22565261.336                    22565269.957
 114272347.206 8  89043360.35646  21745248.148                    21745254.840
 115993739.000 7  90384778.95345  22072874.781                    22072882.398
 104724431.492 8  81603600.76746  19928381.078                    19928388.246
 118204739.194 7  92107570.50644  22493581.117                    22493588.543
 113292579.865 8  88280055.49646  21558851.039                    21558857.105
 117995523.404 7  91944632.18545  22453806.102                    22453814.918
 11  7 27  0 34  0.0000000  0  8G12G10G17G09G04G28G02G27
 126195917.364 7  98334528.34644  24014287.211                    24014294.855
 118495131.029 7  92333952.51345  22548869.898                    22548878.559
 114308639.208 7  89071639.81745  21752154.539                    21752161.188
 116003095.361 7  90392069.59545  22074655.406                    22074662.555
 104741512.294 8  81616910.48146  19931631.633                    19931638.590
 118276627.342 7  92163587.19644  22507260.836                    22507268.379
 113231335.739 8  88232332.83946  21547196.734                    21547202.410
 118012943.184 7  91958206.02445  22457121.609                    22457129.488
 11  7 27  0 34 30.0000000  0  8G12G10G17G09G04G28G02G27
 126099304.431 7  98259245.58844  23995902.227                    23995910.000
 118409227.546 7  92267014.78145  22532523.453                    22532532.113
 114345019.137 8  89099987.80346  21759077.266                    21759084.613
 116013073.261 7  90399844.57445  22076553.930                    22076562.055
 104759113.219 8  81630625.49146  19934980.492                    19934988.176
 118348864.794 7  92219876.08944  22521007.648                    22521014.844
 113170442.134 8  88184883.30946  21535609.109                    21535614.547
 118030817.784 7  91972134.27245  22460522.617                    22460530.941
 11  7 27  0 35  0.0000000  0  8G12G10G17G09G04G28G02G27
 126002732.017 7  98183994.40044  23977524.820                    23977532.676
 118323559.802 7  92200260.75645  22516221.633                    22516229.637
 114381486.763 8  89128404.10746  21766016.750                    21766023.816
 116023671.863 7  90408103.20945  22078570.680                    22078578.254
 104777232.803 8  81644744.65146  19938428.961                    19938435.895
 118421450.613 7  92276436.42644  22534820.758                    22534827.566
 113109899.830 8  88137707.52446  21524088.297                    21524094.043
 118049146.088 7  91986416.05745  22464010.406                    22464018.547
 11  7 27  0 35 30.0000000  0  8G12G10G17G09G04G28G02G27
 125906201.847 7  98108776.12744  23959156.133                    23959163.328
 118238130.771 7  92133692.73945  22499964.555                    22499972.945
 114418041.687 8  89156888.45146  21772972.852                    21772979.645
 116034889.723 7  90416844.38045  22080705.445                    22080713.305
 104795868.860 8  81659266.24946  19941975.273                    19941982.316
 118494383.757 7  92333267.41044  22548698.938                    22548706.242
 113049708.690 8  88090805.37746  21512634.172                    21512639.699
 118067926.357 7  92001050.01245  22467583.977                    22467592.434
 11  7 27  0 36  0.0000000  0  8G12G10G17G09G04G28G02G27
 125809715.986 7  98033592.40544  23940795.250                    23940802.504
 118152944.223 7  92067313.67345  22483754.227                    22483762.359
 114454684.618 8  89185441.36946  21779946.023                    21779952.930
 116046726.026 7  90426067.46245  22082957.547                    22082965.461
 104815020.373 8  81674189.51446  19945619.492                    19945626.883
 118567663.334 7  92390368.32844  22562643.508                    22562651.051
 112989870.001 8  88044177.86246  21501247.219                    21501253.242
 118087157.558 8  92016035.33145  22471244.141                    22471252.090
 11  7 27  0 36 30.0000000  0  8G12G10G17G09G04G28G02G27
 125713276.531 7  97958444.83544  23922443.281                    23922451.215
 118068003.246 7  92001125.97544  22467589.734                    22467598.457
 114491415.579 8  89214062.88346  21786935.500                    21786942.684
 116059179.451 7  90435771.42245  22085327.688                    22085335.621
 104834685.619 8  81689513.08146  19949361.516                    19949368.863
 118641288.672 7  92447738.67944  22576654.188                    22576661.023
 112930384.564 8  87997825.61046  21489927.766                    21489933.336
 118106838.277 8  92031370.94045  22474988.977                    22474997.094
 11  7 27  0 37  0.0000000  0  8G12G10G17G09G04G28G02G27
 125616885.490 6  97883334.99744  23904101.023                    23904109.086
 117983311.563 7  91935132.52744  22451473.156                    22451482.414
 114528234.977 8  89242753.31746  21793942.469                    21793949.008
 116072248.929 7  90445955.42045  22087814.570                    22087822.664
 104854863.591 8  81705236.17346  19953201.211                    19953208.605
 118715259.295 7  92505378.07444  22590730.375                    22590737.641
 112871253.259 8  87951749.30346  21478675.055                    21478680.902
 118126967.726 7  92047056.21145  22478819.625                    22478827.617
 11  7 27  0 37 30.0000000  0  8G12G10G17G09G04G28G02G27
 125520544.615 6  97808264.25244  23885767.406                    23885775.453
 117898872.406 7  91869335.84044  22435405.234                    22435414.336
 114565142.621 8  89271512.51346  21800965.539                    21800972.754
 116085932.955 7  90456618.28545  22090418.766                    22090426.719
 104875552.138 8  81721357.12846  19957138.281                    19957145.543
 118789573.797 7  92563285.43145  22604871.969                    22604879.223
 112812476.196 8  87905949.01246  21467490.508                    21467495.605
 118147544.252 7  92063089.84945  22482735.281                    22482743.336
 11  7 27  0 38  0.0000000  0  8G12G10G17G09G04G28G02G27
 125424256.502 6  97733234.62044  23867444.227                    23867452.238
 117814688.784 7  91803738.29044  22419385.406                    22419394.219
 114602138.839 8  89300340.72346  21808005.500                    21808012.855
 116100229.953 7  90467758.80345  22093139.234                    22093146.922
 104896749.725 8  81737874.72946  19961172.148                    19961179.637
 118864231.134 7  92621459.91544  22619078.586                    22619086.258
 112754054.072 8  87860425.30846  21456372.711                    21456378.410
 118168566.419 7  92079470.73645  22486735.438                    22486743.578
 11  7 27  0 38 30.0000000  0  8G12G10G17G09G04G28G02G27
 125328022.620 7  97658247.24044  23849131.273                    23849139.906
 117730764.305 7  91738342.65544  22403415.344                    22403423.992
 114639223.079 8  89329237.53046  21815062.531                    21815069.719
 116115138.814 7  90479376.08845  22095976.258                    22095984.004
 104918454.587 8  81754787.60646  19965302.289                    19965309.633
 118939230.675 7  92679901.04444  22633350.672                    22633357.723
 112695987.688 8  87815178.79546  21445323.211                    21445328.793
 118190032.810 7  92096197.77545  22490820.828                    22490828.906
 11  7 27  0 39  0.0000000  0  8G12G10G17G09G04G28G02G27
 125231845.307 7  97583303.93944  23830829.688                    23830837.398
 117647102.564 7  91673151.73645  22387495.180                    22387503.043
 114676396.265 8  89358203.64246  21822136.344                    21822143.469
 116130658.632 7  90491469.44545  22098929.781                    22098937.160
 104940665.575 8  81772094.87146  19969529.008                    19969536.422
 119014571.451 7  92738608.08144  22647687.570                    22647695.117
 112638277.934 8  87770210.17546  21434341.336                    21434346.977
 118211942.220 7  92113270.02245  22494989.953                    22494997.754
 11  7 27  0 39 30.0000000  0  8G12G10G17G09G04G28G02G27
 125135726.660 7  97508406.33144  23812538.969                    23812546.480
 117563706.583 7  91608167.89545  22371625.023                    22371633.449
 114713658.068 8  89387238.80546  21829227.422                    21829233.832
 116146787.728 7  90504037.56445  22101998.859                    22102006.863
 104963380.891 8  81789795.11446  19973851.797                    19973858.922
 119090252.513 7  92797580.26844  22662089.203                    22662096.738
 112580925.017 8  87725519.61746  21423427.641                    21423432.941
 118234293.007 7  92130686.20045  22499242.438                    22499251.078
 11  7 27  0 40  0.0000000  0  8G12G10G17G09G04G28G02G27
 125039668.192 7  97433555.60744  23794259.711                    23794266.957
 117480579.463 7  91543393.57445  22355806.641                    22355815.043
 114751008.658 8  89416343.15646  21836334.922                    21836341.738
 116163524.449 7  90517079.16045  22105183.664                    22105191.738
 104986598.262 8  81807886.56846  19978269.492                    19978276.563
 119166272.805 7  92856816.77244  22676556.039                    22676562.996
 112523929.078 8  87681107.20746  21412581.492                    21412587.125
 118257083.557 7  92148445.03845  22503580.172                    22503588.031
 11  7 27  0 40 30.0000000  0  8G12G10G17G09G04G28G02G27
 124943672.239 7  97358753.60544  23775992.273                    23775999.969
 117397724.618 7  91478831.40545  22340040.156                    22340048.340
 114788448.242 8  89445516.84246  21843459.250                    21843466.172
 116180867.178 7  90530592.96845  22108484.281                    22108491.695
 105010316.167 8  81826368.05246  19982782.789                    19982790.293
 119242631.216 7  92916316.76744  22691085.875                    22691093.379
 112467290.816 8  87636973.52946  21401803.352                    21401809.430
 118280312.411 7  92166545.43245  22508000.117                    22508008.664
 11  7 27  0 41  0.0000000  0  8G12G10G17G09G04G28G02G27
 124847741.241 7  97284002.22244  23757737.344                    23757744.730
 117315145.033 7  91414483.72945  22324325.430                    22324333.836
 114825976.753 7  89474759.83246  21850600.836                    21850607.859
 116198814.790 7  90544578.12345  22111899.477                    22111907.578
 105034533.051 8  81845238.35146  19987391.367                    19987398.605
 119319326.916 7  92976079.58144  22705681.289                    22705688.223
 112411011.171 8  87593119.28646  21391094.148                    21391099.230
 118303978.223 7  92184986.29345  22512503.945                    22512511.871
 11  7 27  0 41 30.0000000  0  8G12G10G17G09G04G28G02G27
 124751876.800 7  97209302.69044  23739494.891                    23739502.301
 117232844.743 7  91350353.68945  22308664.188                    22308672.875
 114863594.974 7  89504072.71746  21857758.961                    21857766.371
 116217366.427 7  90559033.93145  22115429.422                    22115437.469
 105059247.640 8  81864496.46846  19992094.555                    19992101.859
 119396359.179 7  93036104.67244  22720339.195                    22720346.762
 112355090.980 8  87549545.12646  21380452.633                    21380458.301
 118328080.169 7  92203767.00445  22517090.281                    22517098.105
 11  7 27  0 42  0.0000000  0  8G12G10G17G09G04G28G02G27
 124656081.392 7  97134656.95344  23721265.375                    23721272.746
 117150826.864 7  91286443.71145  22293056.547                    22293065.340
 114901302.682 8  89533455.34246  21864934.781                    21864942.012
 116236519.975 7  90573958.77145  22119074.602                    22119082.301
 105084458.046 8  81884140.93746  19996891.797                    19996899.277
 119473726.669 7  93096390.98044  22735062.727                    22735069.613
 112299530.126 8  87506250.97746  21369879.906                    21369885.379
 118352616.338 7  92222886.07245  22521759.188                    22521767.383
 11  7 27  0 42 30.0000000  0  8G12G10G17G09G04G28G02G27
 124560356.887 7  97060066.46844  23703049.500                    23703057.309
 117069094.634 7  91222756.32645  22277503.359                    22277512.168
 114939099.929 7  89562907.72446  21872127.078                    21872134.707
 116256273.477 7  90589351.10245  22122833.438                    22122841.598
 105110162.113 8  81904170.07846  20001782.922                    20001790.332
 119551428.209 7  93156937.57144  22749848.492                    22749856.035
 112244329.234 8  87463237.31746  21359375.328                    21359380.965
 118377584.800 7  92242341.99645  22526510.969                    22526519.223
 11  7 27  0 43  0.0000000  0  8G12G10G17G09G04G28G02G27
 124464705.367 7  96985532.86244  23684847.414                    23684855.617
 116987651.041 7  91159293.83845  22262005.336                    22262013.605
 114976987.062 7  89592430.14146  21879336.688                    21879344.043
 116276625.728 7  90605209.99145  22126706.156                    22126714.047
 105136358.006 8  81924582.46046  20006768.063                    20006775.246
 119629462.852 7  93217743.72444  22764697.578                    22764705.641
 112189488.770 8  87420504.50846  21348939.555                    21348944.898
 118402984.043 7  92262133.58645  22531344.078                    22531352.434
 11  7 27  0 43 30.0000000  0  8G12G10G17G09G04G28G02G27
 124369129.324 6  96911058.05844  23666660.359                    23666667.535
 116906499.786 7  91096059.15845  22246562.813                    22246570.746
 115014964.569 8  89622023.00346  21886564.023                    21886571.246
 116297575.463 7  90621534.44045  22130693.258                    22130700.500
 105163044.582 8  81945377.19346  20011846.203                    20011853.648
 119707829.724 7  93278808.76444  22779610.813                    22779618.238
 112135009.676 8  87378053.29546  21338572.523                    21338578.074
 118428813.022 7  92282260.03745  22536259.078                    22536267.160
 11  7 27  0 44  0.0000000  0  8G12G10G17G09G04G28G02G27
 124273630.359 6  96836643.31844  23648486.969                    23648494.574
 116825643.894 7  91033054.62245  22231176.180                    22231184.695
 115053032.263 7  89651686.11646  21893808.141                    21893815.008
 116319120.562 7  90638322.82045  22134793.344                    22134800.539
 105190219.282 8  81966552.28646  20017017.430                    20017024.758
 119786527.309 7  93340131.50444  22794586.109                    22794594.332
 112080891.733 8  87335883.49646  21328274.023                    21328279.707
 118455069.624 7  92302719.70745  22541255.641                    22541263.531
 11  7 27  0 44 30.0000000  0  8G12G10G17G09G04G28G02G27
 124178211.210 6  96762290.76444  23630329.906                    23630336.813
 116745086.989 7  90970283.07745  22215846.844                    22215854.945
 115091190.298 7  89681419.63946  21901069.141                    21901076.430
 116341259.787 7  90655574.15845  22139005.992                    22139013.836
 105217881.198 8  81988107.02346  20022281.352                    20022288.594
 119865555.045 7  93401711.49844  22809624.523                    22809632.176
 112027135.927 8  87293995.88246  21318044.617                    21318050.051
 118481752.722 7  92323511.71645  22546332.805                    22546341.355
 11  7 27  0 45  0.0000000  0  8G12G10G17G09G04G28G02G27
 124082873.477 7  96688001.66244  23612187.383                    23612195.102
 116664832.195 7  90907746.90845  22200574.633                    22200583.066
 115129438.981 7  89711223.78546  21908347.664                    21908355.031
 116363991.052 7  90673286.80545  22143331.234                    22143339.449
 105246027.703 8  82010039.36446  20027637.016                    20027644.523
 119944911.418 7  93463547.55844  22824725.625                    22824734.238
 111973742.640 8  87252390.74946  21307884.508                    21307890.008
 118508860.304 7  92344634.47845  22551491.336                    22551499.453
 11  7 27  0 45 30.0000000  0  8G12G10G17G09G04G28G02G27
 123987619.495 6  96613777.81644  23594061.281                    23594069.043
 116584882.654 7  90845448.61445  22185360.531                    22185368.906
 115167778.490 7  89741098.72046  21915643.500                    21915650.594
 116387312.970 7  90691459.71345  22147769.422                    22147777.215
 105274657.197 8  82032348.05746  20033085.344                    20033092.691
 120024595.404 7  93525638.90644  22839889.219                    22839897.332
 111920712.040 8  87211068.23046  21297793.063                    21297798.246
 118536390.922 7  92366086.88845  22556730.563                    22556738.656
 11  7 27  0 46  0.0000000  0  8G12G10G17G09G04G28G02G27
 123892451.513 7  96539620.98744  23575951.555                    23575958.684
 116505241.612 7  90783390.72045  22170205.672                    22170213.367
 115206209.142 7  89771044.65146  21922956.180                    21922963.668
 116411223.753 8  90710091.47145  22152319.258                    22152327.078
 105303767.914 8  82055031.72946  20038625.063                    20038632.508
 120104605.860 7  93587984.64944  22855115.227                    22855122.766
 111868044.668 8  87170028.75446  21287770.602                    21287776.297
 118564342.863 7  92387867.61045  22562049.672                    22562057.629
 11  7 27  0 46 30.0000000  0  8G12G10G17G09G04G28G02G27
 123797371.716 7  96465532.86044  23557858.328                    23557865.797
 116425912.747 7  90721576.05845  22155109.469                    22155117.383
 115244731.057 7  89801061.70945  21930287.070                    21930294.223
 116435721.615 7  90729180.68845  22156981.305                    22156988.836
 105333358.149 8  82078089.05146  20044255.633                    20044262.906
 120184941.857 7  93650584.06444  22870402.563                    22870410.109
 111815741.068 8  87129272.73546  21277817.438                    21277822.973
 118592714.341 7  92409975.23545  22567448.148                    22567456.215
 11  7 27  0 47  0.0000000  0  8G12G10G17G09G04G28G02G27
 123702382.034 7  96391514.95644  23539782.133                    23539789.727
 116346898.952 7  90660006.91945  22140073.859                    22140081.527
 115283344.427 8  89831150.04645  21937635.258                    21937642.367
 116460804.422 7  90748725.73145  22161754.641                    22161762.254
 105363425.590 8  82101518.22346  20049977.461                    20049984.426
 120265602.147 7  93713436.19144  22885751.516                    22885759.371
 111763801.368 8  87088800.26546  21267934.047                    21267939.438
 118621503.381 7  92432408.22445  22572927.656                    22572934.906
 11  7 27  0 47 30.0000000  0  8G12G10G17G09G04G28G02G27
 123607484.530 7  96317568.88944  23521723.664                    23521731.156
 116268203.570 7  90598685.90145  22125098.523                    22125106.504
 115322049.434 8  89861309.76245  21945000.508                    21945007.742
 116486470.663 7  90768725.38245  22166638.469                    22166646.328
 105393968.409 8  82125317.81746  20055789.688                    20055797.023
 120346585.570 7  93776540.09544  22901161.977                    22901169.844
 111712225.928 8  87048611.64546  21258119.023                    21258124.605
 118650708.476 7  92455165.42445  22578484.922                    22578492.703
 11  7 27  0 48  0.0000000  0  8G12G10G17G09G04G28G02G27
 123512681.760 7  96243696.63944  23503683.586                    23503690.859
 116189829.886 7  90537615.53845  22110184.500                    22110192.813
 115360846.600 7  89891541.31646  21952382.953                    21952389.910
 116512718.724 7  90789178.38145  22171633.430                    22171641.023
 105424984.893 8  82149486.50046  20061691.867                    20061699.215
 120427890.545 7  93839894.57544  22916633.945                    22916641.730
 111661015.466 8  87008707.41746  21248374.016                    21248379.941
 118680328.371 7  92478245.84745  22584120.891                    22584129.152
 11  7 27  0 48 30.0000000  0  8G12G10G17G09G04G28G02G27
 123417976.032 7  96169900.00044  23485661.578                    23485668.945
 116111781.172 7  90476798.40245  22095331.922                    22095340.367
 115399736.029 8  89921844.74945  21959783.852                    21959790.590
 116539546.433 7  90810083.07145  22176738.578                    22176746.215
 105456473.325 8  82174022.94646  20067683.969                    20067691.473
 120509516.330 7  93903499.02844  22932166.688                    22932174.855
 111610170.319 8  86969087.84946  21238698.797                    21238704.129
 118710361.363 7  92501648.16245  22589835.547                    22589844.184
 11  7 27  0 49  0.0000000  0  8G12G10G17G09G04G28G02G27
 123323369.371 7  96096180.55545  23467658.594                    23467666.121
 116034060.703 7  90416237.05945  22080542.578                    22080550.820
 115438717.689 8  89952220.04246  21967201.586                    21967208.738
 116566951.723 7  90831437.82345  22181953.891                    22181961.563
 105488431.301 8  82198925.25946  20073765.367                    20073773.012
 120591461.242 7  93967352.14844  22947760.992                    22947768.328
 111559690.349 8  86929752.83946  21229092.617                    21229098.258
 118740805.372 7  92525370.75045  22595629.477                    22595637.688
 11  7 27  0 49 30.0000000  0  8G12G10G17G09G04G28G02G27
 123228863.878 7  96022539.93444  23449674.680                    23449682.188
 115956671.979 7  90355934.21145  22065816.445                    22065824.238
 115477792.272 7  89982667.74945  21974637.273                    21974644.086
 116594932.952 7  90853241.35945  22187278.469                    22187286.328
 105520857.235 8  82224192.22046  20079935.555                    20079943.113
 120673724.555 7  94031453.38944  22963414.773                    22963422.629
 111509576.398 8  86890703.03846  21219556.148                    21219561.621
 118771658.693 7  92549412.28245  22601500.508                    22601508.922
 11  7 27  0 50  0.0000000  0  8G12G10G17G09G04G28G02G27
 123134461.605 7  95948979.76044  23431710.438                    23431717.699
 115879617.949 7  90295892.14545  22051153.094                    22051161.219
 115516959.808 7  90013187.89045  21982090.820                    21982097.469
 116623488.149 7  90875492.15045  22192712.102                    22192719.902
 105553748.916 8  82249822.10046  20086195.047                    20086202.285
 120756304.702 7  94095801.49244  22979129.141                    22979137.293
 111459828.299 8  86851938.31446  21210089.383                    21210094.703
 118802919.367 7  92573771.22845  22607449.336                    22607457.816
 11  7 27  0 50 30.0000000  0  8G12G10G17G09G04G28G02G27
 123040165.014 7  95875501.94344  23413765.891                    23413774.070
 115802901.494 7  90236113.16045  22036554.477                    22036562.980
 115556220.578 7  90043780.67345  21989561.641                    21989568.820
 116652615.401 7  90898188.69445  22198254.367                    22198262.781
 105587104.349 8  82275813.34846  20092542.047                    20092549.410
 120839200.394 7  94160395.50044  22994904.094                    22994911.516
 111410446.371 8  86813458.91846  21200692.578                    21200697.992
 118834585.623 7  92598446.22345  22613475.203                    22613483.410
 11  7 27  0 51  0.0000000  0  8G12G10G17G09G04G28G02G27
 122945976.677 7  95802108.48444  23395842.680                    23395850.211
 115726526.050 7  90176599.87645  22022020.570                    22022028.914
 115595574.510 7  90074446.05245  21997050.430                    21997057.699
 116682312.193 7  90921329.02545  22203906.063                    22203913.879
 105620921.469 8  82302164.35346  20098977.484                    20098984.520
 120922410.314 7  94225234.29044  23010738.242                    23010746.594
 111361430.965 8  86775265.11846  21191364.945                    21191370.215
 118866655.523 7  92623435.73445  22619577.867                    22619585.961
 11  7 27  0 51 30.0000000  0  8G12G10G17G09G04G28G02G27
 122851898.437 7  95728800.81244  23377940.328                    23377947.539
 115650495.078 7  90117355.01245  22007552.461                    22007560.785
 115635022.708 7  90105184.88445  22004557.320                    22004564.348
 116712577.126 7  90944912.08345  22209665.469                    22209673.477
 105655198.823 8  82328873.97646  20105499.992                    20105507.598
 121005933.748 7  94290317.43644  23026632.438                    23026640.281
 111312782.765 8  86737357.46246  21182107.461                    21182112.918
 118899127.681 7  92648738.68845  22625757.094                    22625765.477
 11  7 27  0 52  0.0000000  0  8G12G10G17G09G04G28G02G27
 122757932.797 7  95655580.89244  23360059.422                    23360066.547
 115574812.039 7  90058381.25845  21993150.344                    21993158.871
 115674565.229 7  90135997.20645  22012082.094                    22012089.188
 116743407.977 7  90968936.10545  22215532.438                    22215539.988
 105689934.304 8  82355940.58546  20112109.883                    20112117.297
 121089769.027 7  94355643.58444  23042585.789                    23042594.059
 111264501.982 8  86699736.10346  21172919.977                    21172925.125
 118932000.131 7  92674353.56845  22632012.383                    22632020.945
 11  7 27  0 52 30.0000000  0  8G12G10G17G09G04G28G02G27
 122664081.896 7  95582450.37744  23342199.633                    23342207.328
 115499479.712 7  89999680.78845  21978815.492                    21978823.242
 115714201.965 7  90166882.95245  22019624.734                    22019631.754
 116774803.098 7  90993399.83345  22221506.516                    22221514.641
 105725125.785 8  82383362.51346  20118807.102                    20118814.387
 121173914.943 7  94421211.75644  23058598.422                    23058606.887
 111216588.843 8  86662401.21246  21163802.516                    21163807.719
 118965270.976 7  92700278.87445  22638344.023                    22638352.281
 11  7 27  0 53  0.0000000  0  9G12G10G17G09G05G04G28G02G27
 122570347.468 7  95509410.63144  23324362.445                    23324370.129
 115424500.745 7  89941255.67145  21964546.828                    21964555.219
 115753932.680 7  90197841.92845  22027184.977                    22027192.109
 116806759.332 7  91018300.77945  22227587.633                    22227595.754
 129585851.03216 100976056.08753  24659373.359                    24659384.332
 105760770.482 8  82411137.60746  20125589.617                    20125596.754
 121258369.521 7  94487020.46844  23074669.891                    23074677.566
 111169042.550 8  86625352.18146  21154754.469                    21154760.004
 118998937.449 7  92726512.45945  22644750.578                    22644758.441
 11  7 27  0 53 30.0000000  0  9G12G10G17G09G05G04G28G02G27
 122476732.277 7  95436463.77344  23306548.000                    23306555.777
 115349879.099 7  89883108.98045  21950346.703                    21950354.871
 115793758.325 7  90228874.88945  22034763.648                    22034770.559
 116839275.157 7  91043637.77145  22233775.352                    22233783.352
 129480880.710 6 100894261.33043  24639397.352                    24639408.469
 105796866.806 8  82439264.60546  20132458.711                    20132466.090
 121343131.824 7  94553068.96644  23090799.602                    23090807.293
 111121864.241 8  86588589.89146  21145776.672                    21145782.137
 119032998.395 7  92753053.42645  22651232.219                    22651240.078
 11  7 27  0 54  0.0000000  0  9G12G10G17G09G05G04G28G02G27
 122383238.906 7  95363611.85444  23288756.773                    23288764.398
 115275618.135 7  89825243.35945  21936215.055                    21936223.262
 115833679.604 7  90259982.35345  22042360.602                    22042368.102
 116872348.640 7  91069409.30145  22240068.547                    22240076.840
 129375827.147 6 100812401.65843  24619405.984                    24619417.496
 105833413.529 8  82467742.57446  20139413.125                    20139420.328
 121428200.944 7  94619356.53144  23106987.547                    23106996.039
 111075054.125 8  86552114.48946  21136869.250                    21136874.328
 119067452.256 7  92779900.56545  22657788.289                    22657796.656
 11  7 27  0 54 30.0000000  0  9G12G10G17G09G05G04G28G02G27
 122289869.527 7  95290856.55045  23270989.727                    23270996.613
 115201720.679 7  89767660.96945  21922152.711                    21922161.160
 115873696.635 7  90291164.43545  22049975.180                    22049982.703
 116905977.753 7  91095613.79045  22246468.344                    22246476.266
 129270692.782 6 100730479.03143  24599399.953                    24599411.441
 105870408.044 8  82496569.46046  20146453.047                    20146460.621
 121513575.534 7  94685882.14143  23123233.469                    23123241.363
 111028612.769 8  86515926.44146  21128031.594                    21128037.215
 119102296.849 7  92807052.15245  22664418.953                    22664427.402
 11  7 27  0 55  0.0000000  0  9G12G10G17G09G05G04G28G02G27
 122196626.467 7  95218199.66945  23253246.266                    23253253.297
 115128189.979 7  89710364.35945  21908160.633                    21908168.898
 115913809.592 8  90322421.25945  22057608.672                    22057615.730
 116940160.227 7  91122249.47045  22252972.867                    22252980.961
 129165480.243 6 100648495.52143  24579378.797                    24579389.805
 105907848.276 8  82525743.66946  20153577.539                    20153585.047
 121599253.866 7  94752644.42943  23139537.672                    23139545.859
 110982539.945 8  86480025.56046  21119264.422                    21119269.777
 119137530.213 7  92834506.67545  22671124.781                    22671132.199
 11  7 27  0 55 30.0000000  0  9G12G10G17G09G05G04G28G02G27
 122103511.942 7  95145642.94145  23235527.008                    23235534.043
 115055029.003 7  89653355.85945  21894238.523                    21894246.789
 115954018.702 7  90353752.99645  22065260.656                    22065267.441
 116974893.400 7  91149314.26745  22259582.445                    22259590.586
 129060192.059 6 100566453.04343  24559343.258                    24559353.961
 105945732.083 8  82555263.51046  20160786.945                    20160794.137
 121685234.549 7  94819642.30844  23155899.375                    23155907.559
 110936835.614 8  86444411.82346  21110567.102                    21110572.332
 119173150.445 7  92862262.66745  22677902.359                    22677910.469
 11  7 27  0 56  0.0000000  0  9G12G10G17G09G05G04G28G02G27
 122010528.078 7  95073188.02645  23217832.203                    23217839.832
 114982240.914 7  89596637.90345  21880387.375                    21880395.000
 115994324.274 7  90385159.92245  22072930.336                    22072937.621
 117010175.369 7  91176806.68745  22266296.773                    22266304.512
 128954830.965 6 100484353.77543  24539293.023                    24539303.934
 105984057.395 8  82585127.38446  20168079.813                    20168087.383
 121771516.173 7  94886874.65943  23172318.344                    23172325.918
 110891499.925 8  86409085.33446  21101940.063                    21101945.559
 119209155.464 7  92890318.47745  22684753.781                    22684762.340
 11  7 27  0 56 30.0000000  0  9G12G10G17G09G05G04G28G02G27
 121917677.373 7  95000836.87345  23200163.484                    23200170.707
 114909829.384 7  89540213.38545  21866608.023                    21866616.223
 116034727.014 7  90416642.54945  22080618.398                    22080625.605
 117046004.089 7  91204725.14145  22273114.742                    22273122.398
 128849399.765 6 100402199.86544  24519229.992                    24519241.352
 106022822.410 8  82615333.87946  20175456.750                    20175464.074
 121858097.655 7  94954340.71143  23188793.563                    23188801.934
 110846533.715 8  86374046.74746  21093383.141                    21093388.688
 119245543.633 7  92918672.84945  22691677.984                    22691686.004
 11  7 27  0 57  0.0000000  0  9G12G10G17G09G05G04G28G02G27
 121824962.130 7  94928591.26944  23182520.492                    23182527.629
 114837797.183 7  89484084.43045  21852900.656                    21852908.965
 116075227.196 7  90448201.10845  22088326.172                    22088332.730
 117082376.978 7  91233067.63745  22280036.133                    22280044.207
 128743900.556 7 100319992.92044  24499153.672                    24499165.348
 106062024.615 8  82645881.05546  20182916.578                    20182923.930
 121944977.176 7  95022038.98143  23205327.047                    23205334.523
 110801936.502 8  86339295.69846  21084896.305                    21084901.508
 119282312.427 7  92947323.80245  22698675.367                    22698683.609
 11  7 27  0 57 30.0000000  0  9G12G10G17G09G05G04G28G02G27
 121732384.881 7  94856453.18245  23164903.469                    23164910.633
 114766147.615 7  89428253.64545  21839266.242                    21839274.484
 116115824.912 8  90479835.67345  22096051.281                    22096058.355
 117119292.159 7  91261832.68645  22287060.906                    22287068.848
 128638336.252 7 100237735.27344  24479065.703                    24479077.270
 106101662.225 8  82676767.48646  20190459.531                    20190466.656
 122032153.947 6  95089968.86143  23221915.656                    23221923.555
 110757709.049 8  86304832.76346  21076480.211                    21076485.797
 119319460.279 7  92976270.13745  22705744.414                    22705752.117
 11  7 27  0 58  0.0000000  0  9G12G10G17G09G05G04G28G02G27
 121639947.721 7  94784424.26345  23147313.234                    23147320.207
 114694883.397 7  89372723.12145  21825705.078                    21825713.289
 116156520.405 7  90511546.42045  22103795.133                    22103802.055
 117156746.809 7  91291018.11245  22294188.703                    22294196.133
 128532709.222 6 100155428.71244  24458965.016                    24458976.461
 106141732.929 8  82707991.40746  20198084.430                    20198091.844
 122119626.098 7  95158128.95344  23238562.188                    23238570.047
 110713850.658 8  86270657.42246  21068134.320                    21068139.871
 119356984.757 7  93005509.93345  22712884.055                    22712893.348
 11  7 27  0 58 30.0000000  0  9G12G10G17G09G05G04G28G02G27
 121547653.187 7  94712506.46844  23129749.867                    23129757.336
 114624007.871 7  89317495.48545  21812217.945                    21812225.883
 116197314.187 8  90543333.77945  22111558.109                    22111564.750
 117194738.813 7  91320622.23745  22301418.000                    22301425.820
 128427022.300 6 100073075.48344  24438852.930                    24438864.328
 106182234.681 8  82739551.21446  20205791.938                    20205799.082
 122207391.919 7  95226517.84144  23255263.211                    23255271.566
 110670361.693 8  86236769.94946  21059858.461                    21059863.668
 119394884.050 7  93035041.79945  22720097.086                    22720105.293
 11  7 27  0 59  0.0000000  0  9G12G10G17G09G05G04G28G02G27
 121455503.549 7  94640701.58744  23112214.523                    23112221.734
 114553523.809 7  89262572.87545  21798804.898                    21798813.000
 116238206.602 7  90575197.96245  22119339.352                    22119347.000
 117233265.792 7  91350643.22745  22308749.211                    22308757.156
 128321278.119 6  99990677.65443  24418731.148                    24418741.727
 106223165.191 8  82771445.11346  20213580.766                    20213588.230
 122295450.163 7  95295134.61444  23272020.430                    23272027.527
 110627242.390 8  86203170.50746  21051653.117                    21051658.348
 119433155.924 7  93064863.97845  22727380.055                    22727388.133
 11  7 27  0 59 30.0000000  0  9G12G10G17G09G05G04G28G02G27
 121363500.914 7  94569011.23645  23094707.102                    23094714.621
 114483434.586 7  89207957.94145  21785467.461                    21785475.684
 116279197.771 7  90607139.11045  22127140.109                    22127147.453
 117272325.259 7  91381079.14945  22316182.109                    22316190.531
 128215478.942 6  99908236.97443  24398597.781                    24398608.637
 106264522.322 8  82803671.43846  20221450.836                    20221458.066
 122383799.301 7  95363978.05344  23288832.508                    23288840.531
 110584492.076 8  86169858.60446  21043518.133                    21043523.609
 119471798.304 7  93094974.86345  22734733.531                    22734741.703
 11  7 27  1  0  0.0000000  0  9G12G10G17G09G05G04G28G02G27
 121271648.155 7  94497437.67345  23077228.250                    23077235.629
 114413743.535 7  89153653.27045  21772205.539                    21772213.715
 116320288.634 7  90639157.93345  22134959.195                    22134966.473
 117311915.103 7  91411928.35745  22323715.789                    22323723.727
 128109627.851 6  99825755.84443  24378454.047                    24378465.996
 106306304.242 8  82836228.78146  20229401.344                    20229408.891
 122472438.219 7  95433047.29744  23305700.109                    23305707.699
 110542112.133 8  86136835.29546  21035453.570                    21035458.984
 119510809.313 7  93125372.99545  22742156.695                    22742165.254
 11  7 27  1  0 30.0000000  0  9G12G10G17G09G05G04G28G02G27
 121179947.472 7  94425982.61745  23059777.977                    23059784.984
 114344453.437 7  89099661.04245  21759020.211                    21759028.027
 116361478.961 7  90671254.27845  22142797.555                    22142804.680
 117352032.579 7  91443188.70245  22331349.734                    22331357.691
 128003727.375 6  99743236.17543  24358302.297                    24358313.758
 106348508.498 8  82869115.20646  20237432.711                    20237440.078
 122561365.060 7  95502340.88143  23322621.984                    23322630.074
 110500101.762 8  86104099.96946  21027459.141                    21027464.551
 119550186.569 7  93156056.52145  22749650.391                    22749658.926
 11  7 27  1  1  0.0000000  0  9G12G10G17G09G05G04G28G02G27
 121088401.064 7  94354647.76445  23042357.297                    23042364.719
 114275567.465 7  89045983.69945  21745911.711                    21745919.406
 116402769.452 8  90703428.65545  22150654.656                    22150662.059
 117392675.399 7  91474858.40845  22339084.289                    22339091.957
 127897780.287 6  99660680.19043  24338141.086                    24338152.227
 106391132.952 8  82902329.06146  20245543.547                    20245550.918
 122650578.301 6  95571857.63443  23339599.172                    23339606.852
 110458461.335 8  86071652.91646  21019535.289                    21019540.695
 119589928.180 7  93187023.95245  22757212.930                    22757221.441
 11  7 27  1  1 30.0000000  0  9G12G10G17G09G05G04G28G02G27
 120997011.309 7  94283434.98345  23024966.313                    23024973.563
 114207088.219 7  88992623.29545  21732880.055                    21732888.629
 116444160.411 7  90735681.33445  22158531.273                    22158538.734
 117433840.925 7  91506935.40145  22346917.688                    22346925.719
 127791788.862 6  99578089.67543  24317970.758                    24317982.715
 106434175.222 8  82935868.48446  20253734.500                    20253741.801
 122740076.445 6  95641596.37443  23356629.523                    23356637.445
 110417190.447 8  86039493.80546  21011681.844                    21011686.906
 119630031.786 7  93218273.45845  22764844.148                    22764852.668
 11  7 27  1  2  0.0000000  0  9G12G10G17G09G05G04G28G02G27
 120905780.612 7  94212346.14745  23007605.586                    23007612.941
 114139018.723 7  88939582.17245  21719927.047                    21719935.141
 116485651.864 7  90768012.31745  22166426.945                    22166434.164
 117475526.670 7  91539417.75645  22354849.344                    22354858.094
 127685756.188 6  99495467.00843  24297793.844                    24297804.363
 106477633.228 8  82969731.86646  20262004.477                    20262011.754
 122829857.763 6  95711555.80643  23373714.477                    23373722.586
 110376288.965 8  86007622.55746  21003898.352                    21003903.363
 119670495.291 7  93249803.39645  22772544.148                    22772552.750
 11  7 27  1  2 30.0000000  0  9G12G10G17G09G05G04G28G02G27
 120814711.463 7  94141383.19545  22990275.680                    22990282.887
 114071362.263 7  88886862.89245  21707052.266                    21707060.551
 116527244.763 8  90800422.34945  22174341.859                    22174349.172
 117517730.418 7  91572303.76245  22362880.984                    22362889.313
 127579684.804 6  99412814.20744  24277608.938                    24277619.766
 106521505.050 8  83003917.69946  20270352.945                    20270360.523
 122919921.066 6  95781734.96443  23390852.578                    23390861.160
 110335757.559 8  85976039.66646  20996185.273                    20996190.680
 119711316.804 6  93281612.31845  22780312.117                    22780320.984
 11  7 27  1  3  0.0000000  0  9G12G10G17G09G05G04G28G02G27
 120723806.186 7  94070547.93745  22972977.484                    22972984.254
 114004121.943 7  88834467.88845  21694257.211                    21694264.945
 116568939.294 7  90832911.58145  22182276.367                    22182283.242
 117560449.419 7  91605591.25245  22371010.586                    22371018.508
 127473577.476 6  99330133.39544  24257417.359                    24257428.152
 106565788.228 8  83038424.06946  20278779.602                    20278787.172
 123010264.776 6  95852132.64344  23408044.859                    23408053.336
 110295595.913 8  85944744.90946  20988542.742                    20988548.352
 119752494.030 7  93313698.41245  22788148.461                    22788156.668
 11  7 27  1  3 30.0000000  0  9G12G10G17G09G05G04G28G02G27
 120633067.250 7  93999842.31445  22955709.930                    22955717.223
 113937300.584 7  88782399.34545  21681541.203                    21681549.465
 116610735.717 7  90865480.21745  22190229.773                    22190237.000
 117603680.925 7  91639278.08445  22379237.234                    22379244.703
 127367436.539 6  99247426.39644  24237219.430                    24237230.035
 106610480.457 8  83073249.19046  20287284.055                    20287291.539
 123100887.056 6  95922747.37743  23425289.352                    23425297.676
 110255803.607 8  85913737.94046  20980970.750                    20980976.152
 119794024.551 7  93346059.81044  22796051.148                    22796059.344
 11  7 27  1  4  0.0000000  0  9G12G10G17G09G05G04G28G02G27
 120542497.251 7  93929268.33945  22938474.898                    22938482.430
 113870901.369 7  88730659.74045  21668905.922                    21668914.078
 116652634.143 7  90898128.34245  22198203.250                    22198210.082
 117647422.615 7  91673362.46845  22387560.961                    22387569.285
 127261265.056 6  99164695.60544  24217015.047                    24217026.313
 106655579.534 8  83108391.31946  20295866.336                    20295873.512
 123191786.380 7  95993577.97443  23442587.984                    23442595.480
 110216381.016 8  85883019.06346  20973468.938                    20973474.188
 119835906.265 7  93378694.86144  22804021.586                    22804029.797
 11  7 27  1  4 30.0000000  0  9G12G10G17G09G05G04G28G02G27
 120452098.602 7  93858827.85845  22921273.094                    22921280.309
 113804927.752 7  88679251.77345  21656351.328                    21656359.461
 116694635.847 7  90930856.94645  22206195.734                    22206202.430
 117691672.160 7  91707842.59545  22395981.445                    22395989.332
 127155065.773 6  99081943.14744  24196805.977                    24196816.438
 106701083.742 8  83143849.14746  20304525.547                    20304532.945
 123282961.397 6  96064623.42243  23459937.227                    23459945.473
 110177328.472 8  85852588.53646  20966037.016                    20966042.461
 119878137.268 7  93411602.08245  22812057.617                    22812065.703
 11  7 27  1  5  0.0000000  0  9G12G10G17G09G05G04G28G02G27
 120361873.519 7  93788522.63545  22904103.180                    22904110.664
 113739381.855 7  88628177.10145  21643878.883                    21643886.633
 116736740.462 7  90963665.73745  22214207.914                    22214214.754
 117736426.414 7  91742715.99945  22404497.633                    22404505.637
 127048840.953 6  98999170.78344  24176592.367                    24176603.219
 106746990.096 8  83179620.33246  20313261.383                    20313268.547
 123374410.122 6  96135882.12143  23477339.313                    23477348.066
 110138645.011 8  85822445.60146  20958676.023                    20958681.266
 119920714.841 7  93444779.36544  22820160.445                    22820168.426
 11  7 27  1  5 30.0000000  0  9G12G10G17G09G05G04G28G02G27
 120271824.191 7  93718354.37345  22886967.383                    22886974.668
 113674266.724 7  88577438.07645  21631487.352                    21631495.816
 116778948.794 7  90996555.34945  22222239.273                    22222246.379
 117781682.959 7  91777980.79445  22413109.945                    22413117.945
 126942593.567 6  98916380.82944  24156374.242                    24156384.559
 106793296.743 8  83215703.43346  20322073.234                    20322080.434
 123466131.215 6  96207353.06843  23494793.344                    23494802.258
 110100330.795 8  85792590.39946  20951384.883                    20951390.090
 119963636.965 7  93478225.12944  22828327.922                    22828336.332
 11  7 27  1  6  0.0000000  0  9G12G10G17G09G05G04G28G02G27
 120181953.544 7  93648325.33545  22869865.188                    22869872.816
 113609585.674 7  88527037.31345  21619179.156                    21619187.262
 116821260.976 7  91029525.88945  22230291.320                    22230298.340
 117827439.351 7  91813635.08045  22421817.336                    22421824.980
 126836326.484 6  98833575.53443  24136151.516                    24136161.738
 106840001.563 8  83252096.80946  20330960.570                    20330968.063
 123558123.180 6  96279035.07244  23512299.180                    23512307.648
 110062386.100 8  85763023.12146  20944164.461                    20944169.242
 120006901.580 7  93511937.78045  22836560.586                    22836568.883
 11  7 27  1  6 30.0000000  0  9G12G10G17G09G05G04G28G02G27
 120092263.883 7  93578437.33745  22852798.359                    22852805.625
 113545341.218 7  88476976.75245  21606953.547                    21606961.309
 116863677.368 7  91062577.62145  22238363.086                    22238370.082
 117873692.803 7  91849676.68545  22430618.813                    22430626.719
 126730042.171 6  98750756.83443  24115925.336                    24115936.152
 106887102.133 8  83288798.55046  20339923.336                    20339930.500
 123650384.184 6  96350926.76044  23529855.586                    23529863.836
 110024810.489 8  85733743.44546  20937013.922                    20937019.699
 120050506.472 7  93545915.57145  22844858.273                    22844867.246
 11  7 27  1  7  0.0000000  0  9G12G10G17G09G05G04G28G02G27
 120002757.565 7  93508692.19845  22835765.977                    22835772.781
 113481536.436 7  88427258.78945  21594812.281                    21594820.004
 116906198.636 7  91095711.09445  22246454.688                    22246461.598
 117920440.551 7  91886103.44745  22439514.813                    22439522.625
 126623743.451 6  98667926.88143  24095697.641                    24095708.145
 106934596.182 8  83325806.89746  20348961.516                    20348968.965
 123742912.633 6  96423026.78043  23547462.953                    23547471.621
 109987603.841 8  85704751.27146  20929933.656                    20929939.016
 120094449.084 7  93580156.51244  22853220.594                    22853228.953
 11  7 27  1  7 30.0000000  0  9G12G10G17G09G05G04G28G02G27
 119913437.212 7  93439091.96645  22818768.789                    22818775.734
 113418174.333 7  88377885.77245  21582754.750                    21582762.434
 116948825.332 7  91128926.70245  22254565.859                    22254573.082
 117967680.140 7  91922913.47245  22448504.227                    22448511.973
 126517433.212 6  98585087.96644  24075467.766                    24075477.871
 106982481.414 8  83363120.05946  20358073.672                    20358080.715
 123835706.675 6  96495333.79343  23565121.641                    23565129.902
 109950766.508 8  85676046.86846  20922923.805                    20922929.320
 120138727.306 7  93614658.97944  22861647.266                    22861654.746
 11  7 27  1  8  0.0000000  0  9G12G10G17G09G05G04G28G02G27
 119824305.159 7  93369638.45945  22801807.500                    22801814.895
 113355257.675 7  88328859.84745  21570781.797                    21570790.332
 116991557.629 7  91162224.60045  22262697.438                    22262705.223
 118015408.393 7  91960104.27445  22457586.680                    22457594.871
 126411114.249 7  98502242.20444  24055235.563                    24055245.652
 107030755.657 8  83400736.35846  20367259.867                    20367267.047
 123928764.744 6  96567846.55243  23582830.086                    23582838.223
 109914297.820 8  85647629.73446  20915984.188                    20915989.316
 120183338.687 7  93649421.04445  22870135.680                    22870144.023
 11  7 27  1  8 30.0000000  0  9G12G10G17G09G05G04G28G02G27
 119735363.830 7  93300333.57945  22784882.633                    22784889.469
 113292789.296 7  88280183.24545  21558894.445                    21558902.855
 117034395.802 7  91195604.98745  22270849.617                    22270856.766
 118063622.780 7  91997673.87845  22466761.992                    22466769.777
 126304789.151 7  98419391.64544  24035002.766                    24035012.211
 107079416.652 8  83438654.01746  20376519.914                    20376527.258
 124022085.455 6  96640563.95043  23600588.391                    23600596.168
 109878197.764 8  85619499.83546  20909114.398                    20909119.820
 120228281.054 7  93684441.03644  22878687.953                    22878696.648
 11  7 27  1  9  0.0000000  0  9G12G10G17G09G05G04G28G02G27
 119646615.628 7  93231179.18545  22767994.039                    22768001.086
 113230771.462 7  88231857.70245  21547092.875                    21547100.609
 117077340.243 7  91229068.20345  22279021.438                    22279028.695
 118112320.350 7  92035620.00045  22476028.516                    22476036.371
 126198460.361 7  98336538.18544  24014768.438                    24014778.535
 107128461.564 8  83476870.81846  20385852.641                    20385859.941
 124115666.632 6  96713484.32043  23618395.828                    23618403.988
 109842465.899 8  85591656.84446  20902314.977                    20902320.242
 120273551.913 7  93719716.98544  22887302.375                    22887311.309
 11  7 27  1  9 30.0000000  0  9G12G10G17G09G05G04G28G02G27
 119558063.146 7  93162177.29445  22751143.234                    22751150.316
 113169207.726 7  88183885.99345  21535377.969                    21535385.734
 117120391.570 8  91262614.70745  22287214.211                    22287221.383
 118161498.679 7  92073940.72645  22485387.133                    22485394.965
 126092131.047 7  98253684.32343  23994534.508                    23994543.840
 107177888.774 8  83515385.52846  20395258.445                    20395265.773
 124209506.753 6  96786606.46343  23636253.047                    23636261.680
 109807102.366 8  85564100.85946  20895585.313                    20895590.770
 120319148.982 7  93755247.11545  22895979.500                    22895988.047
 11  7 27  1 10  0.0000000  0  9G12G10G17G09G05G04G28G02G27
 119469708.827 7  93093329.83045  22734330.234                    22734336.949
 113108101.003 7  88136270.41745  21523749.609                    21523757.773
 117163550.498 7  91296245.05145  22295426.500                    22295434.047
 118211155.174 7  92112634.05345  22494836.297                    22494844.398
 125985804.239 7  98170832.40843  23974301.438                    23974310.105
 107227695.976 8  83554196.32646  20404736.469                    20404743.219
 124303604.442 6  96859929.34043  23654159.914                    23654167.266
 109772107.346 8  85536832.02946  20888926.094                    20888931.219
 120365070.307 7  93791029.89744  22904718.172                    22904726.910
 11  7 27  1 10 30.0000000  0  9G12G10G17G09G05G04G28G02G27
 119381555.200 7  93024638.73545  22717554.914                    22717561.926
 113047453.718 7  88089012.83045  21512208.945                    21512216.348
 117206817.390 7  91329959.50345  22303660.453                    22303667.410
 118261286.516 7  92151697.38645  22504376.648                    22504383.695
 125879482.018 7  98087984.06944  23954068.508                    23954078.277
 107277880.673 8  83593301.29046  20414286.391                    20414293.797
 124397957.353 6  96933451.07643  23672114.227                    23672122.203
 109737479.875 8  85509849.60246  20882336.875                    20882342.148
 120411313.049 7  93827063.13644  22913517.742                    22913526.496
 11  7 27  1 11  0.0000000  0  9G12G10G17G09G05G04G28G02G27
 119293604.881 7  92956106.06745  22700818.422                    22700825.664
 112987269.034 7  88042115.71945  21500756.164                    21500763.563
 117250192.178 7  91363758.03645  22311914.461                    22311921.645
 118311890.164 7  92191128.77645  22514005.516                    22514013.832
 125773167.747 7  98005141.92544  23933837.734                    23933847.715
 107328440.731 8  83632698.72846  20423908.047                    20423914.953
 124492564.240 6  97007170.70643  23690118.023                    23690125.547
 109703220.109 8  85483153.69946  20875817.484                    20875822.574
 120457875.099 6  93863345.19844  22922378.180                    22922387.289
 11  7 27  1 11 30.0000000  0  9G12G10G17G09G05G04G28G02G27
 119205860.193 7  92887733.62945  22684121.211                    22684128.250
 112927549.234 7  87995580.85745  21489391.398                    21489399.000
 117293675.607 7  91397641.22345  22320188.875                    22320195.797
 118362963.187 7  92230925.89945  22523724.563                    22523732.277
 125666863.829 7  97922307.84944  23913609.008                    23913618.711
 107379373.624 8  83672386.70046  20433599.992                    20433607.027
 124587423.263 6  97081086.82243  23708168.625                    23708176.609
 109669327.847 8  85456744.17646  20869367.750                    20869372.809
 120504753.894 7  93899874.06244  22931299.211                    22931307.984
 11  7 27  1 12  0.0000000  0  9G12G10G17G09G05G04G28G02G27
 119118323.342 7  92819523.14645  22667463.320                    22667470.410
 112868297.096 7  87949410.41345  21478116.367                    21478123.957
 117337268.043 8  91431609.35745  22328484.352                    22328491.262
 118414502.507 7  92271086.38245  22533531.836                    22533539.738
 125560573.072 7  97839484.03144  23893382.344                    23893392.176
 107430676.838 8  83712363.23146  20443362.414                    20443369.813
 124682532.530 6  97155197.90443  23726267.750                    23726274.699
 109635802.422 8  85430620.48746  20862988.352                    20862993.309
 120551946.787 7  93936647.67744  22940280.328                    22940288.723
 11  7 27  1 12 30.0000000  0  9G12G10G17G09G05G04G28G02G27
 119030997.322 7  92751476.93845  22650845.883                    22650852.668
 112809515.889 7  87903606.91445  21466930.898                    21466938.098
 117380970.135 8  91465662.92845  22336800.266                    22336807.828
 118466505.878 7  92311608.44644  22543427.875                    22543435.949
 125454298.493 7  97756672.81644  23873158.008                    23873168.676
 107482348.581 8  83752626.93546  20453195.352                    20453202.316
 124777890.553 6  97229502.83143  23744413.227                    23744420.891
 109602644.232 8  85404782.96046  20856678.063                    20856683.457
 120599451.916 7  93973664.57945  22949319.875                    22949328.277
 11  7 27  1 13  0.0000000  0  9G12G10G17G09G05G04G28G02G27
 118943884.701 7  92683597.02745  22634268.789                    22634275.699
 112751208.324 7  87858172.50245  21455834.484                    21455842.488
 117424782.292 7  91499802.25545  22345137.750                    22345144.473
 118518970.253 7  92352489.75344  22553411.492                    22553419.371
 125348043.000 7  97673876.45544  23852938.680                    23852948.461
 107534386.502 8  83793175.96446  20463097.828                    20463104.938
 124873495.502 6  97304000.12143  23762606.516                    23762614.805
 109569853.038 8  85379231.40146  20850438.367                    20850443.285
 120647267.053 7  94010923.05444  22958419.375                    22958427.902
 11  7 27  1 13 30.0000000  0  9G12G10G17G09G05G04G28G02G27
 118856987.564 7  92615885.01545  22617732.047                    22617739.371
 112693376.464 8  87813108.75945  21444830.258                    21444837.512
 117468704.848 7  91534027.61445  22353496.055                    22353502.945
 118571892.195 7  92393727.58245  22563482.211                    22563490.648
 125241809.033 7  97591096.90544  23832722.844                    23832733.070
 107586787.871 8  83834008.20646  20473069.508                    20473076.621
 124969345.320 6  97378688.24143  23780846.070                    23780854.602
 109537427.758 8  85353964.97246  20844267.977                    20844272.859
 120695389.135 7  94048420.69744  22967575.984                    22967585.027
 11  7 27  1 14  0.0000000  0  9G12G10G17G09G05G04G28G02G27
 118770308.486 7  92548342.90845  22601238.352                    22601245.160
 112636023.370 7  87768418.09145  21433915.781                    21433923.297
 117512738.293 7  91568339.38545  22361874.813                    22361881.945
 118625268.990 7  92435319.84844  22573639.461                    22573647.699
 125135600.055 7  97508336.80544  23812511.664                    23812521.152
 107639550.467 8  83875121.91646  20483109.898                    20483117.082
 125065438.208 6  97453565.78043  23799132.039                    23799140.352
 109505368.408 8  85328983.68546  20838167.273                    20838172.164
 120743816.012 7  94086155.85944  22976791.828                    22976800.445
 11  7 27  1 14 30.0000000  0  9G12G10G17G09G05G04G28G02G27
 118683850.301 7  92480972.91945  22584785.727                    22584792.492
 112579152.155 8  87724102.90545  21423093.484                    21423101.410
 117556883.408 7  91602738.16245  22370275.859                    22370282.508
 118679098.240 7  92477264.67645  22583882.766                    22583890.938
 125029418.347 7  97425597.97344  23792306.172                    23792315.680
 107692672.487 8  83916515.69946  20493218.484                    20493226.094
 125161773.082 6  97528631.90843  23817464.000                    23817472.535
 109473675.238 8  85304287.72746  20832136.086                    20832141.316
 120792545.505 7  94124126.82244  22986065.148                    22986073.195
 11  7 27  1 15  0.0000000  0  9G12G10G17G09G05G04G28G02G27
 118597615.416 7  92413776.94045  22568375.508                    22568383.098
 112522765.155 7  87680165.03945  21412363.250                    21412371.070
 117601140.675 7  91637224.33545  22378697.430                    22378704.688
 118733376.490 7  92519559.36345  22594211.883                    22594220.250
 124923266.981 7  97342882.74744  23772106.313                    23772115.816
 107746151.312 8  83958187.52146  20503395.180                    20503402.613
 125258348.025 6  97603885.07843  23835841.359                    23835850.266
 109442347.709 8  85279876.68646  20826174.422                    20826179.461
 120841574.814 7  94162331.41844  22995394.633                    22995403.523
 11  7 27  1 15 30.0000000  0  9G12G10G17G09G05G04G28G02G27
 118511606.451 7  92346757.00445  22552008.586                    22552015.801
 112466865.341 8  87636606.79645  21401725.945                    21401733.375
 117645510.665 7  91671798.35745  22387140.797                    22387148.125
 118788101.474 7  92562202.16045  22604625.734                    22604634.230
 124817149.170 7  97260193.67944  23751912.648                    23751922.066
 107799984.968 8  84000135.82146  20513639.352                    20513646.613
 125355161.029 6  97679323.75643  23854264.141                    23854272.813
 109411385.727 8  85255750.49146  20820282.844                    20820287.879
 120890902.078 7  94200768.18644  23004780.805                    23004789.988
 11  7 27  1 16  0.0000000  0  9G12G10G17G09G05G04G28G02G27
 118425826.200 7  92279915.28045  22535685.289                    22535692.195
 112411455.222 7  87593430.12745  21391181.836                    21391189.891
 117689993.626 7  91706460.36745  22395605.789                    22395612.922
 118843269.733 7  92605190.36645  22615123.852                    22615132.391
 124711067.314 7  97177532.61144  23731725.766                    23731734.941
 107854170.962 8  84042358.67446  20523950.789                    20523957.930
 125452210.204 6  97754946.47743  23872731.922                    23872741.020
 109380788.699 8  85231908.68646  20814460.414                    20814465.270
 120940524.741 7  94239435.14744  23014224.219                    23014232.824
 11  7 27  1 16 30.0000000  0  9G12G10G17G09G05G04G28G02G27
 118340277.191 7  92213253.74245  22519406.086                    22519413.004
 112356537.646 7  87550637.26745  21380730.922                    21380738.973
 117734590.308 7  91741211.01845  22404092.313                    22404099.563
 118898878.679 7  92648521.95745  22625705.797                    22625714.027
 124605024.435 7  97094901.93344  23711546.758                    23711555.547
 107908707.091 8  84084854.36046  20534328.844                    20534336.227
 125549493.923 6  97830751.93943  23891244.969                    23891253.215
 109350556.722 8  85208351.32846  20808707.531                    20808712.832
 120990440.492 7  94278330.47644  23023722.813                    23023731.695
 11  7 27  1 17  0.0000000  0  9G12G10G17G09G05G04G28G02G27
 118254961.752 7  92146774.20445  22503170.805                    22503177.992
 112302114.425 8  87508229.60545  21370374.953                    21370382.504
 117779300.694 7  91776050.24145  22412600.266                    22412607.410
 118954924.514 7  92692193.99945  22636370.844                    22636379.063
 124499023.080 7  97012303.61644  23691374.539                    23691384.227
 107963590.431 8  84127620.60146  20544772.711                    20544780.105
 125647010.185 6  97906738.60843  23909801.164                    23909809.840
 109320688.542 8  85185077.43946  20803023.648                    20803028.578
 121040646.105 7  94317451.69444  23033276.656                    23033285.426
 11  7 27  1 17 30.0000000  0  9G12G10G17G09G05G04G28G02G27
 118169882.802 7  92080478.94445  22486980.945                    22486987.770
 112248188.708 8  87466209.60645  21360112.594                    21360120.648
 117824125.495 7  91810978.64945  22421130.438                    22421137.227
 119011404.911 7  92736204.62445  22647119.234                    22647127.723
 124393066.666 7  96929740.30144  23671211.625                    23671220.559
 108018819.134 8  84170655.95646  20555282.234                    20555289.461
 125744757.077 6  97982904.98843  23928401.227                    23928410.180
 109291184.492 8  85162087.29846  20797409.125                    20797414.453
 121091139.543 7  94356797.20144  23042885.008                    23042893.891
 11  7 27  1 18  0.0000000  0  9G12G10G17G09G05G04G28G02G27
 118085042.312 7  92014369.49545  22470836.313                    22470842.816
 112194763.496 8  87424579.60845  21349946.500                    21349954.160
 117869066.006 7  91845997.20745  22429681.984                    22429689.137
 119068317.240 7  92780551.82045  22657949.023                    22657957.945
 124287158.278 7  96847214.42244  23651057.445                    23651066.652
 108074391.254 8  84213958.91146  20565857.250                    20565864.547
 125842733.541 6  98059250.26942  23947045.547                    23947054.973
 109262044.530 8  85139380.86346  20791864.469                    20791869.129
 121141918.759 7  94396365.37844  23052547.891                    23052556.684
 11  7 27  1 18 30.0000000  0  9G12G10G17G09G05G04G28G02G27
 118000443.122 7  91948448.07645  22454737.586                    22454744.164
 112141840.984 8  87383341.32745  21339875.875                    21339883.781
 117914122.166 7  91881105.87045  22438256.320                    22438263.305
 119125658.025 7  92825232.89445  22668860.789                    22668869.316
 124181300.721 7  96764728.13544  23630913.805                    23630922.672
 108130304.235 8  84257527.46646  20576497.273                    20576504.441
 125940937.189 6  98135772.54143  23965734.063                    23965742.313
 109233267.801 8  85116957.46346  20786388.180                    20786392.863
 121192980.948 7  94436154.06144  23062264.789                    23062273.746
 11  7 27  1 19  0.0000000  0  9G12G10G17G09G05G04G28G02G27
 117916088.023 7  91882716.86645  22438685.273                    22438692.254
 112089423.693 8  87342496.72246  21329900.906                    21329908.555
 117959294.246 7  91916304.87945  22446852.234                    22446859.574
 119183424.390 7  92870245.57545  22679853.461                    22679861.633
 124075496.261 7  96682283.22844  23610779.977                    23610789.117
 108186555.502 8  84301359.61946  20587201.289                    20587208.777
 126039366.058 6  98212470.36843  23984464.102                    23984472.449
 109204853.915 8  85094816.79546  20780980.703                    20780986.125
 121244323.601 7  94476161.29744  23072034.625                    23072043.961
 11  7 27  1 19 30.0000000  0  9G12G10G17G09G05G04G28G02G27
 117831979.457 7  91817177.74445  22422679.539                    22422687.074
 112037514.183 8  87302047.78745  21320022.828                    21320030.820
 118004582.973 7  91951594.78045  22455470.563                    22455477.551
 119241613.186 7  92915587.42444  22690926.484                    22690935.070
 123969748.022 7  96599882.14344  23590656.906                    23590665.457
 108243143.009 8  84345453.78046  20597969.375                    20597976.969
 126138018.612 6  98289342.48943  24003237.438                    24003245.746
 109176802.816 8  85072958.81846  20775643.164                    20775648.410
 121295944.392 7  94516385.26644  23081858.453                    23081867.477
 11  7 27  1 20  0.0000000  0  9G12G10G17G09G05G04G28G02G27
 117748120.221 7  91751832.91745  22406721.609                    22406728.809
 111986114.936 7  87261996.46145  21310242.188                    21310249.762
 118049988.792 7  91986975.91845  22464110.891                    22464117.809
 119300221.293 7  92961256.00845  22702079.328                    22702087.910
 123864059.081 7  96517527.26344  23570544.336                    23570553.684
 108300064.486 8  84389808.17346  20608801.609                    20608809.055
 126236892.821 6  98366387.31743  24022052.703                    24022060.844
 109149114.118 8  85051383.23646  20770374.070                    20770379.199
 121347840.744 7  94556823.94444  23091733.875                    23091743.027
 11  7 27  1 20 30.0000000  0  9G12G10G17G09G05G04G28G02G27
 117664512.321 7  91686683.93145  22390811.852                    22390818.828
 111935228.434 8  87222344.68745  21300558.789                    21300566.195
 118095512.172 7  92022448.67945  22472773.203                    22472780.094
 119359245.804 7  93007249.05545  22713311.258                    22713319.563
 123758432.295 7  96435220.81144  23550443.789                    23550453.691
 108357317.215 8  84434420.68546  20619696.406                    20619703.805
 126335986.763 6  98443603.34743  24040909.578                    24040917.809
 109121787.040 8  85030089.43846  20765173.820                    20765179.102
 121400009.992 7  94597475.28344  23101661.461                    23101670.629
 11  7 27  1 21  0.0000000  0  9G12G10G17G09G05G04G28G02G27
 117581158.441 7  91621732.89245  22374950.375                    22374956.930
 111884857.049 8  87183094.30045  21290973.406                    21290980.785
 118141153.723 7  92058013.49345  22481458.797                    22481466.289
 119418683.392 7  93053563.99045  22724621.977                    22724630.281
 123652870.562 7  96352965.02244  23530356.617                    23530365.648
 108414899.155 8  84479289.72946  20630653.867                    20630660.691
 126435298.599 7  98520989.19143  24059808.391                    24059816.176
 109094821.301 8  85009077.20446  20760042.359                    20760047.297
 121452449.652 7  94638337.33644  23111640.516                    23111649.027
 11  7 27  1 21 30.0000000  0  9G12G10G17G09G05G04G28G02G27
 117498061.107 7  91556981.75345  22359137.047                    22359144.164
 111835002.774 8  87144246.85245  21281486.414                    21281493.695
 118186913.564 7  92093670.48845  22490166.133                    22490174.047
 119478530.588 7  93100198.09445  22736010.609                    22736018.852
 123547376.165 7  96270761.72144  23510281.203                    23510290.344
 108472807.227 8  84524412.89646  20641673.133                    20641680.789
 126534825.973 6  98598542.96043  24078748.219                    24078755.570
 109068215.906 8  84988345.76246  20754979.430                    20754984.457
 121505156.725 7  94679407.73844  23121669.922                    23121678.512
 11  7 27  1 22  0.0000000  0  9G12G10G17G09G05G04G28G02G27
 117415222.885 7  91492432.52345  22343373.586                    22343380.824
 111785668.243 8  87105804.39845  21272098.188                    21272105.488
 118232792.127 7  92129419.98845  22498896.805                    22498903.957
 119538784.613 7  93147149.21244  22747476.938                    22747484.813
 123441952.242 7  96188613.34745  23490219.797                    23490229.398
 108531039.451 8  84569788.65746  20652754.641                    20652761.750
 126634566.927 6  98676263.23243  24097727.531                    24097735.043
 109041970.434 8  84967894.77046  20749985.484                    20749989.992
 121558128.691 7  94720684.57744  23131750.680                    23131759.297
 11  7 27  1 22 30.0000000  0  9G12G10G17G09G05G04G28G02G27
 117332646.200 7  91428087.08045  22327659.281                    22327666.379
 111736856.052 8  87067768.97146  21262809.586                    21262817.047
 118278790.452 7  92165262.81845  22507649.930                    22507657.129
 119599442.399 7  93194414.96144  22759019.578                    22759027.621
 123336601.839 7  96106522.27645  23470172.445                    23470181.766
 108589593.670 8  84615415.32746  20663896.891                    20663904.277
 126734519.834 6  98754148.61243  24116748.523                    24116756.469
 109016084.778 8  84947724.15446  20745059.391                    20745064.262
 121611363.325 7  94762166.07144  23141880.445                    23141889.047
 11  7 27  1 23  0.0000000  0  9G12G10G17G09G05G04G28G02G27
 117250333.880 7  91363947.64145  22311996.125                    22312002.793
 111688568.558 8  87030142.40445  21253620.656                    21253628.020
 118324908.713 7  92201199.12645  22516425.992                    22516433.461
 119660500.774 7  93241992.84544  22770638.594                    22770646.883
 123231328.104 7  96024490.91644  23450139.180                    23450148.313
 108648467.617 8  84661291.12646  20675100.313                    20675107.422
 126834682.820 6  98832197.70843  24135807.734                    24135816.371
 108990558.642 8  84927833.67846  20740201.719                    20740206.566
 121664858.099 7  94803850.28544  23152060.734                    23152069.527
 11  7 27  1 23 30.0000000  0  9G12G10G17G09G05G04G28G02G27
 117168288.252 7  91300016.02145  22296383.422                    22296390.012
 111640808.112 8  86992926.50945  21244532.266                    21244540.043
 118371147.372 7  92237229.23545  22525225.211                    22525232.633
 119721956.458 7  93289880.32244  22782333.469                    22782341.563
 123126133.709 7  95942521.33244  23430121.586                    23430129.227
 108707658.741 8  84707414.07746  20686364.266                    20686371.133
 126935053.804 6  98910408.85043  24154907.531                    24154916.531
 108965391.049 8  84908222.57646  20735412.953                    20735417.445
 121718610.149 7  94845734.95844  23162289.008                    23162297.711
 11  7 27  1 24  0.0000000  0  9G12G10G17G09G05G04G28G02G27
 117086511.956 7  91236294.25745  22280821.750                    22280828.578
 111593577.091 7  86956123.16646  21235543.969                    21235551.859
 118417506.971 7  92273353.55945  22534047.023                    22534054.027
 119783806.298 7  93338074.96444  22794103.156                    22794111.184
 123021021.483 7  95860615.83544  23410119.203                    23410128.125
 108767164.604 8  84753782.27346  20697687.859                    20697694.563
 127035630.889 6  98988780.64142  24174047.000                    24174055.801
 108940581.639 8  84888890.59046  20730691.734                    20730696.449
 121772616.932 7  94887818.13344  23172565.883                    23172575.316
 11  7 27  1 24 30.0000000  0  9G12G10G17G09G05G04G28G02G27
 117005007.344 7  91172784.20145  22265311.766                    22265318.738
 111546877.444 8  86919733.88446  21226657.813                    21226665.297
 118463988.133 7  92309572.62945  22542892.227                    22542899.309
 119846046.956 7  93386574.12744  22805947.047                    22805955.781
 122915994.481 7  95778776.78444  23390132.438                    23390141.891
 108826982.877 8  84800393.91146  20709070.570                    20709077.777
 127136412.042 5  99067311.32942  24193225.336                    24193233.512
 108916129.837 8  84869837.24446  20726038.570                    20726043.637
 121826875.764 7  94930097.70144  23182891.594                    23182900.469
 11  7 27  1 25  0.0000000  0  9G12G10G17G09G05G04G28G02G27
 116923777.092 7  91109487.92845  22249854.367                    22249861.070
 111500710.976 7  86883760.05046  21217872.305                    21217879.691
 118510590.867 7  92345886.42745  22551760.539                    22551767.871
 119908675.177 7  93435375.30044  22817864.695                    22817873.176
 122811055.081 6  95697005.93644  23370163.664                    23370171.887
 108887110.876 8  84847246.90546  20720512.641                    20720519.688
 127237394.977 6  99145999.37142  24212440.656                    24212450.047
 108892034.774 8  84851061.88146  20721453.461                    20721457.977
 121881383.749 7  94972571.40944  23193264.070                    23193273.246
 11  7 27  1 25 30.0000000  0  9G12G10G17G09G05G04G28G02G27
 116842823.926 7  91046407.56845  22234449.977                    22234456.184
 111455080.775 8  86848204.09446  21209189.344                    21209196.406
 118557316.186 7  92382295.76545  22560651.992                    22560659.535
 119971688.110 7  93484476.27044  22829855.781                    22829864.121
 122706206.676 7  95615305.98444  23350211.445                    23350219.613
 108947546.740 8  84894339.77146  20732013.094                    20732020.371
 127338577.854 6  99224843.13942  24231696.398                    24231704.652
 108868296.235 8  84832564.33646  20716935.992                    20716940.945
 121936138.808 7  95015237.65744  23203683.578                    23203692.789
 11  7 27  1 26  0.0000000  0  9G12G10G17G09G05G04G28G02G27
 116762150.156 7  90983544.91845  22219097.719                    22219104.129
 111409989.224 8  86813067.86145  21200608.320                    21200616.090
 118604164.602 7  92418800.99445  22569566.813                    22569574.066
 120035082.224 7  93533874.25644  22841919.047                    22841927.859
 122601452.068 7  95533679.16744  23330277.359                    23330286.027
 109008288.072 8  84941670.67646  20743571.766                    20743579.035
 127439959.299 6  99303841.70442  24250987.813                    24250996.910
 108844913.755 8  84814344.23746  20712486.617                    20712491.398
 121991138.124 7  95058094.20744  23214149.719                    23214158.469
 11  7 27  1 26 30.0000000  0  9G12G10G17G09G05G04G28G02G27
 116681758.481 7  90920902.08045  22203799.594                    22203806.469
 111365437.827 8  86778352.52546  21192130.625                    21192138.063
 118651136.521 7  92455402.47345  22578505.250                    22578512.527
 120098854.267 6  93583566.73444  22854054.461                    22854062.570
 122496794.039 7  95452127.55944  23310361.141                    23310369.484
 109069332.205 8  84989237.53146  20755188.211                    20755195.496
 127541536.685 6  99382992.92843  24270317.969                    24270326.129
 108821886.760 8  84796401.14246  20708104.508                    20708109.543
 122046379.040 7  95101139.03044  23224662.156                    23224670.738
 11  7 27  1 27  0.0000000  0  9G12G10G17G09G05G04G28G02G27
 116601651.648 7  90858481.19145  22188555.672                    22188562.492
 111321429.158 8  86744060.10146  21183755.992                    21183763.730
 118698232.311 7  92492100.47445  22587467.547                    22587474.121
 120163001.496 7  93633551.58544  22866261.367                    22866269.945
 122392235.871 7  95370653.76444  23290464.648                    23290472.719
 109130677.339 8  85037038.92546  20766861.969                    20766869.098
 127643308.133 6  99462295.35143  24289684.289                    24289692.688
 108799214.775 8  84778734.67446  20703790.508                    20703795.469
 122101859.100 7  95144370.20044  23235219.383                    23235228.609
 11  7 27  1 27 30.0000000  0  9G12G10G17G09G05G04G28G02G27
 116521832.008 7  90796284.10245  22173366.711                    22173373.625
 111277965.018 7  86710191.98146  21175485.258                    21175492.781
 118745452.466 7  92528895.38545  22596452.906                    22596460.398
 120227520.238 7  93683825.90744  22878538.852                    22878547.664
 122287780.300 7  95289259.93944  23270587.328                    23270595.941
 109192320.663 8  85085072.68246  20778591.883                    20778599.277
 127745271.995 6  99541747.67743  24309087.969                    24309095.895
 108776897.234 8  84761344.39346  20699543.250                    20699548.152
 122157575.444 7  95187785.47844  23245821.797                    23245831.418
 11  7 27  1 28  0.0000000  0  9G12G10G17G09G05G04G28G02G27
 116442302.446 7  90734313.03645  22158232.570                    22158239.262
 111235048.169 8  86676750.32746  21167318.313                    21167325.871
 118792797.709 7  92565787.75645  22605463.039                    22605470.242
 120292407.525 7  93734387.41744  22890886.508                    22890895.082
 122183430.369 7  95207948.45544  23250729.914                    23250738.719
 109254259.945 8  85133337.03546  20790379.227                    20790386.246
 127847425.958 6  99621348.15743  24328527.156                    24328534.840
 108754933.109 8  84744229.51146  20695363.984                    20695368.711
 122213525.633 7  95231382.97044  23256468.703                    23256478.309
 11  7 27  1 28 30.0000000  0  8G12G10G17G09G05G04G02G27
 116363065.840 8  90672570.25345  22143154.133                    22143160.961
 111192681.529 7  86643737.41445  21159255.742                    21159263.285
 118840269.246 7  92602778.55145  22614496.297                    22614503.602
 120357660.705 7  93785234.03744  22903303.836                    22903312.605
 122079189.756 7  95126722.13545  23230893.430                    23230902.184
 109316493.719 8  85181830.88646  20802221.906                    20802228.914
 108733322.859 8  84727390.36346  20691251.234                    20691256.285
 122269707.718 7  95275161.16744  23267160.359                    23267169.449
 11  7 27  1 29  0.0000000  0  8G12G10G17G09G05G04G02G27
 116284124.221 7  90611057.33845  22128132.266                    22128139.117
 111150866.157 8  86611154.05446  21151298.836                    21151306.574
 118887866.603 7  92639867.38345  22623553.578                    22623560.957
 120423275.688 7  93836362.58644  22915790.047                    22915798.547
 121975060.605 7  95045582.66444  23211078.273                    23211086.734
 109379018.861 8  85230551.76846  20814119.625                    20814127.152
 108712064.863 8  84710825.70846  20687206.227                    20687210.797
 122326117.970 7  95319117.13544  23277893.813                    23277903.992
 11  7 27  1 29 30.0000000  0  8G12G10G17G09G05G04G02G27
 116205480.094 7  90549776.21345  22113166.617                    22113173.508
 111109604.239 7  86579001.95146  21143446.961                    21143454.250
 118935590.723 7  92677054.98845  22632635.570                    22632642.977
 120489249.580 7  93887770.78144  22928343.930                    22928353.000
 121871045.789 7  94964532.26745  23191285.070                    23191293.523
 109441833.051 8  85279497.87646  20826072.766                    20826080.164
 108691159.036 8  84694535.46846  20683227.977                    20683232.832
 122382754.004 7  95363249.04244  23288672.344                    23288681.379
 11  7 27  1 30  0.0000000  0  8G12G10G17G09G05G04G02G27
 116127136.130 7  90488728.99645  22098258.305                    22098265.129
 111068897.664 7  86547282.58446  21135700.461                    21135707.613
 118983442.038 7  92714341.71245  22641740.422                    22641748.105
 120555578.724 7  93939455.79444  22940966.266                    22940974.637
 121767148.355 7  94883573.34745  23171513.828                    23171522.063
 109504934.108 8  85328667.52146  20838080.695                    20838087.938
 108670604.585 8  84678519.02846  20679316.859                    20679321.609
 122439613.116 7  95407554.78144  23299491.344                    23299500.691
 11  7 27  1 30 30.0000000  0  8G12G10G17G09G05G04G02G27
 116049094.656 7  90427917.47746  22083407.625                    22083414.367
 111028748.413 8  86515997.50146  21128060.922                    21128068.047
 119031420.884 7  92751727.81645  22650871.164                    22650878.445
 120622259.720 6  93991414.98044  22953655.391                    22953664.195
 121663371.062 7  94802708.03945  23151765.359                    23151774.105
 109568319.232 8  85378058.51246  20850142.648                    20850149.555
 108650400.481 8  84662775.58946  20675471.508                    20675476.449
 122496692.489 7  95452032.15443  23310354.250                    23310362.738
 11  7 27  1 31  0.0000000  0  8G12G10G17G09G05G04G02G27
 115971358.112 8  90367343.56745  22068614.977                    22068621.527
 110989158.073 8  86485147.92446  21120526.789                    21120534.160
 119079527.490 7  92789213.46145  22660025.398                    22660033.328
 120689289.239 7  94043645.74744  22966410.688                    22966419.402
 121559716.528 7  94721938.40045  23132040.508                    23132049.352
 109631985.850 8  85427668.85246  20862257.742                    20862265.223
 108630545.710 8  84647304.35346  20671693.813                    20671698.422
 122553989.232 7  95496678.89543  23321256.227                    23321266.137
 11  7 27  1 31 30.0000000  0  8G12G10G17G09G05G04G02G27
 115893929.663 7  90307009.73145  22053880.734                    22053887.410
 110950128.672 7  86454735.44646  21113099.656                    21113107.254
 119127762.440 7  92826799.12645  22669204.781                    22669211.746
 120756663.579 7  94096145.18744  22979231.766                    22979240.414
 121456187.824 7  94641266.81845  23112339.539                    23112347.793
 109695931.737 8  85477496.80446  20874426.625                    20874433.355
 108611039.805 8  84632104.96346  20667981.664                    20667986.531
 122611500.663 7  95541492.94644  23332201.117                    23332210.516
 11  7 27  1 32  0.0000000  0  8G12G10G17G09G05G04G02G27
 115816811.390 7  90246917.59445  22039205.422                    22039212.000
 110911663.092 8  86424762.29946  21105779.961                    21105787.043
 119176126.552 7  92864485.43045  22678407.977                    22678415.000
 120824380.328 7  94148911.42744  22992117.625                    22992126.336
 121352788.500 7  94560696.04144  23092663.219                    23092671.594
 109760155.090 8  85527540.96446  20886647.813                    20886654.949
 108591882.525 8  84617177.22846  20664336.016                    20664341.234
 122669224.725 7  95586472.68643  23343185.641                    23343194.824
 11  7 27  1 32 30.0000000  0  8G12G10G17G09G05G04G02G27
 115740006.377 7  90187069.55545  22024589.781                    22024597.020
 110873763.663 8  86395230.31345  21098567.523                    21098575.148
 119224620.928 7  92902273.25045  22687636.336                    22687643.504
 120892436.370 7  94201942.07944  23005069.148                    23005077.543
 121249521.850 7  94480228.62945  23073011.992                    23073020.879
 109824654.144 8  85577799.95846  20898921.422                    20898928.469
 108573074.017 8  84602521.26546  20660756.930                    20660761.969
 122727159.013 7  95631616.20444  23354211.375                    23354219.406
 11  7 27  1 33  0.0000000  0  8G12G10G17G09G05G04G02G27
 115663516.947 7  90127467.42445  22010034.633                    22010041.438
 110836431.362 8  86366140.25745  21091463.469                    21091470.934
 119273245.431 7  92940162.47845  22696888.461                    22696896.281
 120960827.726 7  94255233.99744  23018082.742                    23018091.805
 121146390.219 7  94399866.43145  23053386.891                    23053395.031
 109889425.777 8  85628271.33646  20911247.023                    20911254.051
 108554612.614 8  84588135.76346  20657244.164                    20657249.078
 122785300.139 6  95676920.93244  23365274.039                    23365283.348
 11  7 27  1 33 30.0000000  0  8G12G10G17G09G05G04G02G27
 115587345.508 7  90068113.07146  21995539.719                    21995546.590
 110799668.203 8  86337493.67046  21084467.695                    21084475.293
 119322000.783 7  92978153.65745  22706166.813                    22706174.500
 121029551.421 7  94308784.88944  23031160.273                    23031169.906
 121043396.510 7  94319611.69745  23033788.398                    23033796.570
 109954467.625 8  85678953.30046  20923624.164                    20923631.148
 108536497.671 8  84574020.23746  20653796.984                    20653801.656
 122843645.192 7  95722384.54344  23376376.945                    23376385.672
 11  7 27  1 34  0.0000000  0  8G12G10G17G09G05G04G02G27
 115511494.450 7  90009008.37045  21981105.453                    21981112.457
 110763476.421 8  86309292.31446  21077580.758                    21077588.105
 119370887.557 7  93016247.25345  22715469.539                    22715476.930
 121098603.991 7  94362592.03844  23044301.117                    23044309.977
 120940543.826 7  94239466.83945  23014215.305                    23014223.457
 110019777.553 8  85729844.13246  20936052.344                    20936059.613
 108518728.507 8  84560174.15246  20650415.477                    20650420.090
 122902191.961 6  95768005.33744  23387518.156                    23387527.285
 11  7 27  1 34 30.0000000  0  8G12G10G17G09G05G04G02G27
 115435966.831 7  89950155.70145  21966733.289                    21966739.363
 110727857.832 8  86281537.60146  21070802.773                    21070810.285
 119419906.347 7  93054443.69945  22724797.719                    22724805.020
 121167982.187 7  94416652.90744  23057503.219                    23057511.910
 120837835.298 7  94159434.32345  22994670.719                    22994678.656
 110085353.557 8  85780942.30846  20948530.836                    20948538.113
 108501304.780 8  84546597.22946  20647099.891                    20647104.688
 122960937.866 7  95813781.32144  23398697.156                    23398706.609
 11  7 27  1 35  0.0000000  0  8G12G10G17G09G05G04G02G27
 115360764.897 7  89891556.80545  21952423.016                    21952429.355
 110692813.732 8  86254230.53946  21064133.961                    21064140.848
 119469057.217 7  93092743.06845  22734151.055                    22734157.844
 121237682.341 6  94470964.67944  23070767.070                    23070775.531
 120735273.601 7  94079516.21745  22975153.992                    22975161.895
 110151192.662 8  85832245.49246  20961059.813                    20961066.887
 108484225.138 8  84533288.42846  20643849.914                    20643854.535
 123019879.855 7  95859710.09544  23409913.391                    23409922.730
 11  7 27  1 35 30.0000000  0  8G12G10G17G09G05G04G02G27
 115285891.178 7  89833213.66746  21938174.625                    21938181.402
 110658346.254 8  86227372.80046  21057575.203                    21057582.363
 119518340.860 7  93131145.90545  22743529.070                    22743536.262
 121307701.146 7  94525524.74944  23084090.914                    23084099.613
 120632861.559 7  93999714.70845  22955665.320                    22955673.605
 110217292.677 8  85883751.98746  20973638.203                    20973644.906
 108467488.633 8  84520247.00046  20640664.719                    20640669.594
 123079015.058 7  95905789.40844  23421166.508                    23421176.359
 11  7 27  1 36  0.0000000  0  8G12G10G17G09G05G04G02G27
 115211348.626 7  89775128.57245  21923989.820                    21923996.383
 110624457.400 8  86200965.92946  21051126.125                    21051133.531
 119567758.034 7  93169652.78645  22752933.000                    22752940.008
 121378035.445 7  94580330.65444  23097475.188                    23097484.254
 120530602.592 7  93920032.48745  22936206.125                    22936214.109
 110283651.745 8  85935460.34546  20986265.727                    20986272.875
 108451095.269 8  84507472.95446  20637545.102                    20637550.383
 123138341.079 6  95952017.42744  23432455.703                    23432465.266
 11  7 27  1 36 30.0000000  0  8G12G10G17G09G05G04G02G27
 115137140.105 7  89717303.77046  21909868.633                    21909874.727
 110591149.478 8  86175011.73246  21044787.813                    21044794.980
 119617309.514 7  93208264.32245  22762362.234                    22762369.113
 121448682.503 7  94635380.27944  23110918.992                    23110927.691
 120428500.013 7  93840472.13845  22916776.352                    22916784.531
 110350267.971 8  85987369.07646  20998942.297                    20998949.609
 108435044.975 8  84494966.24946  20634490.953                    20634495.898
 123197855.798 6  95998392.47844  23443781.930                    23443791.164
 11  7 27  1 37  0.0000000  0  8G12G10G17G09G05G04G02G27
 115063267.233 8  89659740.50246  21895810.727                    21895817.297
 110558423.233 8  86149510.79046  21038559.859                    21038567.680
 119666995.413 7  93246980.59144  22771816.930                    22771823.887
 121519638.325 7  94690670.47644  23124421.477                    23124430.078
 120326556.169 7  93761035.46545  22897376.875                    22897385.438
 110417138.421 8  86039475.90446  21011667.578                    21011674.879
 108419335.908 8  84482725.43146  20631501.789                    20631506.563
 123257555.678 6  96044911.81644  23455142.227                    23455151.262
 11  7 27  1 37 30.0000000  0  8G12G10G17G09G05G04G02G27
 114989732.660 7  89602440.84646  21881817.719                    21881824.066
 110526280.490 8  86124464.51746  21032443.555                    21032450.902
 119716816.511 7  93285802.20745  22781297.375                    22781304.766
 121590899.452 7  94746198.60644  23137982.000                    23137990.664
 120224774.033 7  93681724.77945  22878008.742                    22878016.641
 110484260.895 8  86091779.11646  21024440.211                    21024447.520
 108403967.525 8  84470750.08146  20628576.945                    20628581.898
 123317438.126 6  96091573.41044  23466536.797                    23466546.742
 11  7 27  1 38  0.0000000  0  8G12G10G17G09G05G04G02G27
 114916539.329 7  89545407.09746  21867889.406                    21867896.148
 110494723.240 8  86099874.47746  21026438.625                    21026445.871
 119766773.089 7  93324729.39045  22790804.523                    22790811.797
 121662462.607 7  94801962.07344  23151599.641                    23151608.609
 120123156.850 7  93602542.63345  22858671.633                    22858679.367
 110551632.961 8  86144276.82146  21037260.859                    21037268.129
 108388938.916 8  84459039.49046  20625717.031                    20625721.680
 123377500.511 6  96138375.20644  23477966.672                    23477976.164
 11  7 27  1 38 30.0000000  0  8G12G10G17G09G05G04G02G27
 114843689.683 7  89488641.15246  21854026.211                    21854033.125
 110463752.805 7  86075741.69646  21020544.953                    21020552.258
 119816865.831 7  93363762.68245  22800336.383                    22800344.406
 121734324.473 7  94857958.28644  23165275.156                    23165283.758
 120021707.408 7  93523491.22045  22839365.844                    22839374.145
 110619252.480 8  86196967.34246  21050128.344                    21050136.113
 108374249.523 8  84447593.22046  20622922.133                    20622926.586
 123437739.928 6  96185314.96244  23489430.109                    23489439.699
 11  7 27  1 39  0.0000000  0  8G12G10G17G09G05G04G02G27
 114771186.494 7  89432145.17446  21840229.594                    21840236.180
 110433371.220 7  86052067.75946  21014763.719                    21014770.828
 119867095.343 7  93402902.52545  22809894.953                    22809902.441
 121806481.813 7  94914184.74944  23179005.461                    23179014.547
 119920429.217 7  93444573.22745  22820093.688                    22820101.316
 110687117.363 8  86249849.05246  21063042.859                    21063049.973
 108359898.835 8  84436410.87146  20620191.180                    20620195.758
 123498153.989 6  96232390.80244  23500926.188                    23500935.965
 11  7 27  1 39 30.0000000  0  8G12G10G17G09G05G04G02G27
 114699032.046 7  89375920.93646  21826499.281                    21826505.488
 110403579.763 8  86028853.66946  21009094.227                    21009101.980
 119917462.041 7  93442149.26045  22819479.766                    22819486.875
 121878930.991 7  94970638.61244  23192792.984                    23192801.691
 119819324.760 7  93365790.60545  22800854.000                    22800861.434
 110755225.148 8  86302920.04846  21076003.289                    21076010.320
 108345885.700 8  84425491.55346  20617524.273                    20617529.184
 123558739.765 6  96279600.44743  23512455.367                    23512465.234
 11  7 27  1 40  0.0000000  0  8G12G10G17G09G05G04G02G27
 114627228.573 7  89319970.18546  21812835.164                    21812842.176
 110374379.548 7  86006100.27646  21003537.750                    21003545.090
 119967966.016 7  93481502.97345  22829089.797                    22829097.434
 121951668.257 7  95027316.95344  23206633.711                    23206643.223
 119718396.586 7  93287145.35145  22781647.523                    22781655.770
 110823573.017 8  86356178.11846  21089009.453                    21089016.816
 108332208.445 8  84414833.95046  20614921.773                    20614926.609
 123619493.827 6  96326941.23243  23524016.586                    23524025.473
 11  7 27  1 40 30.0000000  0  8G12G10G17G09G05G04G02G27
 114555778.654 7  89264294.92746  21799238.586                    21799245.324
 110345772.577 7  85983809.15246  20998094.047                    20998101.457
 120018608.492 7  93520964.61745  22838726.969                    22838734.320
 122024690.719 7  95084217.52944  23220529.602                    23220538.914
 119617648.138 7  93208640.15245  22762476.039                    22762483.668
 110892159.484 8  86409622.10746  21102060.734                    21102067.793
 108318867.350 8  84404438.30846  20612382.961                    20612387.965
 123680413.889 6  96374411.36543  23535609.273                    23535618.848
 11  7 27  1 41  0.0000000  0  8G12G10G17G09G05G04G02G27
 114484685.611 7  89208897.75946  21785710.164                    21785717.082
 110317761.267 8  85961982.18746  20992763.898                    20992770.863
 120069389.998 7  93560534.59045  22848390.398                    22848397.410
 122097995.367 6  95141337.99244  23234479.133                    23234488.379
 119517083.098 7  93130277.86345  22743339.297                    22743346.805
 110960982.665 8  86463250.55946  21115157.680                    21115165.004
 108305862.138 8  84394304.37646  20609908.180                    20609913.262
 123741498.067 6  96422009.37643  23547233.703                    23547242.246
 11  7 27  1 41 30.0000000  0  8G12G10G17G09G05G04G02G27
 114413951.631 7  89153780.38046  21772249.797                    21772256.848
 110290346.238 7  85940619.85446  20987547.070                    20987553.816
 120120310.834 7  93600213.13545  22858080.469                    22858087.539
 122171578.251 7  95198675.25544  23248482.094                    23248491.020
 119416704.058 7  93052060.49945  22724237.320                    22724245.035
 111030039.640 8  86517061.17646  21128298.938                    21128305.902
 108293191.334 8  84384431.02746  20607496.992                    20607501.879
 123802743.029 6  96469732.67543  23558887.891                    23558897.137
 11  7 27  1 42  0.0000000  0  8G12G10G17G09G05G04G02G27
 114343579.136 7  89098944.67846  21758858.633                    21758865.512
 110263529.090 8  85919723.40546  20982443.461                    20982450.918
 120171371.605 7  93640000.72945  22867797.023                    22867804.273
 122245435.879 7  95256226.61044  23262536.969                    23262545.020
 119316513.372 7  92973989.90745  22705171.641                    22705179.656
 111099328.380 8  86571052.39446  21141483.656                    21141491.527
 108280854.070 8  84374817.58946  20605149.266                    20605154.246
 123864145.898 6  96517579.02443  23570572.922                    23570582.059
 11  7 27  1 42 30.0000000  0  8G12G10G17G09G05G04G02G27
 114273570.221 8  89044392.27946  21745536.133                    21745543.016
 110237311.197 7  85899293.91046  20977454.258                    20977461.313
 120222572.667 7  93679897.64445  22877540.250                    22877547.445
 122319565.060 7  95313989.55844  23276642.563                    23276651.473
 119216514.317 7  92896068.65545  22686142.469                    22686151.031
 111168846.253 8  86625222.15346  21154712.844                    21154720.191
 108268849.114 8  84365463.09446  20602864.492                    20602869.887
 123925703.725 6  96565546.11143  23582286.523                    23582295.801
 11  7 27  1 43  0.0000000  0  8G12G10G17G09G05G04G02G27
 114203927.800 8  88990125.46546  21732283.633                    21732290.598
 110211694.170 8  85879332.62446  20972579.258                    20972586.605
 120273914.551 7  93719904.29745  22887310.531                    22887317.586
 122393962.404 7  95371961.46644  23290799.641                    23290808.941
 119116709.966 7  92818299.10245  22667150.602                    22667158.566
 111238591.316 8  86679568.95446  21167984.914                    21167992.141
 108257175.992 8  84356367.17146  20600643.461                    20600648.414
 123987414.026 6  96613632.02343  23594029.742                    23594039.125
 11  7 27  1 43 30.0000000  0  8G12G10G17G09G05G04G02G27
 114134654.403 7  88936146.20246  21719101.516                    21719107.934
 110186679.587 8  85859840.77246  20967819.703                    20967826.324
 120325398.083 7  93760021.31545  22897108.023                    22897114.555
 122468624.616 7  95430139.75144  23305008.258                    23305016.590
 119017103.591 7  92740683.80645  22648196.094                    22648203.664
 111308561.612 8  86734091.26246  21181299.570                    21181307.176
 108245834.109 8  84347529.35146  20598485.242                    20598490.336
 124049274.217 6  96661834.72344  23605802.156                    23605810.648
 11  7 27  1 44  0.0000000  0  9G12G10G17G09G05G04G25G02G27
 114065752.089 7  88882456.09946  21705989.945                    21705996.773
 110162268.192 8  85840818.92746  20963174.344                    20963181.473
 120377023.618 7  93800248.97945  22906931.766                    22906939.184
 122543547.787 7  95488521.39044  23319265.859                    23319274.105
 118917697.673 7  92663224.73545  22629279.383                    22629287.539
 111378754.441 8  86788786.96146  21194657.039                    21194663.910
 129476615.80816 100890945.86353  24638589.305                    24638599.977
 108234821.892 8  84338948.41646  20596389.539                    20596394.539
 124111281.018 7  96710151.67644  23617601.195                    23617609.984
 11  7 27  1 44 30.0000000  0  9G12G10G17G09G05G04G25G02G27
 113997223.936 7  88829057.54946  21692949.391                    21692955.996
 110138461.811 8  85822268.53046  20958644.063                    20958651.707
 120428791.798 7  93840587.80545  22916782.539                    22916790.008
 122618729.040 7  95547104.11744  23333571.805                    23333581.406
 118818495.707 7  92585924.57945  22610401.875                    22610410.008
 111449167.904 8  86843654.60146  21208056.172                    21208063.367
 129373392.913 6 100810512.51943  24618946.875                    24618958.168
 108224139.261 8  84330624.29146  20594356.992                    20594361.637
 124173431.952 7  96758580.95544  23629428.492                    23629437.184
 11  7 27  1 45  0.0000000  0  9G12G10G17G09G05G04G25G02G27
 113929071.942 7  88775952.11446  21679980.523                    21679987.180
 110115261.495 8  85804190.39146  20954229.094                    20954236.336
 120480702.703 7  93881037.86444  22926660.867                    22926668.027
 122694164.608 7  95605885.03444  23347926.891                    23347935.711
 118719500.300 7  92508785.37545  22591563.891                    22591571.855
 111519799.580 8  86898692.25946  21221497.102                    21221504.660
 129270280.352 6 100730165.18043  24599324.781                    24599335.809
 108213784.594 8  84322555.73146  20592386.484                    20592391.051
 124235724.156 7  96807120.29244  23641282.164                    23641291.266
 11  7 27  1 45 30.0000000  0  9G12G10G17G09G05G04G25G02G27
 113861299.032 7  88723142.07746  21667083.438                    21667090.391
 110092668.574 8  85786585.53946  20949929.875                    20949936.793
 120532757.218 7  93921599.82045  22936566.453                    22936573.313
 122769851.418 7  95664861.70844  23362329.641                    23362338.320
 118620714.752 7  92431809.70645  22572765.289                    22572773.605
 111590647.449 8  86953898.37846  21234978.883                    21234986.188
 129167280.948 7 100649905.99144  24579725.266                    24579735.777
 108203757.784 8  84314742.63546  20590478.219                    20590482.766
 124298155.223 7  96855767.85744  23653162.102                    23653171.688
 11  7 27  1 46  0.0000000  0  9G12G10G17G09G05G04G25G02G27
 113793907.807 8  88670629.46046  21654259.625                    21654266.156
 110070684.535 8  85769455.15146  20945745.953                    20945753.113
 120584955.739 7  93962273.99845  22946499.242                    22946507.016
 122845786.036 7  95724031.47344  23376779.273                    23376788.430
 118522141.716 7  92354999.63645  22554007.375                    22554015.105
 111661709.334 8  87009271.28146  21248501.664                    21248509.160
 129064397.008 7 100569736.76444  24560146.555                    24560157.313
 108194057.792 8  84307184.22246  20588632.719                    20588637.141
 124360722.362 6  96904521.43844  23665068.086                    23665077.809
 11  7 27  1 46 30.0000000  0  9G12G10G17G09G05G04G25G02G27
 113726900.253 8  88618415.80746  21641508.461                    21641514.914
 110049310.005 8  85752799.69946  20941678.664                    20941685.645
 120637298.747 7  94003060.74244  22956459.914                    22956467.762
 122921964.810 7  95783391.50344  23391276.180                    23391285.008
 118423784.117 7  92278357.41845  22535290.563                    22535298.203
 111732982.685 8  87064808.95846  21262064.516                    21262071.801
 128961630.917 7 100489659.38644  24540591.023                    24540601.922
 108184683.298 8  84299879.42746  20586848.773                    20586853.000
 124423422.500 6  96953378.63244  23676999.602                    23677009.387
 11  7 27  1 47  0.0000000  0  9G12G10G17G09G05G04G25G02G27
 113660278.728 8  88566502.95946  21628830.445                    21628837.105
 110028546.612 8  85736620.46046  20937727.305                    20937734.988
 120689786.710 7  94043960.45745  22966447.727                    22966455.703
 122998384.043 7  95842938.90144  23405818.531                    23405827.289
 118325645.054 7  92201885.49345  22516615.352                    22516623.270
 111804465.313 8  87120509.71646  21275667.320                    21275674.305
 128858985.130 7 100409675.77044  24521058.352                    24521068.953
 108175633.275 8  84292827.47746  20585126.430                    20585131.156
 124486252.980 6  97002337.40644  23688955.570                    23688965.770
 11  7 27  1 47 30.0000000  0  9G12G10G17G09G05G04G25G02G27
 113594045.994 8  88514893.07846  21616227.094                    21616233.426
 110008395.237 8  85720918.10946  20933893.148                    20933899.949
 120742420.351 7  94084973.68444  22976464.180                    22976471.145
 123075040.321 7  95902671.02344  23420405.516                    23420414.566
 118227727.385 7  92125586.10845  22497982.000                    22497989.887
 111876155.227 8  87176371.97946  21289309.219                    21289316.453
 128756462.176 7 100329787.84944  24501548.945                    24501558.988
 108166906.938 8  84286027.74946  20583465.883                    20583470.609
 124549210.891 6  97051395.47044  23700936.453                    23700946.367
 11  7 27  1 48  0.0000000  0  9G12G10G17G09G05G04G25G02G27
 113528204.292 7  88463587.90146  21603697.266                    21603704.148
 109988857.349 8  85705693.79846  20930175.336                    20930182.246
 120795200.245 7  94126100.84845  22986507.539                    22986515.027
 123151930.351 7  95962585.26744  23435036.953                    23435046.313
 118130034.191 7  92049461.61245  22479391.773                    22479399.000
 111948050.173 8  87232394.03046  21302990.414                    21302997.832
 128654064.435 7 100249997.49343  24482062.492                    24482073.176
 108158503.343 8  84279479.51246  20581866.875                    20581871.320
 124612293.317 6  97100550.55943  23712940.594                    23712950.234
 11  7 27  1 48 30.0000000  0  9G12G10G17G09G05G04G25G02G27
 113462756.292 7  88412589.50346  21591243.109                    21591249.871
 109969934.353 8  85690948.63046  20926574.328                    20926580.926
 120848126.561 7  94167342.10445  22996579.602                    22996586.660
 123229051.138 7  96022679.32744  23449713.047                    23449722.102
 118032568.541 7  91973514.41345  22460844.188                    22460851.508
 112020148.319 8  87288574.40046  21316710.141                    21316717.574
 128551794.831 7 100170306.96643  24462601.742                    24462611.535
 108150422.078 8  84273182.44346  20580328.680                    20580333.625
 124675498.163 6  97149801.07543  23724967.711                    23724977.156
 11  7 27  1 49  0.0000000  0  9G12G10G17G09G05G04G25G02G27
 113397704.562 7  88361899.87446  21578864.531                    21578871.219
 109951627.181 8  85676683.31746  20923090.281                    20923097.488
 120901200.068 7  94208698.06244  23006678.547                    23006685.805
 123306399.184 7  96082950.48344  23464431.844                    23464440.891
 117935333.640 7  91897747.02945  22442340.898                    22442348.887
 112092447.322 8  87344911.29346  21330468.094                    21330475.242
 128449655.798 6 100090718.16443  24443165.805                    24443175.480
 108142662.273 8  84267135.86546  20578852.180                    20578856.770
 124738822.504 6  97199144.67243  23737017.820                    23737027.859
 11  7 27  1 49 30.0000000  0  9G12G10G17G09G05G04G25G02G27
 113333051.116 8  88311520.61246  21566561.125                    21566567.512
 109933936.423 8  85662898.33346  20919723.789                    20919730.969
 120954421.094 7  94250168.94745  23016806.398                    23016814.223
 123383970.768 7  96143395.81244  23479192.352                    23479202.371
 117838331.858 7  91822161.30745  22423882.688                    22423890.434
 112164944.687 8  87401402.73846  21344263.930                    21344271.410
 128347649.450 6 100011232.80043  24423753.469                    24423763.949
 108135222.132 8  84261338.36946  20577436.398                    20577440.828
 124802263.121 6  97248578.89443  23749090.445                    23749100.016
 11  7 27  1 50  0.0000000  0  9G12G10G17G09G05G04G25G02G27
 113268798.363 8  88261453.56946  21554334.563                    21554340.949
 109916863.304 8  85649594.63146  20916474.930                    20916482.246
 121007790.402 7  94291755.38845  23026962.313                    23026969.992
 123461762.373 7  96204012.58144  23493996.156                    23494005.313
 117741566.474 7  91746759.77745  22405467.758                    22405475.379
 112237638.487 8  87458047.26646  21358097.133                    21358104.586
 128245778.392 6  99931852.80743  24404368.828                    24404378.707
 108128101.108 8  84255789.53546  20576081.289                    20576086.074
 124865817.376 6  97298101.65143  23761184.281                    23761194.711
 11  7 27  1 50 30.0000000  0  9G12G10G17G09G05G04G25G02G27
 113204948.813 7  88211700.72046  21542183.945                    21542190.473
 109900408.861 8  85636773.00746  20913343.461                    20913350.660
 121061308.161 7  94333457.49844  23037146.547                    23037153.836
 123539770.737 7  96264798.25944  23508840.516                    23508850.387
 117645040.282 7  91671544.62145  22387099.922                    22387107.270
 112310526.502 8  87514843.11946  21371967.336                    21371974.730
 128144045.139 6  99852580.19943  24385008.844                    24385018.891
 108121297.867 8  84250488.31546  20574786.766                    20574791.578
 124929482.390 6  97347710.72244  23773299.695                    23773309.375
 11  7 27  1 51  0.0000000  0  9G12G10G17G09G05G04G25G02G27
 113141505.166 7  88162264.15146  21530111.211                    21530117.688
 109884574.159 8  85624434.30046  20910330.484                    20910337.371
 121114975.152 7  94375275.88145  23047359.133                    23047367.043
 123617992.577 7  96325750.29144  23523725.859                    23523735.113
 117548756.531 7  91596518.38745  22368777.906                    22368785.547
 112383606.765 8  87571788.79346  21385874.031                    21385881.441
 128042452.568 6  99773417.23443  24365676.234                    24365686.605
 108114812.244 8  84245434.59046  20573552.352                    20573556.645
 124993255.631 6  97397404.11643  23785435.016                    23785444.699
 11  7 27  1 51 30.0000000  0  9G12G10G17G09G05G04G25G02G27
 113078470.018 7  88113145.88346  21518115.641                    21518122.805
 109869360.207 8  85612579.29246  20907435.344                    20907442.184
 121168791.793 7  94417210.88345  23057600.273                    23057607.109
 123696424.430 7  96386865.95044  23538650.609                    23538660.395
 117452717.928 7  91521683.18945  22350501.797                    22350510.375
 112456877.187 8  87628882.62446  21399817.016                    21399824.492
 127941003.106 6  99694365.71743  24346371.055                    24346380.801
 108108643.061 8  84240627.45546  20572378.367                    20572383.313
 125057134.371 6  97447179.72544  23797590.656                    23797601.539
 11  7 27  1 52  0.0000000  0  9G12G10G17G09G05G04G25G02G27
 113015845.404 7  88064347.51046  21506198.672                    21506205.348
 109854767.961 8  85601208.73746  20904658.633                    20904665.582
 121222758.644 7  94459262.90945  23067869.750                    23067877.145
 123775062.745 6  96448142.51544  23553614.484                    23553624.324
 117356927.604 7  91447041.44645  22332273.773                    22332281.406
 112530335.557 8  87686122.91145  21413795.609                    21413802.578
 127839699.321 6  99615427.71543  24327094.148                    24327103.676
 108102789.379 8  84236066.16946  20571264.398                    20571269.172
 125121115.754 6  97497035.30843  23809766.625                    23809776.676
 11  7 27  1 52 30.0000000  0  9G12G10G17G09G05G04G25G02G27
 112953633.490 8  88015870.72346  21494360.367                    21494366.918
 109840798.134 8  85590323.16946  20902000.117                    20902007.336
 121276876.281 7  94501432.46144  23078167.625                    23078175.133
 123853903.913 7  96509577.16344  23568618.336                    23568627.543
 117261388.440 7  91372595.40245  22314093.680                    22314100.820
 112603979.687 8  87743507.94645  21427809.875                    21427816.707
 127738543.596 7  99536605.08443  24307844.000                    24307855.223
 108097250.117 8  84231749.87046  20570210.234                    20570215.180
 125185197.008 6  97546968.71244  23821961.188                    23821970.297
 11  7 27  1 53  0.0000000  0  9G12G10G17G09G05G04G25G02G27
 112891836.551 8  87967717.29346  21482600.891                    21482607.523
 109827451.289 8  85579923.05346  20899460.273                    20899467.227
 121331144.738 7  94543719.53044  23088494.523                    23088502.457
 123932944.611 6  96571167.27743  23583659.281                    23583668.848
 117166103.157 7  91298347.18645  22295960.633                    22295967.934
 112677807.188 8  87801035.88645  21441858.250                    21441865.535
 127637538.266 6  99457899.65843  24288624.125                    24288634.059
 108092023.624 8  84227677.29846  20569216.078                    20569220.609
 125249374.989 7  97596977.47143  23834174.242                    23834183.340
 11  7 27  1 53 30.0000000  0  9G12G10G17G09G05G04G25G02G27
 112830457.326 7  87919889.34646  21470920.570                    21470927.383
 109814728.641 8  85570009.32246  20897039.188                    20897045.973
 121385564.972 7  94586124.87744  23098850.672                    23098858.148
 124012181.654 7  96632910.41144  23598737.875                    23598746.563
 117071075.086 7  91224299.39745  22277877.922                    22277885.676
 112751816.445 8  87858705.44146  21455942.227                    21455949.496
 127536686.290 7  99379313.71244  24269432.508                    24269442.246
 108087109.983 8  84223848.50446  20568280.852                    20568285.363
 125313647.240 7  97647059.68143  23846404.211                    23846413.465
 11  7 27  1 54  0.0000000  0  9G12G10G17G09G05G04G25G02G27
 112769498.318 8  87872388.83646  21459320.617                    21459327.316
 109802630.856 8  85560582.49346  20894737.242                    20894744.055
 121440137.082 7  94628648.56844  23109235.438                    23109242.980
 124091611.542 7  96694803.79544  23613852.984                    23613861.957
 116976306.867 7  91150454.09745  22259843.977                    22259851.441
 112826004.979 8  87916514.69746  21470059.617                    21470066.746
 127435990.078 7  99300849.16743  24250270.758                    24250280.426
 108082507.587 8  84220262.23346  20567404.766                    20567409.590
 125378011.025 6  97697213.23643  23858652.430                    23858661.434
 11  7 27  1 54 30.0000000  0  9G12G10G17G09G05G04G25G02G27
 112708961.350 8  87825217.18246  21447800.867                    21447807.480
 109791158.541 8  85551643.03946  20892553.805                    20892561.051
 121494861.780 7  94671291.13644  23119649.086                    23119656.715
 124171230.588 7  96756844.58244  23629003.891                    23629012.559
 116881801.515 7  91076813.62045  22241860.148                    22241867.289
 112900370.959 8  87974462.21746  21484211.039                    21484218.277
 127335452.082 7  99222507.90544  24231139.828                    24231148.797
 108078215.404 8  84216917.68446  20566587.938                    20566593.004
 125442463.480 6  97747435.86243  23870917.102                    23870926.531
 11  7 27  1 55  0.0000000  0  9G12G10G17G09G05G04G25G02G27
 112648848.966 8  87778376.36946  21436361.664                    21436368.398
 109780312.640 8  85543191.70046  20890490.172                    20890497.172
 121549739.606 7  94714053.04744  23130092.344                    23130099.668
 124251035.280 7  96819030.06244  23644190.586                    23644199.531
 116787562.024 7  91003380.31345  22223926.891                    22223934.191
 112974912.001 8  88032546.15145  21498395.313                    21498403.000
 127235074.994 7  99144292.02644  24212037.719                    24212048.379
 108074232.442 8  84213814.09946  20565830.117                    20565835.121
 125507001.828 6  97797725.43543  23883198.266                    23883208.332
 11  7 27  1 55 30.0000000  0  9G12G10G17G09G05G04G25G02G27
 112589163.640 8  87731868.33346  21425004.063                    21425010.594
 109770093.738 8  85535228.94246  20888545.414                    20888552.449
 121604770.886 7  94756934.54444  23140564.688                    23140571.738
 124331022.546 7  96881357.77743  23659411.203                    23659420.301
 116693591.368 7  90930156.47645  22206045.023                    22206052.477
 113049626.357 8  88090765.12745  21512613.328                    21512620.805
 127134861.425 7  99066203.58044  24192967.188                    24192978.363
 108070558.063 8  84210950.96046  20565131.094                    20565136.035
 125571623.450 6  97848079.86943  23895495.305                    23895504.984
 11  7 27  1 56  0.0000000  0  9G12G10G17G09G05G04G25G02G27
 112529907.583 8  87685694.78446  21413727.797                    21413734.363
 109760502.345 8  85527755.14646  20886720.219                    20886727.031
 121659956.204 7  94799936.06944  23151065.797                    23151073.063
 124411188.606 7  96943824.82444  23674666.875                    23674675.668
 116599892.085 7  90857144.10545  22188214.461                    22188222.141
 113124511.711 8  88149117.35146  21526863.586                    21526871.375
 127034813.840 6  98988244.46943  24173928.836                    24173939.395
 108067190.742 8  84208327.07646  20564490.383                    20564495.168
 125636325.446 6  97898496.95143  23907808.156                    23907817.742
 11  7 27  1 56 30.0000000  0  9G12G10G17G09G05G04G25G02G27
 112471083.105 8  87639857.52346  21402533.852                    21402540.270
 109751539.291 8  85520770.96946  20885015.086                    20885021.652
 121715296.001 7  94843057.99944  23161596.500                    23161603.418
 124491530.365 7  97006428.79944  23689954.969                    23689964.609
 116506467.355 7  90784345.66345  22170436.523                    22170443.828
 113199565.943 8  88207601.15945  21541145.961                    21541153.395
 126934934.868 6  98910416.75043  24154923.031                    24154933.020
 108064129.696 8  84205941.86946  20563907.734                    20563912.566
 125701104.986 6  97948974.47543  23920135.031                    23920145.023
 11  7 27  1 57  0.0000000  0  9G12G10G17G09G05G04G25G02G27
 112412692.772 8  87594358.57046  21391422.578                    21391429.297
 109743205.620 8  85514277.22146  20883428.883                    20883435.797
 121770790.757 7  94886300.69444  23172157.063                    23172164.418
 124572044.318 7  97069166.92544  23705276.219                    23705285.555
 116413320.318 7  90711763.61845  22152711.023                    22152718.336
 113274787.313 8  88266215.21545  21555460.234                    21555467.156
 126835227.242 6  98832722.55643  24135948.727                    24135959.359
 108061373.975 8  84203794.56146  20563383.195                    20563387.961
 125765959.530 6  97999510.41043  23932476.297                    23932486.504
 11  7 27  1 57 30.0000000  0  9G12G10G17G09G05G04G25G02G27
 112354738.469 8  87549199.37246  21380394.414                    21380401.250
 109735501.549 8  85508274.06346  20881963.109                    20881969.820
 121826440.902 6  94929664.44944  23182747.195                    23182753.656
 124652726.892 7  97132036.45944  23720629.781                    23720638.691
 116320453.658 7  90639400.03345  22135038.703                    22135046.313
 113350173.594 8  88324957.77545  21569805.594                    21569812.957
 126735693.387 6  98755163.77843  24117007.891                    24117018.547
 108058922.436 7  84201884.28446  20562916.453                    20562921.344
 125830886.348 6  98050102.65643  23944831.523                    23944841.867
 11  7 27  1 58  0.0000000  0  9G12G10G17G09G05G04G25G02G27
 112297222.637 8  87504381.83946  21369449.625                    21369455.871
 109728427.630 8  85502761.93846  20880616.555                    20880623.484
 121882247.006 7  94973149.73944  23193366.039                    23193373.309
 124733574.798 6  97195034.80244  23736014.672                    23736023.742
 116227870.460 7  90567257.34445  22117420.844                    22117428.559
 113425722.709 8  88383827.21945  21584182.211                    21584189.547
 126636336.057 6  98677742.50543  24098101.016                    24098111.492
 108056774.161 8  84200210.32146  20562507.672                    20562512.605
 125895882.400 6  98100748.84643  23957200.063                    23957210.066
 11  7 27  1 58 30.0000000  0  9G12G10G17G09G05G04G25G02G27
 112240147.558 8  87459907.74446  21358588.398                    21358595.215
 109721984.246 8  85497741.13946  20879390.438                    20879397.500
 121938209.619 7  95016757.01544  23204015.773                    23204022.988
 124814584.764 6  97258159.44844  23751429.977                    23751439.387
 116135573.418 7  90495337.62645  22099857.414                    22099864.727
 113501432.585 8  88442821.93245  21598588.930                    21598596.555
 126537157.659 6  98600460.68743  24079228.109                    24079238.055
 108054928.171 8  84198771.90346  20562156.570                    20562161.355
 125960945.007 6  98151446.89943  23969581.086                    23969590.711
 11  7 27  1 59  0.0000000  0  9G12G10G17G09G05G04G25G02G27
 112183515.356 8  87415778.74846  21347811.453                    21347817.867
 109716172.134 8  85493212.23846  20878284.297                    20878291.527
 121994328.913 7  95060486.35744  23214695.078                    23214702.258
 124895753.068 6  97321407.43644  23766875.953                    23766885.617
 116043565.567 7  90423643.25945  22082348.344                    22082356.332
 113577301.342 8  88501940.43345  21613026.719                    21613033.910
 126438160.990 7  98523320.49043  24060389.570                    24060399.527
 108053383.206 8  84197568.04846  20561862.445                    20561867.371
 126026071.414 6  98202194.68143  23981974.820                    23981984.277
 11  7 27  1 59 30.0000000  0  9G12G10G17G09G05G04G25G02G27
 112127328.483 8  87371996.77046  21337119.719                    21337126.441
 109710991.738 8  85489175.58246  20877298.094                    20877305.805
 122050605.552 6  95104338.30644  23225403.695                    23225410.750
 124977076.367 6  97384776.20144  23782350.938                    23782361.125
 115951849.692 7  90352176.38645  22064895.758                    22064902.785
 113653326.738 8  88561180.99945  21627493.797                    21627501.164
 126339348.501 7  98446323.80444  24041586.063                    24041596.473
 108052138.197 8  84196597.93446  20561625.836                    20561630.406
 126091258.913 6  98252990.04443  23994379.406                    23994389.445
 11  7 27  2  0  0.0000000  0  9G12G10G17G09G05G04G25G02G27
 112071588.996 8  87328563.39146  21326512.852                    21326519.316
 109706443.430 7  85485631.45446  20876433.461                    20876440.309
 122107039.851 7  95148313.10944  23236142.828                    23236149.820
 125058551.511 6  97448263.27444  23797855.133                    23797865.078
 115860428.663 7  90280939.28446  22047498.641                    22047506.371
 113729507.063 8  88620542.27745  21641990.055                    21641997.969
 126240722.897 7  98369472.71844  24022818.570                    24022828.148
 108051192.331 7  84195860.91646  20561445.555                    20561450.340
 126156504.623 6  98303830.82243  24006795.820                    24006805.492
 11  7 27  2  0 30.0000000  0  9G12G10G17G09G05G04G25G02G27
 112016299.337 8  87285480.53546  21315991.664                    21315998.121
 109702527.803 8  85482580.33546  20875688.289                    20875695.234
 122163632.374 7  95192411.18044  23246912.078                    23246919.957
 125140175.077 6  97511866.03343  23813387.727                    23813397.281
 115769305.577 7  90209934.32645  22030158.945                    22030165.867
 113805840.206 7  88680022.64745  21656515.914                    21656523.328
 126142287.052 7  98292769.51144  24004086.883                    24004096.480
 108050544.660 8  84195356.25646  20561322.328                    20561327.316
 126221806.168 6  98354715.08243  24019221.008                    24019231.938
 11  7 27  2  1  0.0000000  0  9G12G10G17G09G05G04G25G02G27
 111961461.818 8  87242749.99746  21305556.227                    21305562.926
 109699245.097 7  85480022.39946  20875063.258                    20875070.379
 122220383.541 7  95236632.89644  23257711.789                    23257718.902
 125221943.662 6  97575581.77143  23828948.414                    23828957.543
 115678483.343 7  90139163.80646  22012876.008                    22012883.105
 113882324.273 7  88739620.60645  21671070.719                    21671078.238
 126044043.340 7  98216216.01744  23985391.773                    23985401.031
 108050194.061 7  84195083.07846  20561255.422                    20561260.098
 126287160.623 6  98405640.59344  24031658.852                    24031668.578
 11  7 27  2  1 30.0000000  0  9G12G10G17G09G05G04G25G02G27
 111907078.591 8  87200373.45846  21295207.500                    21295214.156
 109696595.878 7  85477958.09546  20874559.086                    20874566.406
 122277294.001 6  95280978.71544  23268540.930                    23268548.625
 125303853.552 6  97639407.60944  23844534.898                    23844544.254
 115587964.582 7  90068629.76246  21995650.555                    21995657.852
 113958957.050 8  88799334.45645  21685653.672                    21685660.441
 125945994.377 7  98139814.28644  23966733.031                    23966743.094
 108050139.219 8  84195040.36346  20561245.406                    20561250.242
 126352565.098 6  98456605.07344  24044104.945                    24044114.738
 11  7 27  2  2  0.0000000  0  9G12G10G17G09G05G04G25G02G27
 111853151.401 8  87158352.26546  21284945.320                    21284952.191
 109694580.033 8  85476387.31646  20874175.727                    20874182.781
 122334364.015 7  95325448.84844  23279401.109                    23279408.664
 125385901.170 7  97703340.76044  23860148.195                    23860158.207
 115497752.294 7  89998334.52746  21978483.727                    21978491.008
 114035736.658 7  88859162.72645  21700264.078                    21700271.320
 125848142.666 7  98063566.26944  23948113.125                    23948122.734
 108050378.938 8  84195227.17546  20561290.648                    20561295.848
 126418016.816 6  98507606.38044  24056559.258                    24056569.590
 11  7 27  2  2 30.0000000  0  9G12G10G17G09G05G04G25G02G27
 111799682.996 8  87116688.57846  21274770.891                    21274777.473
 109693198.502 8  85475310.81246  20873912.672                    20873919.730
 122391593.841 7  95370043.52445  23290291.461                    23290298.719
 125468083.871 7  97767379.18044  23875787.328                    23875796.559
 115407849.460 8  89928280.42646  21961376.047                    21961382.805
 114112661.366 7  88919104.05245  21714902.383                    21714909.422
 125750491.219 7  97987474.28644  23929530.289                    23929540.059
 108050912.708 8  84195643.11246  20561392.203                    20561397.402
 126483513.255 6  98558642.48743  24069023.211                    24069033.008
 11  7 27  2  3  0.0000000  0  9G12G10G17G09G05G04G25G02G27
 111746675.626 8  87075384.13746  21264683.781                    21264690.098
 109692451.128 8  85474728.46146  20873770.414                    20873777.926
 122448984.090 6  95414763.21244  23301212.414                    23301220.168
 125550398.031 7  97831520.03344  23891450.719                    23891460.336
 115318258.568 7  89858469.39646  21944327.328                    21944334.379
 114189728.963 7  88979156.73445  21729567.828                    21729574.746
 125653042.399 7  97911540.21644  23910986.219                    23910995.922
 108051738.990 8  84196286.98546  20561549.727                    20561554.332
 126549051.346 6  98609711.07843  24081494.859                    24081504.605
 11  7 27  2  3 30.0000000  0  9G12G10G17G09G05G04G25G02G27
 111694130.584 8  87034439.96146  21254684.938                    21254691.496
 109692338.217 8  85474640.50246  20873748.594                    20873755.730
 122506535.287 6  95459608.29944  23312164.586                    23312172.207
 125632840.000 7  97895760.47144  23907139.547                    23907148.727
 115228982.859 7  89788903.96645  21927337.961                    21927345.352
 114266937.393 7  89039319.15145  21744259.938                    21744267.637
 125555798.790 7  97835766.05044  23892481.742                    23892491.617
 108052856.875 8  84197158.07946  20561761.938                    20561767.180
 126614628.587 6  98660810.14643  24093973.773                    24093983.637
 11  7 27  2  4  0.0000000  0  9G12G10G17G09G05G04G25G02G27
 111642050.423 8  86993858.03046  21244774.203                    21244780.691
 109692859.734 8  85475046.90746  20873847.977                    20873854.918
 122564247.677 6  95504578.98344  23323146.273                    23323153.867
 125715406.496 7  97960097.95643  23922851.469                    23922860.504
 115140024.891 7  89719586.14146  21910410.195                    21910417.629
 114344284.872 7  89099589.91045  21758978.711                    21758985.848
 125458763.087 7  97760153.86844  23874016.063                    23874026.086
 108054265.251 8  84198255.53246  20562030.336                    20562034.992
 126680242.244 6  98711937.59843  24106459.563                    24106469.602
 11  7 27  2  4 30.0000000  0  9G12G10G17G09G05G04G25G02G27
 111590437.430 8  86953640.12746  21234952.508                    21234959.148
 109694015.847 8  85475947.79346  20874068.156                    20874075.434
 122622121.667 6  95549675.57944  23334159.555                    23334167.004
 125798094.165 7  98024529.86144  23938586.367                    23938595.664
 115051387.434 7  89650518.05145  21893542.867                    21893550.453
 114421769.321 7  89159967.42045  21773723.516                    21773730.684
 125361937.847 7  97684705.71844  23855590.422                    23855600.988
 108055962.757 8  84199578.27546  20562353.328                    20562358.199
 126745889.581 6  98763091.30443  24118952.344                    24118962.012
 11  7 27  2  5  0.0000000  0  9G12G10G17G09G05G04G25G02G27
 111539293.565 8  86913787.79046  21225220.320                    21225226.668
 109695806.894 8  85477343.43746  20874409.117                    20874415.910
 122680157.696 6  95594898.46044  23345203.391                    23345211.113
 125880899.560 7  98089053.48743  23954343.523                    23954352.637
 114963073.116 7  89581701.75546  21876737.547                    21876744.891
 114499388.767 7  89220450.10845  21788493.977                    21788501.383
 125265325.717 7  97609423.60344  23837205.898                    23837216.188
 108057948.222 8  84201125.40446  20562731.086                    20562735.902
 126811567.596 6  98814268.89343  24131450.563                    24131460.211
 11  7 27  2  5 30.0000000  0  9G12G10G17G09G05G04G25G02G27
 111488621.169 8  86874302.82646  21215577.555                    21215583.559
 109698233.040 8  85479233.94946  20874870.648                    20874877.676
 122738356.348 6  95640248.03344  23356278.320                    23356285.930
 125963819.380 7  98153666.28043  23970122.781                    23970131.355
 114875085.424 7  89513139.98446  21859993.516                    21860001.152
 114577141.596 7  89281036.73345  21803289.813                    21803297.250
 125168929.603 7  97534309.78644  23818862.328                    23818872.133
 108060221.284 8  84202896.64646  20563163.688                    20563168.625
 126877274.035 6  98865468.61143  24143953.727                    24143963.945
 11  7 27  2  6  0.0000000  0  9G12G10G17G09G05G04G25G02G27
 111438422.023 8  86835186.62346  21206025.039                    21206031.625
 109701294.358 8  85481619.41946  20875453.039                    20875459.977
 122796717.784 7  95685724.45544  23367383.656                    23367392.180
 126046850.389 7  98218365.71543  23985922.586                    23985932.719
 114787427.005 7  89444834.79346  21843312.992                    21843320.324
 114655025.846 7  89341725.76145  21818110.602                    21818118.133
 125072752.002 7  97459366.25044  23800560.219                    23800570.449
 108062780.546 8  84204890.89946  20563650.625                    20563655.453
 126943006.025 6  98916688.27743  24156462.359                    24156472.309
 11  7 27  2  6 30.0000000  0  9G12G10G17G09G05G04G25G02G27
 111388698.469 8  86796441.02546  21196562.883                    21196570.000
 109704990.755 8  85484499.74746  20876156.633                    20876163.773
 122855242.554 7  95731328.17444  23378521.281                    23378528.543
 126129989.100 7  98283149.05443  24001744.195                    24001752.852
 114700100.498 7  89376788.22446  21826695.438                    21826702.117
 114733039.462 8  89402515.59545  21832956.203                    21832963.559
 124976795.586 7  97384595.03244  23782300.656                    23782310.504
 108065624.695 8  84207107.13346  20564192.078                    20564196.387
 127008760.769 6  98967925.63943  24168975.430                    24168984.637
 11  7 27  2  7  0.0000000  0  9G12G10G17G09G05G04G25G02G27
 111339452.305 8  86758067.42146  21187191.680                    21187197.941
 109709322.127 8  85487874.87046  20876980.820                    20876987.418
 122913930.864 7  95777059.31044  23389688.977                    23389696.594
 126213231.912 7  98348013.53243  24017584.703                    24017593.652
 114613108.409 7  89309002.24546  21810141.164                    21810148.172
 114811180.589 7  89463404.78545  21847825.969                    21847833.188
 124881062.866 7  97309998.13544  23764083.414                    23764092.840
 108068752.428 8  84209544.34446  20564787.125                    20564792.051
 127074535.407 6  99019178.52943  24181491.438                    24181501.348
 11  7 27  2  7 30.0000000  0  9G12G10G17G09G05G04G25G02G27
 111290685.828 8  86720067.60046  21177911.898                    21177917.887
 109714288.837 8  85491745.04046  20877925.695                    20877932.902
 122972783.620 7  95822918.60044  23400889.063                    23400895.242
 126296575.690 7  98412956.67243  24033444.125                    24033453.633
 114526453.973 7  89241479.37246  21793651.141                    21793658.742
 114889447.292 7  89524391.83445  21862719.969                    21862726.984
 124785556.728 7  97235577.78044  23745908.914                    23745918.645
 108072163.035 8  84212201.96146  20565436.164                    20565440.902
 127140327.158 6  99070444.76043  24194011.578                    24194021.676
 11  7 27  2  8  0.0000000  0  9G12G10G17G09G05G04G25G02G27
 111242400.745 8  86682442.88946  21168723.289                    21168729.664
 109719890.453 7  85496109.95446  20878991.695                    20878999.000
 123031800.937 7  95868906.13544  23412119.125                    23412126.574
 126380017.350 7  98477976.05743  24049322.547                    24049331.984
 114440140.108 7  89174221.88646  21777226.227                    21777233.434
 114967837.596 8  89585475.18745  21877636.422                    21877644.238
 124690279.747 7  97161335.97344  23727778.766                    23727788.215
 108075855.388 8  84215079.14046  20566138.656                    20566143.500
 127206133.508 6  99121722.33943  24206533.766                    24206544.469
 11  7 27  2  8 30.0000000  0  9G12G10G17G09G05G04G25G02G27
 111194599.321 8  86645195.06446  21159626.781                    21159633.375
 109726127.272 8  85500969.83046  20880178.570                    20880185.395
 123090983.071 7  95915022.10444  23423381.109                    23423388.285
 126463553.157 6  98543068.82343  24065218.922                    24065228.617
 114354168.909 7  89107231.40746  21760866.203                    21760873.336
 115046349.795 8  89646653.51545  21892577.188                    21892584.645
 124595234.442 7  97087274.70444  23709691.820                    23709701.699
 108079828.119 8  84218174.79246  20566894.805                    20566899.391
 127271951.685 6  99173009.13043  24219057.859                    24219069.121
 11  7 27  2  9  0.0000000  0  9G12G10G17G09G05G04G25G02G27
 111147284.177 8  86608326.14746  21150623.227                    21150629.633
 109732999.262 7  85506324.64246  20881486.359                    20881493.289
 123150330.649 7  95961266.96744  23434673.938                    23434681.527
 126547179.955 6  98608232.51443  24081132.719                    24081141.973
 114268543.716 7  89040510.53246  21744572.234                    21744579.324
 115124982.169 7  89707925.51945  21907540.211                    21907547.949
 124500423.778 7  97013396.26544  23691649.844                    23691659.563
 108084080.606 8  84221488.44046  20567703.945                    20567708.688
 127337779.227 6  99224303.21343  24231585.734                    24231595.414
 11  7 27  2  9 30.0000000  0  9G12G10G17G09G05G04G25G02G27
 111100455.977 8  86571836.67846  21141711.852                    21141718.188
 109740506.166 8  85512174.20046  20882915.164                    20882921.902
 123209843.822 7  96007640.87544  23446000.180                    23446006.840
 126630894.517 6  98673464.58643  24097063.328                    24097072.859
 114183266.998 7  88974061.19546  21728344.852                    21728351.902
 115203732.741 8  89769289.59545  21922526.484                    21922533.410
 124405850.188 7  96939702.54344  23673653.633                    23673662.980
 108088611.323 8  84225018.89846  20568566.016                    20568570.512
 127403613.140 6  99275602.30443  24244112.227                    24244123.102
 11  7 27  2 10  0.0000000  0  9G12G10G17G09G05G04G25G02G27
 111054117.304 8  86535728.65646  21132893.906                    21132900.746
 109748647.569 7  85518518.16246  20884463.844                    20884471.027
 123269522.979 7  96054144.12244  23457356.328                    23457363.676
 126714693.320 6  98738762.30643  24113009.328                    24113019.039
 114098341.377 8  88907885.45046  21712183.867                    21712191.582
 115282599.470 8  89830744.18145  21937534.078                    21937541.191
 124311516.284 7  96866195.59844  23655702.375                    23655711.953
 108093419.047 8  84228765.20646  20569480.945                    20569485.699
 127469450.760 6  99326904.22343  24256641.586                    24256652.172
 11  7 27  2 10 30.0000000  0  9G12G10G17G09G05G04G25G02G27
 111008269.993 8  86500003.51446  21124169.469                    21124175.914
 109757423.326 8  85525356.43546  20886133.820                    20886140.656
 123329368.459 7  96100776.95244  23468744.734                    23468751.875
 126798573.115 6  98804123.11243  24128971.320                    24128981.570
 114013769.952 8  88841985.69046  21696090.367                    21696097.574
 115361580.671 7  89892287.98745  21952563.547                    21952570.910
 124217424.796 7  96792877.54744  23637797.000                    23637806.727
 108098502.558 8  84232726.40446  20570448.320                    20570452.789
 127535289.372 6  99378206.97443  24269170.727                    24269181.305
 11  7 27  2 11  0.0000000  0  9G12G10G17G09G05G04G25G02G27
 110962916.586 8  86464663.23046  21115538.992                    21115545.277
 109766833.770 8  85532689.26246  20887924.742                    20887931.570
 123389380.847 7  96147539.88344  23480163.625                    23480171.152
 126882530.746 6  98869544.58743  24144948.164                    24144958.035
 113929555.660 7  88776364.22346  21680065.109                    21680072.207
 115440674.897 7  89953919.84545  21967614.781                    21967621.867
 124123578.706 7  96719750.72544  23619938.203                    23619948.324
 108103861.377 8  84236902.12646  20571468.102                    20571472.832
 127601126.438 6  99429508.51243  24281699.156                    24281709.254
 11  7 27  2 11 30.0000000  0  9G12G10G17G09G05G04G25G02G27
 110918058.706 8  86429709.07846  21107002.945                    21107009.348
 109776878.258 8  85540516.15546  20889835.688                    20889842.703
 123449560.478 7  96194433.08344  23491616.664                    23491623.313
 126966562.853 6  98935024.10944  24160939.375                    24160948.207
 113845701.131 8  88711023.08246  21664107.945                    21664114.902
 115519880.071 7  90015638.16845  21982686.711                    21982694.309
 124029980.563 7  96646817.07544  23602127.430                    23602137.512
 108109494.257 8  84241291.40046  20572539.641                    20572544.313
 127666959.227 6  99480806.72143  24294226.477                    24294236.898
 11  7 27  2 12  0.0000000  0  9G12G10G17G09G05G04G25G02G27
 110873697.835 8  86395142.19846  21098561.313                    21098567.645
 109787556.312 8  85548836.73746  20891867.625                    20891874.902
 123509907.401 7  96241456.66544  23503099.656                    23503106.895
 127050666.114 6  99000559.06243  24176943.094                    24176952.832
 113762208.591 8  88645964.00246  21648220.102                    21648226.953
 115599194.138 7  90077441.33845  21997780.070                    21997787.344
 123936632.739 7  96574078.49044  23584363.984                    23584374.195
 108115399.493 8  84245892.88746  20573663.477                    20573668.301
 127732784.836 6  99532099.33643  24306753.523                    24306763.551
 11  7 27  2 12 30.0000000  0  9G12G10G17G09G05G04G25G02G27
 110829836.475 8  86360964.55246  21090214.539                    21090220.980
 109798868.005 8  85557651.05546  20894020.406                    20894027.559
 123570422.442 7  96288611.23044  23514615.703                    23514623.277
 127134837.123 6  99066146.79344  24192960.922                    24192970.324
 113679080.959 8  88581189.27646  21632401.102                    21632408.008
 115678615.413 7  90139328.04445  22012893.219                    22012900.285
 123843538.071 7  96501537.18344  23566649.164                    23566658.531
 108121576.409 8  84250706.08446  20574839.102                    20574843.434
 127798600.933 6  99583384.55144  24319276.906                    24319287.727
 11  7 27  2 13  0.0000000  0  9G12G10G17G09G05G04G25G02G27
 110786476.256 8  86327177.41146  21081963.367                    21081969.941
 109810812.855 8  85566958.74746  20896293.461                    20896300.520
 123631105.642 7  96335896.83644  23526162.953                    23526170.402
 127219072.626 6  99131784.79244  24208990.438                    24209000.430
 113596321.089 8  88516701.11846  21616652.047                    21616659.168
 115758142.434 7  90201297.15245  22028026.297                    22028033.996
 123750699.355 7  96429195.32344  23548982.250                    23548992.234
 108128023.737 8  84255730.00346  20576066.008                    20576070.473
 127864404.693 6  99634660.16043  24331799.063                    24331809.984
 11  7 27  2 13 30.0000000  0  9G12G10G17G09G05G04G25G02G27
 110743619.259 8  86293782.39046  21073808.266                    21073814.410
 109823390.357 8  85576759.41046  20898686.633                    20898693.988
 123691957.429 6  96383313.80344  23537742.594                    23537750.105
 127303369.293 6  99197470.46044  24225031.656                    24225040.973
 113513931.456 8  88452501.46046  21600973.984                    21600981.129
 115837772.947 7  90263346.90345  22043179.938                    22043187.168
 123658119.178 7  96357054.92244  23531364.984                    23531374.785
 108134740.366 8  84260963.76146  20577343.992                    20577348.867
 127930193.484 6  99685924.09543  24344318.773                    24344329.215
 11  7 27  2 14  0.0000000  0  9G12G10G17G09G05G04G25G02G27
 110701266.436 8  86260780.23346  21065748.531                    21065755.141
 109836599.990 8  85587052.64846  20901200.523                    20901207.293
 123752978.008 7  96430862.30044  23549354.305                    23549361.852
 127387723.748 6  99263201.17844  24241083.742                    24241092.758
 113431914.508 8  88388592.20946  21585366.484                    21585373.602
 115917505.487 7  90325476.16545  22058352.391                    22058359.801
 123565800.035 7  96285117.94244  23513796.828                    23513807.063
 108141724.793 8  84266406.19846  20578673.156                    20578677.578
 127995964.391 6  99737174.06843  24356834.695                    24356844.992
 11  7 27  2 14 30.0000000  0  9G12G10G17G09G05G04G25G02G27
 110659420.454 8  86228173.01946  21057785.500                    21057791.844
 109850441.982 8  85597838.63246  20903834.703                    20903841.688
 123814167.884 7  96478542.74144  23560998.680                    23561005.977
 127472132.940 6  99328974.52144  24257146.227                    24257155.602
 113350273.494 8  88324975.87546  21569830.961                    21569838.090
 115997338.207 7  90387683.47445  22073544.344                    22073551.578
 123473744.830 7  96213386.63544  23496279.430                    23496289.320
 108148976.322 8  84272056.77046  20580052.984                    20580058.012
 128061715.080 6  99788408.31643  24369346.578                    24369357.023
 11  7 27  2 15  0.0000000  0  9G12G10G17G09G05G04G25G02G27
 110618083.013 8  86195962.07246  21049919.039                    21049925.309
 109864915.249 8  85609116.51846  20906588.805                    20906595.781
 123875527.236 6  96526355.19544  23572674.664                    23572682.395
 127556593.533 6  99394787.91743  24273218.828                    24273228.027
 113269010.750 8  88261654.31046  21554366.945                    21554374.270
 116077269.345 7  90449967.48845  22088754.492                    22088761.699
 123381956.178 7  96141863.03644  23478812.453                    23478822.512
 108156493.584 8  84277914.39946  20581483.555                    20581488.094
 128127442.756 5  99839624.61143  24381853.992                    24381864.398
 11  7 27  2 15 30.0000000  0  9G12G10G17G09G05G04G25G02G27
 110577255.701 7  86164148.62346  21042149.891                    21042156.219
 109880019.581 8  85620886.15146  20909463.398                    20909469.816
 123937056.590 7  96574300.14044  23584383.516                    23584390.723
 127641102.135 6  99460638.73443  24289299.883                    24289310.121
 113188128.714 7  88198629.40346  21538975.430                    21538982.957
 116157297.096 7  90512326.77845  22103983.594                    22103990.402
 123290436.745 7  96070549.23144  23461397.313                    23461406.695
 108164275.590 8  84283978.33146  20582964.445                    20582968.676
 128193144.834 5  99890820.96142  24394356.672                    24394367.438
 11  7 27  2 16  0.0000000  0  9G12G10G17G09G05G04G25G02G27
 110536940.625 8  86132734.32846  21034478.281                    21034484.914
 109895754.681 8  85633147.29046  20912457.609                    20912464.215
 123998756.392 7  96622377.90044  23596124.734                    23596131.359
 127725655.706 6  99526524.56243  24305389.984                    24305399.035
 113107630.575 8  88135903.63046  21523657.563                    21523664.566
 116237420.140 7  90574760.33245  22119229.938                    22119237.590
 123199189.382 7  95999447.43544  23444033.297                    23444043.137
 108172321.370 8  84290247.78946  20584495.445                    20584499.918
 128258818.652 5  99941995.28542  24406853.945                    24406864.563
 11  7 27  2 16 30.0000000  0  9G12G10G17G09G05G04G25G02G27
 110497139.286 8  86101720.34046  21026904.430                    21026910.797
 109912119.828 8  85645899.37746  20915571.633                    20915578.699
 124060626.579 6  96670588.44944  23607897.609                    23607905.168
 127810250.843 6  99592442.80744  24321488.000                    24321497.672
 113027518.706 8  88073478.83946  21508412.781                    21508419.523
 116317636.349 7  90637266.46145  22134494.781                    22134501.965
 123108216.622 7  95928559.60944  23426722.008                    23426731.488
 108180629.339 8  84296721.56846  20586076.352                    20586080.777
 128324461.571 5  99993145.49942  24419345.438                    24419355.898
 11  7 27  2 17  0.0000000  0  9G12G10G17G09G05G04G25G02G27
 110457853.461 7  86071108.05346  21019428.422                    21019434.824
 109929114.432 8  85659141.94746  20918805.516                    20918812.379
 124122667.533 6  96718932.03944  23619703.867                    23619711.605
 127894884.502 6  99658391.05743  24337593.250                    24337603.395
 112947795.693 8  88011357.06646  21493241.820                    21493249.254
 116397944.291 7  90699844.07545  22149777.086                    22149783.820
 123017521.152 7  95857887.88844  23409462.523                    23409473.066
 108189198.789 8  84303399.07846  20587706.922                    20587711.590
 128390070.820 6 100044269.57042  24431830.094                    24431841.652
 11  7 27  2 17 30.0000000  0  9G12G10G17G09G05G04G25G02G27
 110419085.075 7  86040898.95946  21012050.984                    21012057.270
 109946737.971 8  85672874.58246  20922159.219                    20922165.957
 124184879.911 6  96767409.20544  23631543.109                    23631549.754
 127979553.211 6  99724366.61543  24353704.672                    24353715.016
 112868464.358 8  87949540.49446  21478145.805                    21478152.762
 116478342.138 7  90762491.74545  22165076.375                    22165083.734
 122927105.679 7  95787434.31544  23392257.414                    23392267.066
 108198028.503 8  84310279.40946  20589387.070                    20589391.879
 128455643.943 5 100095365.39142  24444308.734                    24444319.531
 11  7 27  2 18  0.0000000  0  9G12G10G17G09G05G04G25G02G27
 110380835.763 8  86011094.34146  21004772.375                    21004778.793
 109964989.838 8  85687096.85346  20925632.313                    20925639.387
 124247263.837 6  96816020.08644  23643413.383                    23643421.000
 128064254.006 6  99790367.14543  24369822.992                    24369832.809
 112789527.203 8  87888031.05846  21463124.180                    21463131.582
 116558828.291 7  90825208.21845  22180392.219                    22180399.492
 122836972.883 7  95717201.03244  23375105.570                    23375115.066
 108207117.318 8  84317361.62946  20591117.125                    20591121.465
 128521178.235 6 100146431.05242  24456779.164                    24456790.586
 11  7 27  2 18 30.0000000  0  9G12G10G17G09G05G04G25G02G27
 110343106.991 7  85981695.32846  20997592.727                    20997599.105
 109983869.152 8  85701808.03446  20929224.461                    20929232.000
 124309819.358 7  96864764.64444  23655318.430                    23655325.191
 128148983.422 6  99856389.99943  24385947.141                    24385956.152
 112710986.530 8  87826830.59346  21448178.531                    21448185.492
 116639400.803 7  90887992.00345  22195724.453                    22195732.305
 122747125.312 7  95647190.00044  23358008.555                    23358018.160
 108216463.830 8  84324644.65146  20592895.227                    20592899.664
 128586671.094 6 100197464.38442  24469241.914                    24469253.203
 11  7 27  2 19  0.0000000  0  9G12G10G17G09G05G04G25G02G27
 110305900.465 8  85952703.26846  20990512.430                    20990518.828
 110003375.239 8  85717007.61146  20932936.531                    20932943.637
 124372546.926 7  96913643.27043  23667254.102                    23667261.723
 128233738.228 6  99922432.63843  24402074.875                    24402084.344
 112632844.884 8  87765941.05046  21433308.578                    21433316.016
 116720058.188 7  90950841.89045  22211073.500                    22211080.395
 122657565.649 7  95577403.32444  23340965.398                    23340975.215
 108226066.962 8  84332127.63646  20594722.773                    20594726.941
 128652119.961 6 100248463.42242  24481697.289                    24481707.629
 11  7 27  2 19 30.0000000  0  9G12G10G17G09G05G04G25G02G27
 110269218.316 8  85924119.80646  20983532.555                    20983538.305
 110023507.638 8  85732695.21446  20936767.367                    20936774.926
 124435447.040 7  96962656.35544  23679223.781                    23679231.117
 128318515.460 6  99988492.76943  24418208.258                    24418217.176
 112555105.120 8  87705364.65546  21418515.273                    21418522.098
 116800798.859 7  91013756.69445  22226437.688                    22226444.684
 122568296.719 7  95507843.19844  23323977.555                    23323987.672
 108235925.695 8  84339809.78846  20596598.773                    20596603.176
 128717522.431 6 100299426.28843  24494142.594                    24494153.707
 11  7 27  2 20  0.0000000  0  8G12G10G17G09G05G04G25G02
 110233062.021 8  85895946.09946  20976651.727                    20976658.277
 110044265.538 8  85748870.22346  20940717.727                    20940724.805
 124498520.155 7  97011804.26244  23691226.188                    23691233.551
 128403312.196 6 100054568.05943  24434343.523                    24434353.363
 112477769.895 8  87645103.48446  21403798.516                    21403805.617
 116881621.446 7  91076735.32545  22241817.867                    22241825.285
 122479321.376 7  95438511.83744  23307045.969                    23307056.332
 108246039.329 8  84347690.58446  20598523.180                    20598527.512
 11  7 27  2 20 30.0000000  0  8G12G10G17G09G05G04G25G02
 110197433.084 7  85868183.30746  20969872.148                    20969878.680
 110065648.022 7  85765531.92046  20944786.648                    20944793.371
 124561766.075 7  97061086.78744  23703262.102                    23703269.430
 128488124.890 6 100120655.81643  24450482.703                    24450492.926
 112400841.707 8  87585159.48646  21389159.680                    21389166.609
 116962523.976 7  91139776.23345  22257213.305                    22257220.324
 122390642.055 7  95369411.13044  23290171.438                    23290181.148
 108256406.131 8  84355768.63546  20600495.914                    20600499.992
 11  7 27  2 21  0.0000000  0  8G12G10G17G09G05G04G25G02
 110162333.140 8  85840832.72146  20963192.594                    20963198.652
 110087654.659 7  85782679.96846  20948974.531                    20948981.621
 124625185.174 7  97110504.25344  23715329.742                    23715337.379
 128572950.235 6 100186753.45943  24466625.375                    24466634.449
 112324322.846 8  87525534.43746  21374598.266                    21374605.434
 117043504.877 7  91202878.20245  22272623.227                    22272630.813
 122302261.358 7  95300543.13144  23273352.820                    23273362.516
 108267025.039 8  84364043.13446  20602516.492                    20602521.355
 11  7 27  2 21 30.0000000  0  8G12G10G17G09G05G04G25G02
 110127763.403 8  85813895.28246  20956614.031                    20956620.227
 110110284.417 7  85800313.57046  20953280.555                    20953287.500
 124688777.562 7  97160056.76344  23727431.219                    23727438.504
 128657784.980 6 100252858.36943  24482769.453                    24482778.469
 112248215.618 8  87466230.13846  21360115.797                    21360122.570
 117124562.206 7  91266039.74245  22288048.156                    22288054.949
 122214181.796 7  95231909.78044  23256591.914                    23256601.336
 108277894.608 8  84372512.95046  20604584.609                    20604589.367
 11  7 27  2 22  0.0000000  0  8G12G10G17G09G05G04G25G02
 110093725.576 8  85787372.31146  20950137.063                    20950143.301
 110133536.784 7  85818432.32146  20957705.734                    20957712.277
 124752543.845 7  97209744.78644  23739565.703                    23739572.922
 128742626.117 6 100318968.28143  24498913.430                    24498923.008
 112172522.873 8  87407248.82746  21345711.852                    21345718.863
 117205694.717 7  91329259.86545  22303486.992                    22303494.363
 122126406.257 7  95163513.32845  23239888.609                    23239898.402
 108289014.090 8  84381177.50846  20606701.148                    20606705.574
 11  7 27  2 22 30.0000000  0  8G12G10G17G09G05G04G25G02
 110060221.312 8  85761265.11346  20943761.289                    20943767.879
 110157410.515 7  85837035.25046  20962248.703                    20962255.461
 124816484.028 7  97259568.28044  23751733.320                    23751740.500
 128827470.442 6 100385080.68643  24515059.320                    24515068.824
 112097247.072 8  87348592.39246  21331387.133                    21331393.973
 117286900.770 7  91392537.27745  22318939.805                    22318947.340
 122038937.321 7  95095355.78345  23223244.305                    23223253.766
 108300382.209 8  84390035.80346  20608864.148                    20608869.012
 11  7 27  2 23  0.0000000  0  8G12G10G17G09G05G04G25G02
 110027251.824 7  85735574.60846  20937487.555                    20937493.941
 110181904.473 7  85856121.46446  20966909.977                    20966915.852
 124880598.165 6  97309527.35244  23763933.789                    23763941.070
 128912314.778 6 100451193.06843  24531204.344                    24531214.395
 112022390.414 8  87290262.57346  21317142.719                    21317149.699
 117368178.425 7  91455870.48445  22334406.430                    22334413.750
 121951777.477 7  95027439.09445  23206657.500                    23206667.848
 108311997.524 8  84399086.72346  20611074.438                    20611079.215
 11  7 27  2 23 30.0000000  0  8G12G10G17G09G05G04G25G02
 109994819.118 8  85710302.37846  20931315.570                    20931321.680
 110207017.922 7  85875690.41346  20971688.656                    20971695.617
 124944886.799 6  97359622.39944  23776167.164                    23776174.508
 128997156.134 6 100517303.19144  24547349.617                    24547359.168
 111947955.497 8  87232261.38246  21302978.227                    21302985.266
 117449526.365 7  91519258.45845  22349886.539                    22349894.008
 121864929.580 7  94959765.45845  23190131.539                    23190141.113
 108323859.237 8  84408329.64146  20613331.602                    20613336.059
 11  7 27  2 24  0.0000000  0  8G12G10G17G09G05G04G25G02
 109962925.086 7  85685449.90146  20925246.477                    20925252.547
 110232749.698 7  85895741.15946  20976585.086                    20976591.941
 125009349.968 6  97409853.42744  23788433.992                    23788441.863
 129081991.155 6 100583408.32943  24563492.711                    24563502.613
 111873944.438 8  87174590.45746  21288894.172                    21288901.129
 117530943.137 7  91582700.08445  22365379.625                    22365386.762
 121778396.221 7  94892336.92345  23173664.453                    23173674.016
 108335966.152 8  84417763.62046  20615635.766                    20615640.395
 11  7 27  2 24 30.0000000  0  8G12G10G17G09G05G04G25G02
 109931570.351 8  85661017.65546  20919279.742                    20919285.824
 110259099.352 7  85916273.38546  20981599.406                    20981606.324
 125073988.106 7  97460220.78244  23800734.883                    23800742.121
 129166816.711 6 100649506.08644  24579635.023                    24579644.324
 111800360.603 8  87117252.44146  21274891.492                    21274898.645
 117612427.159 7  91646194.09745  22380885.625                    22380892.723
 121692180.311 7  94825155.76545  23157257.984                    23157267.754
 108348317.222 8  84427387.85746  20617985.766                    20617990.629
 11  7 27  2 25  0.0000000  0  8G12G10G17G09G05G04G25G02
 109900756.278 8  85637006.69446  20913416.313                    20913422.340
 110286065.663 7  85937286.11446  20986730.797                    20986737.691
 125138801.250 7  97510724.52344  23813067.867                    23813075.332
 129251629.889 6 100715594.22444  24595774.469                    24595784.047
 111727205.807 8  87060248.74046  21260970.953                    21260977.895
 117693976.685 7  91709739.14345  22396404.031                    22396411.543
 121606284.110 7  94758223.70744  23140912.719                    23140922.371
 108360910.975 8  84437201.19046  20620382.539                    20620386.656
 11  7 27  2 25 30.0000000  0  8G12G10G17G09G05G04G25G02
 109870484.525 7  85613418.33946  20907655.508                    20907661.930
 110313647.256 7  85958778.29546  20991979.391                    20991985.680
 125203789.617 6  97561364.81644  23825435.109                    23825442.402
 129336427.335 6 100781670.10244  24611910.789                    24611920.559
 111654482.287 8  87003581.09946  21247131.727                    21247138.668
 117775590.302 7  91773334.15145  22411933.953                    22411941.785
 121520710.366 7  94691542.93145  23124628.422                    23124638.266
 108373746.224 8  84447202.70246  20622824.836                    20622829.508
 11  7 27  2 26  0.0000000  0  8G12G10G17G09G05G04G25G02
 109840756.642 8  85590253.77046  20901998.344                    20902004.719
 110341842.921 7  85980748.96446  20997344.914                    20997351.629
 125268953.426 6  97612141.79444  23837835.109                    23837843.086
 129421206.040 6 100847731.37744  24628043.688                    24628053.883
 111582192.327 8  86947251.29546  21233375.586                    21233382.605
 117857266.496 7  91836977.91345  22427476.922                    22427484.090
 121435461.655 7  94625115.41745  23108405.969                    23108415.723
 108386821.956 8  84457391.58746  20625313.078                    20625317.824
 11  7 27  2 26 30.0000000  0  8G12G10G17G09G05G04G25G02
 109811573.915 8  85567514.00846  20896445.102                    20896451.719
 110370652.172 8  86003197.74946  21002826.867                    21002833.957
 125334293.168 6  97663055.88644  23850268.805                    23850276.418
 129505962.708 6 100913775.49744  24644172.500                    24644182.195
 111510338.578 8  86891261.40646  21219702.250                    21219709.023
 117939003.707 7  91900669.22944  22443031.367                    22443038.891
 121350540.719 7  94558943.30244  23092246.016                    23092255.668
 108400137.024 8  84467766.97946  20627847.039                    20627851.391
 11  7 27  2 27  0.0000000  0  8G12G10G17G09G05G04G25G02
 109782937.603 7  85545200.02046  20890995.820                    20891001.809
 110400073.731 7  86026123.64946  21008425.688                    21008432.363
 125399808.835 7  97714107.03644  23862736.523                    23862743.590
 129590694.774 6 100979800.40943  24660296.523                    24660306.137
 111438923.636 8  86835613.42746  21206112.352                    21206119.086
 118020800.391 7  91964406.88345  22458596.742                    22458603.871
 121265950.219 7  94493028.65944  23076149.164                    23076158.719
 108413690.688 8  84478328.27946  20630426.328                    20630430.613
 11  7 27  2 27 30.0000000  0  8G12G10G17G09G05G04G25G02
 109754849.515 8  85523313.21946  20885651.078                    20885657.566
 110430106.771 7  86049526.03646  21014141.391                    21014147.660
 125465500.501 6  97765295.34744  23875236.742                    23875243.934
 129675399.101 6 101045803.74643  24676414.992                    24676425.094
 111367949.951 8  86780309.30046  21192606.695                    21192613.469
 118102655.304 7  92028189.91845  22474173.125                    22474180.242
 121181692.966 7  94427373.68244  23060115.234                    23060124.785
 108427481.574 8  84489074.44346  20633049.945                    20633054.996
 11  7 27  2 28  0.0000000  0  8G12G10G17G09G05G04G25G02
 109727310.441 8  85501854.22646  20880410.367                    20880416.719
 110460749.573 7  86073403.57246  21019971.813                    21019978.449
 125531368.485 6  97816621.05144  23887770.586                    23887778.691
 129760072.267 6 101111782.77043  24692527.406                    24692537.637
 111297419.280 8  86725350.37846  21179185.195                    21179191.777
 118184566.645 7  92092016.92844  22489760.508                    22489767.332
 121097771.287 7  94361980.17344  23044145.289                    23044154.965
 108441508.338 8  84500004.39546  20635719.266                    20635724.023
 11  7 27  2 28 30.0000000  0  8G12G10G17G09G05G04G25G02
 109700322.255 8  85480824.49646  20875274.633                    20875280.477
 110492001.043 7  86097755.37946  21025919.086                    21025925.617
 125597413.032 6  97868084.31644  23900338.844                    23900346.578
 129844711.117 6 101177735.04243  24708633.984                    24708644.102
 111227334.190 8  86670738.65046  21165847.961                    21165854.785
 118266533.170 7  92155886.95345  22505357.906                    22505365.328
 121014187.907 7  94296850.28244  23028240.406                    23028249.336
 108455769.854 8  84511117.26446  20638433.219                    20638438.000
 11  7 27  2 29  0.0000000  0  8G12G10G17G09G05G04G25G02
 109673885.491 8  85460224.45446  20870243.984                    20870249.641
 110523859.941 7  86122580.50546  21031981.195                    21031988.031
 125663634.135 6  97919685.17644  23912940.375                    23912947.828
 129929312.820 6 101243658.37343  24724732.234                    24724743.156
 111157696.901 8  86616475.86946  21152596.750                    21152603.824
 118348553.212 7  92219798.66445  22520965.820                    22520973.391
 120930945.395 7  94231985.99045  23012399.492                    23012408.891
 108470264.795 8  84522412.03546  20641191.719                    20641196.395
 11  7 27  2 29 30.0000000  0  8G12G10G17G09G05G04G25G02
 109648002.062 8  85440055.57746  20865318.219                    20865324.340
 110556325.483 7  86147878.34646  21038159.320                    21038166.266
 125730032.107 6  97971423.86244  23925575.688                    23925583.137
 130013874.515 5 101309550.51642  24740823.859                    24740834.316
 111088509.972 8  86562564.02346  21139430.906                    21139437.457
 118430625.400 7  92283751.01645  22536583.375                    22536591.109
 120848046.558 7  94167389.48745  22996624.484                    22996633.832
 108484992.405 8  84533888.10846  20643994.477                    20643999.480
 11  7 27  2 30  0.0000000  0  8G12G10G17G09G05G04G25G02
 109622672.598 8  85420318.36646  20860498.391                    20860504.262
 110589395.762 7  86173647.40946  21044452.188                    21044458.844
 125796606.949 7  98023300.37244  23938244.406                    23938251.727
 130098393.079 5 101375408.98242  24756907.508                    24756918.406
 111019775.068 8  86509004.39946  21126350.641                    21126357.254
 118512748.218 7  92347742.81844  22552210.953                    22552218.563
 120765493.663 7  94103062.55245  22980915.172                    22980924.371
 108499951.263 8  84545544.36846  20646840.695                    20646845.160
 11  7 27  2 30 30.0000000  0  8G12G10G17G09G05G04G25G02
 109597898.492 8  85401013.89146  20855784.031                    20855790.066
 110623069.696 7  86199886.85446  21050860.344                    21050866.824
 125863358.926 6  98075314.87944  23950946.141                    23950954.168
 130182865.426 6 101441231.51342  24772982.242                    24772992.523
 110951495.113 8  86455799.28146  21113357.445                    21113364.551
 118594920.316 7  92411773.03144  22567848.258                    22567855.270
 120683289.535 7  94039007.37945  22965272.625                    22965281.926
 108515140.404 8  84557380.08046  20649731.125                    20649735.582
 11  7 27  2 31  0.0000000  0  8G12G10G17G09G05G04G25G02
 109573681.025 8  85382143.16046  20851175.734                    20851181.938
 110657345.776 7  86226595.50946  21057382.852                    21057389.301
 125930288.075 6  98127467.47644  23963682.797                    23963690.086
 130267288.246 6 101507015.47642  24789048.375                    24789057.949
 110883672.019 8  86402950.15346  21100451.242                    21100457.891
 118677140.199 7  92475840.47044  22583493.875                    22583501.484
 120601436.708 7  93975225.95045  22949696.031                    22949705.469
 108530558.664 8  84569394.31746  20652665.047                    20652669.551
 11  7 27  2 31 30.0000000  0  8G12G10G17G09G05G04G25G02
 109550021.574 8  85363707.24546  20846673.039                    20846679.566
 110692223.262 7  86253772.78046  21064019.828                    21064026.402
 125997394.821 6  98179758.42844  23976453.320                    23976459.973
 130351658.618 6 101572758.65642  24805102.852                    24805113.098
 110816308.218 8  86350458.91146  21087632.578                    21087638.688
 118759406.535 7  92539944.10544  22599148.977                    22599156.043
 120519937.904 7  93911720.37945  22934187.500                    22934196.820
 108546204.660 8  84581586.01846  20655642.570                    20655647.254
 11  7 27  2 32  0.0000000  0  8G12G10G17G09G05G04G25G02
 109526921.312 8  85345707.06446  20842277.609                    20842283.629
 110727700.468 7  86281417.36946  21070770.914                    21070777.605
 126064679.224 6  98232187.83643  23989256.836                    23989264.477
 130435973.628 6 101638458.59242  24821148.055                    24821157.680
 110749405.819 8  86298327.20946  21074901.305                    21074907.832
 118841717.841 7  92604082.80144  22614812.242                    22614819.383
 120438795.738 7  93848492.72445  22918746.867                    22918756.117
 108562077.804 8  84593954.71846  20658662.906                    20658667.676
 11  7 27  2 32 30.0000000  0  8G12G10G17G09G05G04G25G02
 109504380.945 8  85328143.16546  20837988.195                    20837994.238
 110763775.560 8  86309527.84246  21077635.727                    21077642.449
 126132141.066 6  98284755.51943  24002093.484                    24002101.617
 130520230.413 6 101704113.19042  24837182.117                    24837191.055
 110682966.905 8  86246556.66546  21062258.195                    21062264.703
 118924072.796 7  92668255.49544  22630483.945                    22630491.340
 120358012.466 7  93785544.72345  22903374.203                    22903383.535
 108578176.192 8  84606498.93646  20661726.383                    20661730.824
 11  7 27  2 33  0.0000000  0  8G12G10G17G09G05G04G25G02
 109482402.339 8  85311016.99746  20833806.016                    20833811.809
 110800448.113 7  86338103.87846  21084614.109                    21084621.309
 126199781.385 6  98337462.24443  24014965.992                    24014973.145
 130604426.527 6 101769720.47843  24853203.859                    24853213.066
 110616994.296 8  86195149.46546  21049704.180                    21049710.406
 119006470.556 7  92732461.56245  22646163.891                    22646170.766
 120277591.570 7  93722879.11345  22888070.664                    22888080.047
 108594499.775 8  84619218.62346  20664832.742                    20664837.207
 11  7 27  2 33 30.0000000  0  7G12G10G17G05G04G25G02
 109460987.281 8  85294329.96146  20829730.227                    20829736.762
 110837717.349 7  86367144.85746  21091706.586                    21091713.313
 126267600.952 6  98390308.66543  24027871.563                    24027879.016
 110551490.688 8  86144107.73246  21037239.203                    21037245.523
 119088910.274 7  92796700.32344  22661851.078                    22661858.957
 120197536.207 7  93660498.32845  22872836.609                    22872846.098
 108611047.994 8  84632113.35746  20667981.313                    20667986.242
 11  7 27  2 34  0.0000000  0  7G12G10G17G05G04G25G02
 109440135.341 8  85278081.71946  20825762.750                    20825768.965
 110875580.191 7  86396648.38946  21098911.523                    21098918.348
 126335598.077 6  98443293.45243  24040810.617                    24040817.797
 110486456.902 8  86093432.08546  21024863.953                    21024870.449
 119171389.421 7  92860969.79145  22677545.859                    22677554.063
 120117847.443 7  93598403.22345  22857672.156                    22857681.238
 108627818.081 8  84645180.96546  20671172.734                    20671177.336
 11  7 27  2 34 30.0000000  0  7G12G10G17G05G04G25G02
 109419847.767 8  85262273.23846  20821902.039                    20821907.824
 110914035.104 8  86426613.26446  21106229.156                    21106235.852
 126403773.103 6  98496416.88343  24053783.906                    24053791.309
 110421895.109 8  86043124.23946  21012578.117                    21012584.414
 119253906.429 7  92925268.73144  22693248.906                    22693256.484
 120038527.871 7  93536595.79245  22842577.898                    22842587.523
 108644809.193 8  84658420.82146  20674406.008                    20674410.449
 11  7 27  2 35  0.0000000  0  7G12G10G17G05G04G25G02
 109400125.261 8  85246905.07346  20818148.750                    20818154.832
 110953080.708 8  86457038.41846  21113659.477                    21113666.688
 126472126.258 6  98549679.05743  24066790.625                    24066799.188
 110357807.457 8  85993185.85046  21000382.641                    21000388.594
 119336460.075 7  92989596.24744  22708958.359                    22708965.422
 119959580.121 7  93475078.09545  22827554.766                    22827564.500
 108662020.276 8  84671832.08046  20677681.469                    20677685.613
 11  7 27  2 35 30.0000000  0  7G12G10G17G05G04G25G02
 109380968.939 8  85231978.08446  20814503.430                    20814509.480
 110992715.554 8  86487922.73646  21121201.641                    21121208.543
 126540657.517 6  98603080.05743  24079832.094                    24079839.543
 110294196.150 8  85943618.62946  20988277.430                    20988283.699
 119419048.966 7  93053951.24344  22724674.180                    22724681.754
 119881006.801 7  93413852.15845  22812602.898                    22812612.902
 108679450.123 8  84685413.80346  20680998.172                    20681002.703
 11  7 27  2 36  0.0000000  0  7G12G10G17G05G04G25G02
 109362379.608 8  85217492.91346  20810965.813                    20810972.188
 111032937.837 7  86519264.78346  21128855.539                    21128862.527
 126609367.037 6  98656619.95744  24092907.031                    24092913.996
 110231062.921 8  85894423.95346  20976263.539                    20976270.184
 119501671.875 7  93118332.73144  22740397.094                    22740404.730
 119802810.231 7  93352919.79545  22797722.219                    22797732.133
 108697097.253 8  84699164.83546  20684356.586                    20684360.574
 11  7 27  2 36 30.0000000  0  7G12G10G17G05G04G25G02
 109344358.663 8  85203450.63846  20807536.945                    20807542.699
 111073746.177 8  86551063.51445  21136620.859                    21136627.473
 126678254.900 6  98710298.79044  24106017.133                    24106023.883
 110168409.825 8  85845603.39546  20964340.977                    20964347.645
 119584327.379 7  93182739.61444  22756125.711                    22756133.316
 119724993.068 7  93292283.08445  22782914.500                    22782923.840
 108714960.922 8  84713084.61546  20687755.648                    20687760.078
 11  7 27  2 37  0.0000000  0  7G12G10G17G05G04G25G02
 109326906.510 8  85189851.58446  20804215.578                    20804221.621
 111115138.926 8  86583317.61846  21144497.734                    21144504.641
 126747321.252 6  98764116.72344  24119158.680                    24119166.293
 110106239.207 8  85797158.80946  20952510.547                    20952517.137
 119667014.189 7  93247170.89944  22771860.766                    22771868.012
 119647557.859 7  93231943.98745  22768178.773                    22768188.609
 108733039.958 8  84727172.19046  20691195.852                    20691200.809
 11  7 27  2 37 30.0000000  0  7G12G10G17G05G04G25G02
 109310024.767 8  85176696.99546  20801003.086                    20801008.969
 111157114.784 8  86616026.09046  21152485.734                    21152492.688
 126816566.081 6  98818073.74244  24132335.883                    24132342.680
 110044553.331 8  85749091.92746  20940772.000                    20940778.344
 119749731.379 7  93311625.85444  22787601.453                    22787608.656
 119570507.441 7  93171904.71945  22753517.188                    22753525.953
 108751333.561 8  84741426.96046  20694676.977                    20694681.551
 11  7 27  2 38  0.0000000  0  7G12G10G17G05G04G25G02
 109293713.693 8  85163987.08946  20797899.523                    20797905.168
 111199671.498 8  86649187.19046  21160584.031                    21160590.477
 126885989.216 6  98872169.70044  24145547.117                    24145553.773
 109983354.090 8  85701404.24146  20929126.016                    20929132.844
 119832477.339 7  93376103.23744  22803346.906                    22803354.488
 119493844.019 7  93112167.01145  22738927.922                    22738937.660
 108769840.215 8  84755847.75646  20698198.617                    20698203.223
 11  7 27  2 38 30.0000000  0  7G12G10G17G05G04G25G02
 109277974.272 8  85151722.63246  20794904.133                    20794909.949
 111242807.905 8  86682799.98646  21168792.625                    21168799.297
 126955591.154 6  98926404.95144  24158791.852                    24158799.348
 109922643.071 8  85654097.00046  20917572.969                    20917579.723
 119915250.891 7  93440602.12044  22819098.219                    22819105.488
 119417570.137 7  93052732.85545  22724413.711                    22724422.750
 108788558.792 8  84770433.68346  20701760.828                    20701765.109
 11  7 27  2 39  0.0000000  0  7G12G10G17G05G04G25G02
 109262807.859 8  85139904.66446  20792018.430                    20792024.254
 111286522.547 8  86716863.37445  21177110.992                    21177117.488
 127025371.930 6  98980779.60444  24172070.664                    24172078.309
 109862422.977 8  85607172.28546  20906113.320                    20906120.137
 119998051.013 7  93505121.70044  22834855.219                    22834862.648
 119341688.653 7  92993604.47145  22709974.047                    22709983.633
 108807488.880 8  84785184.42946  20705362.742                    20705367.332
 11  7 27  2 39 30.0000000  0  7G12G10G17G05G04G25G02
 109248214.617 8  85128533.33346  20789240.945                    20789247.070
 111330812.938 8  86751375.38945  21185539.500                    21185546.219
 127095331.327 6  99035293.40644  24185383.406                    24185390.660
 109802694.784 8  85560630.86946  20894747.742                    20894754.246
 120080876.037 7  93569660.68344  22850616.031                    22850623.473
 119266201.548 7  92934783.40445  22695609.445                    22695618.902
 108826628.582 8  84800098.50346  20709005.273                    20709009.508
 11  7 27  2 40  0.0000000  0  7G12G10G17G05G04G25G02
 109234195.198 8  85117609.12546  20786573.141                    20786579.125
 111375677.489 7  86786334.79546  21194076.867                    21194082.871
 127165469.301 7  99089946.36444  24198729.664                    24198737.359
 109743460.694 8  85514474.47746  20883475.633                    20883482.086
 120163724.650 7  93634218.00644  22866381.781                    22866388.828
 119191111.322 7  92876271.59745  22681319.930                    22681329.191
 108845976.507 8  84815174.83446  20712686.820                    20712690.797
 11  7 27  2 40 30.0000000  0  7G12G10G17G05G04G25G02
 109220750.948 7  85107133.09846  20784015.023                    20784020.902
 111421114.827 8  86821740.55446  21202723.016                    21202729.512
 127235786.105 6  99144738.69344  24212111.109                    24212118.309
 109684723.457 8  85468705.23746  20872298.289                    20872304.805
 120246596.113 7  93698793.15944  22882151.195                    22882159.133
 119116420.908 7  92818071.34045  22667106.680                    22667116.281
 108865532.590 8  84830413.36346  20716408.297                    20716412.758
 11  7 27  2 41  0.0000000  0  7G12G10G17G05G04G25G02
 109207882.569 8  85097105.81146  20781566.180                    20781572.086
 111467123.346 8  86857591.35245  21211478.383                    21211485.008
 127306281.790 6  99199670.38644  24225526.586                    24225533.406
 109626484.609 8  85423324.35246  20861215.898                    20861222.379
 120329489.337 7  93763385.25844  22897925.789                    22897932.613
 119042132.731 7  92760184.52345  22652970.313                    22652979.492
 108885295.481 8  84845813.03946  20720169.078                    20720173.031
 11  7 27  2 41 30.0000000  0  7G12G10G17G05G04G25G02
 109195590.324 8  85087527.45446  20779227.055                    20779232.629
 111513700.530 7  86893885.28945  21220341.320                    21220348.336
 127376956.132 6  99254741.32744  24238974.992                    24238982.223
 109568745.636 8  85378332.97946  20850228.516                    20850234.945
 120412402.629 7  93827992.98444  22913703.516                    22913710.895
 118968248.823 7  92702612.73145  22638910.523                    22638919.563
 108905263.577 8  84861372.60046  20723968.984                    20723973.035
 11  7 27  2 42  0.0000000  0  7G12G10G17G05G04G25G02
 109183875.382 8  85078398.94446  20776997.703                    20777004.113
 111560844.998 8  86930621.25045  21229312.875                    21229319.516
 127447809.282 6  99309951.55343  24252457.695                    24252465.668
 109511508.576 8  85333732.71146  20839336.438                    20839343.328
 120495334.948 7  93892615.54844  22929485.039                    22929492.277
 118894772.056 7  92645358.19845  22624928.367                    22624937.660
 108925436.352 8  84877091.66546  20727807.945                    20727812.035
 11  7 27  2 42 30.0000000  0  8G12G10G17G29G05G04G25G02
 109172737.994 8  85069720.47246  20774878.336                    20774884.422
 111608554.679 7  86967797.65245  21238391.664                    21238398.688
 127518841.037 6  99365300.97443  24265974.352                    24265982.316
 129510961.60615 100917686.85852  24645120.906                    24645129.719
 109454775.235 8  85289524.95046  20828540.469                    20828546.523
 120578285.126 7  93957252.02144  22945269.992                    22945277.492
 118821704.588 7  92588422.59445  22611023.594                    22611033.070
 108945812.354 8  84892969.08646  20731685.250                    20731689.324
 11  7 27  2 43  0.0000000  0  8G12G10G17G29G05G04G25G02
 109162179.418 8  85061493.02846  20772868.672                    20772875.035
 111656828.123 7  87005413.34146  21247578.047                    21247584.305
 127590051.771 6  99420789.89743  24279525.766                    24279532.781
 129430751.494 5 100855185.55942  24629856.477                    24629866.172
 109398547.534 7  85245711.18346  20817840.859                    20817846.836
 120661252.120 7  94021901.59044  22961057.719                    22961065.617
 118749049.125 7  92531808.03545  22597198.055                    22597207.227
 108966390.743 8  84909004.21246  20735600.852                    20735605.414
 11  7 27  2 43 30.0000000  0  8G12G10G17G29G05G04G25G02
 109152199.575 8  85053716.53446  20770969.352                    20770975.930
 111705662.550 7  87043466.15646  21256870.930                    21256877.453
 127661441.259 6  99476418.06243  24293110.477                    24293118.012
 129350473.380 5 100792631.24243  24614580.969                    24614589.363
 109342827.010 8  85202292.63546  20807237.406                    20807244.027
 120744234.515 7  94086563.18644  22976849.211                    22976856.688
 118676807.760 7  92475516.15945  22583451.016                    22583460.020
 108987170.216 8  84925196.02046  20739555.078                    20739559.543
 11  7 27  2 44  0.0000000  0  8G12G10G17G29G05G04G25G02
 109142798.938 8  85046391.36946  20769181.078                    20769186.980
 111755056.508 7  87081954.96746  21266269.914                    21266276.488
 127733009.245 6  99532185.30443  24306728.945                    24306736.684
 129270127.851 6 100730024.40143  24599292.273                    24599300.465
 109287615.553 8  85159270.75146  20796731.398                    20796737.359
 120827231.149 7  94151235.88844  22992641.875                    22992649.797
 118604983.036 7  92419548.91845  22569782.781                    22569792.195
 109008149.661 8  84941543.65146  20743547.734                    20743552.168
 11  7 27  2 44 30.0000000  0  8G12G10G17G29G05G04G25G02
 109133978.187 8  85039518.06746  20767502.305                    20767508.758
 111805007.901 7  87120878.12545  21275775.320                    21275782.027
 127804755.931 5  99588091.82643  24320382.203                    24320390.141
 129189714.960 6 100667365.06443  24583989.578                    24583998.043
 109232915.006 7  85116646.99046  20786321.844                    20786328.320
 120910240.795 6  94215918.70944  23008438.891                    23008446.242
 118533577.163 7  92363908.05745  22556194.773                    22556204.309
 109029327.678 8  84958046.01646  20747577.336                    20747581.430
 11  7 27  2 45  0.0000000  0  8G12G10G17G29G05G04G25G02
 109125738.110 8  85033097.23646  20765934.359                    20765940.637
 111855515.023 7  87160234.32345  21285386.672                    21285393.184
 127876681.226 6  99644137.56343  24334069.031                    24334076.688
 129109235.768 6 100604654.05643  24568675.711                    24568683.875
 109178727.243 8  85074422.79446  20776010.234                    20776016.426
 120993262.746 6  94280611.13844  23024237.438                    23024244.543
 118462592.870 7  92308595.69945  22542687.227                    22542696.348
 109050703.788 8  84974702.74046  20751645.133                    20751649.891
 11  7 27  2 45 30.0000000  0  8G12G10G17G29G05G04G25G02
 109118079.047 8  85027129.14246  20764477.203                    20764482.926
 111906576.054 7  87200022.14745  21295103.164                    21295110.031
 127948785.035 6  99700322.35143  24347789.453                    24347797.348
 129028690.764 6 100541891.76544  24553347.883                    24553356.813
 109125053.887 8  85032599.43446  20765796.469                    20765802.883
 121076295.550 7  94345312.00344  23040037.813                    23040044.867
 118392032.430 7  92253613.62145  22529259.563                    22529268.746
 109072276.903 8  84991512.97746  20755750.453                    20755754.516
 11  7 27  2 46  0.0000000  0  8G12G10G17G29G05G04G25G02
 109111001.712 8  85021614.34546  20763130.188                    20763136.191
 111958188.480 7  87240239.63145  21304924.594                    21304931.281
 128021067.228 6  99756646.11643  24361545.672                    24361551.383
 128948080.285 6 100479078.47744  24538008.648                    24538016.887
 109071896.536 8  84991178.15646  20755680.836                    20755687.645
 121159338.046 7  94410020.46044  23055840.719                    23055847.797
 118321898.067 7  92198963.52745  22515913.336                    22515922.359
 109094045.595 8  85008475.61146  20759892.773                    20759897.023
 11  7 27  2 46 30.0000000  0  8G12G10G17G29G05G04G25G02
 109104506.193 8  85016552.91146  20761894.063                    20761900.223
 112010350.439 7  87280885.31545  21314850.375                    21314857.438
 128093527.842 6  99813108.93943  24375334.203                    24375341.285
 128867404.856 7 100416214.56544  24522656.500                    24522664.844
 109019256.608 8  84950160.06246  20745663.930                    20745670.055
 121242389.171 6  94474735.59644  23071644.531                    23071652.176
 118252192.266 7  92144647.37745  22502648.906                    22502657.797
 109116008.972 8  85025589.93546  20764072.484                    20764076.375
 11  7 27  2 47  0.0000000  0  8G12G10G17G29G05G04G25G02
 109098593.556 7  85011945.67046  20760768.875                    20760774.785
 112063060.075 7  87321957.75845  21324880.953                    21324887.352
 128166166.950 6  99869710.90043  24389156.672                    24389164.070
 128786664.870 6 100353300.37444  24507292.109                    24507300.133
 108967136.373 8  84909546.92146  20735746.039                    20735752.129
 121325448.165 7  94539456.86244  23087450.641                    23087458.051
 118182917.556 7  92090667.14945  22489466.188                    22489475.531
 109138166.355 7  85042855.43646  20768288.641                    20768292.973
 11  7 27  2 47 30.0000000  0  8G12G10G17G29G05G04G25G02
 109093263.763 7  85007792.59946  20759754.875                    20759760.594
 112116315.123 7  87363455.20145  21335015.352                    21335022.156
 128238984.159 6  99926451.58443  24403013.016                    24403020.320
 128705861.308 7 100290336.62344  24491915.703                    24491923.883
 108915536.988 8  84869339.65546  20725926.727                    20725932.980
 121408513.520 6  94604183.11644  23103256.695                    23103264.371
 118114075.867 7  92037024.34145  22476366.000                    22476374.719
 109160516.171 8  85060270.89246  20772541.773                    20772545.910
 11  7 27  2 48  0.0000000  0  8G12G10G17G29G05G04G25G02
 109088516.832 7  85004093.69746  20758851.125                    20758857.176
 112170113.552 7  87405376.05145  21345253.125                    21345259.035
 128311979.329 6  99983330.95443  24416903.625                    24416910.746
 128624994.651 6 100227323.69344  24476527.445                    24476535.402
 108864460.046 8  84829539.45646  20716206.961                    20716212.996
 121491584.005 6  94668913.35444  23119065.320                    23119072.445
 118045669.573 7  91983720.78145  22463348.320                    22463357.844
 109183057.253 7  85077835.38646  20776831.266                    20776835.027
 11  7 27  2 48 30.0000000  0  8G12G10G17G29G05G04G25G02
 109084353.537 8  85000849.57746  20758059.195                    20758065.109
 112224453.818 7  87447719.13045  21355593.367                    21355599.746
 128385152.572 6 100040349.09343  24430828.781                    24430835.375
 128544065.677 6 100164262.21743  24461127.469                    24461135.379
 108813907.644 8  84790148.01746  20706587.297                    20706593.723
 121574659.008 7  94733647.14044  23134873.453                    23134881.051
 117977701.336 7  91930758.56345  22450414.797                    22450423.906
 109205789.006 8  85095548.45846  20781156.930                    20781160.898
 11  7 27  2 49  0.0000000  0  8G12G10G17G29G05G04G25G02
 109080774.174 8  84998060.47246  20757377.594                    20757383.891
 112279333.424 7  87490482.45945  21366036.617                    21366042.879
 128458503.847 6 100097506.01043  24444786.555                    24444793.297
 128463074.717 6 100101152.47343  24445714.055                    24445723.074
 108763881.029 8  84751166.26546  20697067.383                    20697073.367
 121657737.522 7  94798383.63744  23150683.000                    23150690.352
 117910173.371 7  91878139.41245  22437564.352                    22437573.734
 109228710.351 8  85113409.26846  20785518.438                    20785522.840
 11  7 27  2 49 30.0000000  0  8G12G10G17G29G05G04G25G02
 109077779.139 7  84995726.69146  20756808.125                    20756814.027
 112334749.815 7  87533664.06745  21376581.977                    21376588.656
 128532032.991 6 100154801.41644  24458778.484                    24458785.688
 128382022.369 6 100037994.89543  24430291.195                    24430298.793
 108714381.553 8  84712595.26646  20687647.875                    20687654.238
 121740818.268 7  94863121.88044  23166492.734                    23166500.484
 117843087.878 7  91825865.03445  22424798.672                    22424807.773
 109251820.110 8  85131416.88646  20789916.234                    20789920.336
 11  7 27  2 50  0.0000000  0  8G12G10G17G29G05G04G25G02
 109075368.347 8  84993848.16146  20756349.258                    20756355.121
 112390700.947 7  87577262.35545  21387229.297                    21387235.418
 128605739.614 6 100212235.14943  24472804.352                    24472811.984
 128300909.381 6  99974790.05043  24414855.375                    24414863.523
 108665410.903 8  84674436.35046  20678329.383                    20678335.551
 121823900.062 7  94927860.93444  23182302.508                    23182310.406
 117776446.982 7  91773937.09445  22412117.516                    22412126.273
 109275117.077 8  85149570.37946  20794349.641                    20794353.832
 11  7 27  2 50 30.0000000  0  8G12G10G17G29G05G04G25G02
 109073542.343 7  84992425.30946  20756001.898                    20756007.871
 112447185.107 7  87621276.00545  21397977.438                    21397984.207
 128679623.839 6 100269807.27943  24486864.023                    24486871.441
 128219736.406 6  99911538.50543  24399408.484                    24399417.102
 108616970.674 8  84636690.73546  20669111.281                    20669117.332
 121906982.085 7  94992600.19344  23198112.719                    23198120.051
 117710253.232 8  91722357.57145  22399521.102                    22399529.574
 109298600.463 8  85167869.13646  20798818.156                    20798822.605
 11  7 27  2 51  0.0000000  0  8G12G10G17G29G05G04G25G02
 109072301.840 8  84991458.69046  20755765.570                    20755771.980
 112504200.113 7  87665703.29245  21408827.375                    21408833.805
 128753685.429 6 100327517.64043  24500957.656                    24500964.910
 128138504.078 6  99848240.64743  24383950.859                    24383958.324
 108569062.640 8  84599359.83146  20659994.594                    20660001.242
 121990063.429 7  95057338.93444  23213922.430                    23213929.488
 117644508.816 7  91671128.17545  22387010.086                    22387019.223
 109322269.181 8  85186312.30446  20803322.391                    20803326.426
 11  7 27  2 51 30.0000000  0  8G12G10G17G29G05G04G25G02
 109071646.282 8  84990947.87646  20755641.102                    20755647.164
 112561743.852 7  87710542.56745  21419777.813                    21419784.039
 128827924.458 6 100385366.27843  24515084.867                    24515092.016
 128057213.206 6  99784897.17343  24368481.570                    24368489.051
 108521687.991 8  84562444.55246  20650979.680                    20650985.926
 122073143.068 7  95122076.32944  23229731.742                    23229739.121
 117579216.127 7  91620250.77845  22374584.992                    22374594.598
 109346122.456 8  85204899.29246  20807861.031                    20807865.613
 11  7 27  2 52  0.0000000  0  7G12G10G29G05G04G25G02
 109071576.156 8  84990893.22546  20755627.938                    20755633.645
 112619813.853 7  87755791.93245  21430827.938                    21430834.320
 127975864.279 6  99721508.49743  24353001.445                    24353008.242
 108474848.282 8  84525946.09746  20642066.164                    20642072.762
 122156220.024 7  95186811.64544  23245540.547                    23245548.203
 117514377.427 7  91569727.13445  22362246.898                    22362255.887
 109370159.070 8  85223629.14546  20812435.523                    20812439.516
 11  7 27  2 52 30.0000000  0  7G12G10G29G05G04G25G02
 109072091.904 8  84991295.11046  20755726.063                    20755731.840
 112678407.989 7  87801449.70745  21441978.078                    21441984.238
 127894458.253 6  99658075.31443  24337509.828                    24337517.719
 108428545.117 8  84489865.73946  20633255.039                    20633261.438
 122239293.457 7  95251544.20444  23261349.398                    23261356.379
 117449995.044 7  91519559.06645  22349995.141                    22350004.680
 109394378.458 8  85242501.40146  20817044.328                    20817048.281
 11  7 27  2 53  0.0000000  0  7G12G10G29G05G04G25G02
 109073192.957 8  84992153.07746  20755935.266                    20755941.164
 112737523.290 7  87847513.59345  21453227.039                    21453233.738
 127812995.000 6  99594597.54443  24322008.133                    24322016.398
 108382779.159 8  84454203.97546  20624545.836                    20624552.438
 122322361.794 7  95316272.80544  23277156.242                    23277163.973
 117386070.429 7  91469747.69545  22337831.219                    22337839.957
 109418778.519 8  85261514.43946  20821687.297                    20821691.316
 11  7 27  2 53 30.0000000  0  7G12G10G29G05G04G25G02
 109074879.600 8  84993467.34646  20756256.445                    20756262.488
 112797157.876 7  87893982.11745  21464575.070                    21464581.902
 127731475.533 6  99531075.99343  24306495.438                    24306503.180
 108337551.857 8  84418961.95146  20615939.242                    20615946.039
 122405424.119 6  95380996.69744  23292962.984                    23292970.246
 117322606.051 7  91420294.95545  22325754.289                    22325762.781
 109443358.424 8  85280667.63646  20826364.789                    20826368.590
 11  7 27  2 54  0.0000000  0  7G12G10G29G05G04G25G02
 109077152.240 8  84995238.23746  20756688.422                    20756694.633
 112857309.731 7  87940853.69845  21476021.883                    21476028.055
 127649900.874 6  99467511.43944  24290971.375                    24290979.848
 108292865.016 8  84384141.07146  20607435.594                    20607441.715
 122488479.849 7  95445715.45044  23308768.164                    23308775.293
 117259604.432 7  91371202.81045  22313765.148                    22313773.977
 109468117.890 8  85299960.73946  20831076.555                    20831080.484
 11  7 27  2 54 30.0000000  0  7G12G10G29G05G04G25G02
 109080010.614 8  84997465.54146  20757232.813                    20757238.895
 112917976.475 7  87988126.50245  21487566.531                    21487572.930
 127568271.446 6  99403904.18744  24275438.734                    24275446.633
 108248719.878 8  84349742.27946  20599035.172                    20599041.086
 122571527.945 7  95510428.26244  23324571.648                    23324578.977
 117197067.548 7  91322472.80845  22301864.914                    22301873.980
 109493055.609 8  85319392.73146  20835821.680                    20835825.645
 11  7 27  2 55  0.0000000  0  7G12G10G29G05G04G25G02
 109083455.179 8  85000149.61946  20757888.172                    20757894.203
 112979156.108 7  88035798.94945  21499207.930                    21499214.664
 127486588.058 7  99340254.87444  24259894.375                    24259902.918
 108205118.007 8  84315766.83046  20590737.742                    20590744.484
 122654567.754 6  95575134.60744  23340372.867                    23340380.496
 117134997.976 7  91274106.94045  22290053.234                    22290062.289
 109518171.036 8  85338963.20946  20840601.102                    20840605.191
 11  7 27  2 55 30.0000000  0  7G12G10G29G05G04G25G02
 109087484.964 8  85003289.70946  20758654.773                    20758660.668
 113040845.355 7  88083868.51045  21510947.398                    21510954.094
 127404851.243 6  99276563.93244  24244340.555                    24244348.020
 108162060.029 8  84282215.18546  20582544.422                    20582550.754
 122737597.611 7  95639833.19744  23356173.414                    23356180.672
 117073396.947 7  91226106.17546  22278331.234                    22278340.191
 109543462.189 8  85358670.61346  20845414.086                    20845417.668
 11  7 27  2 56  0.0000000  0  7G12G10G29G05G04G25G02
 109092100.526 8  85006886.24146  20759533.578                    20759539.164
 113103042.407 7  88132333.76845  21522783.469                    21522790.082
 127323061.727 7  99212831.88844  24228776.508                    24228784.523
 108119547.505 8  84249088.56546  20574454.406                    20574460.902
 122820616.926 7  95704523.58644  23371971.617                    23371978.418
 117012267.027 7  91178472.50545  22266698.805                    22266707.918
 109568928.436 8  85378514.45746  20850259.648                    20850264.066
 11  7 27  2 56 30.0000000  0  7G12G10G29G05G04G25G02
 109097301.468 8  85010938.91446  20760523.102                    20760529.266
 113165744.749 7  88181192.74745  21534714.609                    21534721.418
 127241220.297 6  99149059.41544  24213202.477                    24213210.727
 108077581.619 8  84216387.90346  20566468.664                    20566475.055
 122903624.788 7  95769205.06244  23387767.016                    23387774.762
 116951610.241 8  91131207.52545  22255155.883                    22255164.859
 109594568.813 8  85398493.99246  20855138.719                    20855143.129
 11  7 27  2 57  0.0000000  0  7G12G10G29G05G04G25G02
 109103088.556 8  85015448.33246  20761624.289                    20761630.324
 113228950.473 7  88230443.97645  21546742.664                    21546749.063
 127159328.153 6  99085247.39544  24197618.820                    24197626.738
 108036163.844 8  84184114.33946  20558587.242                    20558593.375
 122986620.585 6  95833877.12244  23403560.813                    23403568.328
 116891429.050 8  91084313.13545  22243703.648                    22243712.855
 109620382.908 8  85418608.88246  20860051.313                    20860055.840
 11  7 27  2 57 30.0000000  0  7G12G10G29G05G04G25G02
 109109461.031 8  85020413.89346  20762836.766                    20762842.750
 113292656.799 7  88280085.27945  21558865.391                    21558872.082
 127077385.665 6  99021396.13644  24182025.602                    24182033.500
 107995295.136 8  84152268.61546  20550810.141                    20550816.184
 123069603.095 6  95898538.82844  23419352.492                    23419358.980
 116831725.268 8  91037790.75845  22232342.289                    22232351.609
 109646369.243 8  85438857.98546  20864996.430                    20865000.594
 11  7 27  2 58  0.0000000  0  7G12G10G29G05G04G25G02
 109116418.789 8  85025835.51546  20764161.148                    20764166.824
 113356861.174 7  88330114.67745  21571083.297                    21571089.836
 126995393.545 6  98957506.19444  24166423.203                    24166431.086
 107954976.850 8  84120851.78746  20543137.805                    20543143.906
 123152571.469 6  95963189.50544  23435140.188                    23435148.035
 116772500.936 8  90991641.97545  22221072.313                    22221080.906
 109672526.889 8  85459240.58946  20869974.445                    20869978.164
 11  7 27  2 58 30.0000000  0  7G12G10G29G05G04G25G02
 109123961.341 8  85031712.82846  20765596.164                    20765602.359
 113421560.885 7  88380530.05145  21583395.055                    21583401.980
 126913352.263 6  98893577.94844  24150810.805                    24150819.035
 107915209.734 8  84089864.44846  20535570.422                    20535576.438
 123235524.679 6  96027828.38344  23450925.375                    23450933.441
 116713757.821 8  90945868.16645  22209893.820                    22209902.691
 109698854.363 8  85479755.51546  20874983.969                    20874988.051
 11  7 27  2 59  0.0000000  0  7G12G10G29G05G04G25G02
 109132089.368 8  85038046.34646  20767143.258                    20767149.121
 113486754.284 7  88431330.11245  21595800.898                    21595807.422
 126831263.352 6  98829612.59244  24135189.594                    24135198.453
 107875995.347 8  84059307.81146  20528107.727                    20528113.930
 123318462.457 6  96092455.24343  23466708.570                    23466715.977
 116655498.593 8  90900471.40145  22198807.836                    22198816.578
 109725351.821 8  85500402.89746  20880026.281                    20880030.523
 11  7 27  2 59 30.0000000  0  7G12G10G29G05G04G25G02
 109140802.407 8  85044835.72346  20768801.094                    20768807.051
 113552439.198 7  88482513.17845  21608300.055                    21608307.238
 126749127.686 6  98765610.80343  24119559.992                    24119568.469
 107837335.099 8  84029182.96746  20520751.023                    20520757.297
 123401383.960 6  96157069.39343  23482487.234                    23482495.145
 116597725.351 8  90855453.33246  22187813.359                    22187822.809
 109752018.303 8  85521181.99046  20885100.758                    20885104.820
 11  7 27  3  0  0.0000000  0  7G12G10G29G05G04G25G02
 109150099.961 8  85052080.55946  20770570.250                    20770576.168
 113618612.232 7  88534076.59545  21620892.719                    21620899.516
 126666945.277 6  98701572.56543  24103921.195                    24103929.488
 107799229.229 8  83999490.10046  20513500.156                    20513506.527
 123484287.689 7  96221669.71843  23498263.406                    23498270.484
 116540439.440 8  90810815.00646  22176911.984                    22176921.184
 109778851.838 8  85542091.25246  20890206.750                    20890211.090
 11  7 27  3  0 30.0000000  0  7G12G10G29G05G04G25G02
 109159981.507 8  85059780.46046  20772450.680                    20772456.633
 113685271.055 7  88586018.53945  21633576.914                    21633584.430
 126584717.331 6  98637498.86243  24088272.891                    24088281.559
 107761679.098 8  83970230.28046  20506354.500                    20506360.516
 123567173.100 7  96286255.76143  23514036.172                    23514042.609
 116483643.096 8  90766558.15145  22166104.313                    22166113.156
 109805851.997 8  85563130.34546  20895345.133                    20895349.297
 11  7 27  3  1  0.0000000  0  7G12G10G29G05G04G25G02
 109170447.202 8  85067935.55146  20774442.117                    20774448.387
 113752413.818 7  88638337.58045  21646354.055                    21646360.910
 126502444.919 6  98573390.51543  24072617.891                    24072626.039
 107724686.071 8  83941404.56746  20499314.703                    20499320.813
 123650039.501 7  96350827.01443  23529804.914                    23529812.211
 116427338.568 8  90722684.53945  22155389.797                    22155398.852
 109833018.080 8  85584298.73946  20900514.313                    20900518.652
 11  7 27  3  1 30.0000000  0  7G12G10G29G05G04G25G02
 109181496.466 8  85076545.35346  20776545.055                    20776551.020
 113820037.103 7  88691031.04445  21659222.703                    21659229.547
 126420128.204 6  98509247.65244  24056953.844                    24056961.035
 107688250.500 8  83913013.23146  20492381.336                    20492387.910
 123732885.699 7  96415382.52243  23545570.477                    23545577.258
 116371527.222 8  90679195.21545  22144769.328                    22144777.973
 109860348.394 8  85605595.09146  20905715.305                    20905719.645
 11  7 27  3  2  0.0000000  0  7G12G10G29G05G04G25G02
 109193128.827 8  85085609.52346  20778758.508                    20778764.098
 113888138.662 7  88744097.18845  21672181.461                    21672188.352
 126337768.286 6  98445071.11643  24041281.047                    24041288.449
 107652373.624 8  83885057.25046  20485554.211                    20485560.590
 123815711.050 6  96479921.77944  23561331.758                    23561338.246
 116316211.131 8  90636091.79846  22134242.906                    22134252.191
 109887842.297 8  85627018.92546  20910947.117                    20910951.363
 11  7 27  3  2 30.0000000  0  7G12G10G29G05G04G25G02
 109205343.872 8  85095127.74146  20781082.977                    20781088.980
 113956716.228 7  88797534.26345  21685231.578                    21685238.172
 126255366.155 6  98380861.67343  24025600.375                    24025607.633
 107617056.517 8  83857537.44446  20478833.508                    20478839.641
 123898514.928 6  96544444.28343  23577088.367                    23577095.547
 116261392.370 8  90593375.91945  22123810.898                    22123820.250
 109915499.142 8  85648569.72046  20916209.898                    20916214.141
 11  7 27  3  3  0.0000000  0  7G12G10G29G05G04G25G02
 109218141.963 7  85105100.28046  20783518.266                    20783524.180
 114025767.230 7  88851340.23645  21698371.492                    21698378.402
 126172923.176 6  98316620.44244  24009911.734                    24009919.727
 107582300.104 8  83830454.54746  20472219.703                    20472225.844
 123981296.534 7  96608949.44643  23592841.648                    23592848.316
 116207073.111 8  90551049.25646  22113474.320                    22113483.734
 109943318.269 8  85670246.97846  20921503.664                    20921507.754
 11  7 27  3  3 30.0000000  0  7G12G10G29G05G04G25G02
 109231521.903 8  85115526.20146  20786064.305                    20786070.711
 114095288.933 7  88905513.00845  21711601.078                    21711607.699
 126090439.973 7  98252347.86744  23994216.039                    23994223.520
 107548105.096 8  83803809.11346  20465712.586                    20465718.297
 124064054.945 7  96673436.52943  23608589.750                    23608596.844
 116153255.051 7  90509113.13346  22103233.273                    22103242.266
 109971298.428 8  85692049.70646  20926827.977                    20926832.078
 11  7 27  3  4  0.0000000  0  7G12G10G29G05G04G25G02
 109245483.371 8  85126405.27146  20788720.969                    20788727.371
 114165278.777 7  88960050.55745  21724919.758                    21724926.449
 126007916.999 7  98188044.32044  23978512.563                    23978520.043
 107514472.589 8  83777601.98446  20459312.539                    20459318.414
 124146789.384 7  96737904.91143  23624333.391                    23624341.301
 116099939.890 8  90467568.88845  22093087.688                    22093096.500
 109999438.561 8  85713977.09246  20932182.875                    20932187.094
 11  7 27  3  4 30.0000000  0  7G12G10G29G05G04G25G02
 109260025.754 8  85137736.99746  20791488.883                    20791494.719
 114235734.313 7  89014950.96845  21738327.125                    21738333.852
 125925355.028 6  98123710.35544  23962801.273                    23962809.008
 107481403.509 8  83751833.89246  20453019.406                    20453025.316
 124229499.204 6  96802354.11343  23640072.578                    23640080.422
 116047129.568 8  90426418.01545  22083038.297                    22083047.453
 110027737.772 8  85736028.43846  20937568.180                    20937572.555
 11  7 27  3  5  0.0000000  0  7G12G10G29G05G04G25G02
 109275148.666 8  85149521.08046  20794366.336                    20794372.434
 114306652.926 7  89070212.22845  21751822.492                    21751829.043
 125842755.292 7  98059347.00444  23947083.453                    23947090.719
 107448898.636 8  83726505.44046  20446833.852                    20446839.621
 124312183.507 6  96866783.44143  23655806.383                    23655814.219
 115994825.831 8  90385661.89545  22073085.086                    22073094.141
 110056195.205 8  85758203.07746  20942983.414                    20942987.609
 11  7 27  3  5 30.0000000  0  7G12G10G29G05G04G25G02
 109290852.554 8  85161757.87646  20797354.625                    20797360.734
 114378032.434 7  89125832.62745  21765405.578                    21765411.734
 125760119.082 6  97994955.24244  23931357.875                    23931365.141
 107416958.892 8  83701617.34946  20440755.891                    20440762.188
 124394842.043 6  96931192.66743  23671536.188                    23671543.750
 115943031.088 8  90345302.38345  22063229.023                    22063237.969
 110084810.728 8  85780500.89046  20948428.859                    20948432.895
 11  7 27  3  6  0.0000000  0  7G12G10G29G05G04G25G02
 109307135.575 8  85174445.94446  20800453.453                    20800459.566
 114449869.825 7  89181809.83645  21779075.266                    21779082.230
 125677447.099 6  97930535.58944  23915625.805                    23915632.926
 107385584.855 8  83677170.06946  20434785.648                    20434791.828
 124477473.690 6  96995580.96443  23687260.516                    23687267.578
 115891746.644 8  90305340.51746  22053469.641                    22053478.504
 110113582.734 8  85802920.64746  20953904.078                    20953907.820
 11  7 27  3  6 30.0000000  0  7G12G10G29G05G04G25G02
 109323997.715 8  85187585.27446  20803661.789                    20803668.059
 114522162.679 7  89238141.93245  21792832.445                    21792839.129
 125594740.080 6  97866088.66544  23899886.844                    23899894.879
 107354777.510 8  83653164.37346  20428923.117                    20428929.340
 124560077.922 6  97059947.84443  23702979.820                    23702987.105
 115840974.530 8  90265777.86146  22043808.094                    22043816.719
 110142510.665 8  85825461.90046  20959408.797                    20959412.555
 11  7 27  3  7  0.0000000  0  7G12G10G29G05G04G25G02
 109341438.106 8  85201175.19046  20806980.766                    20806986.688
 114594908.082 7  89294826.67545  21806675.414                    21806682.129
 125511998.863 6  97801615.09744  23884141.891                    23884149.965
 107324537.614 8  83629600.83846  20423168.875                    20423174.977
 124642653.999 7  97124292.86443  23718693.656                    23718701.156
 115790716.297 8  90226615.63746  22034244.063                    22034253.152
 110171593.410 8  85848123.79146  20964943.203                    20964947.094
 11  7 27  3  7 30.0000000  0  7G12G10G29G05G04G25G02
 109359455.987 8  85215215.09246  20810409.156                    20810415.160
 114668103.191 7  89351861.84045  21820604.102                    21820610.680
 125429224.539 6  97737115.71444  23868389.602                    23868397.926
 107294865.493 8  83606479.73246  20417522.563                    20417528.223
 124725200.872 6  97188615.09843  23734401.031                    23734408.930
 115740973.521 8  90187855.06346  22024778.297                    22024787.598
 110200829.862 8  85870905.45746  20970506.766                    20970510.570
 11  7 27  3  8  0.0000000  0  7G12G10G29G05G04G25G02
 109378051.037 8  85229704.74046  20813947.914                    20813954.008
 114741745.201 7  89409245.23245  21834617.641                    21834624.102
 125346417.966 6  97672591.20644  23852632.547                    23852640.398
 107265761.920 8  83583801.63946  20411984.313                    20411990.184
 124807718.097 6  97252914.24443  23750103.875                    23750111.105
 115691748.060 8  90149497.59046  22015411.398                    22015420.043
 110230219.433 8  85893806.43146  20976099.055                    20976103.234
 11  7 27  3  8 30.0000000  0  7G12G10G29G05G04G25G02
 109397222.486 8  85244643.51946  20817596.172                    20817602.273
 114815832.034 7  89466975.24245  21848715.992                    21848722.594
 125263580.383 6  97608042.55344  23836868.742                    23836877.074
 107237227.698 8  83561567.20246  20406554.000                    20406559.848
 124890205.055 7  97317189.79443  23765801.414                    23765807.785
 115643041.784 8  90111544.67546  22006142.594                    22006151.922
 110259761.338 8  85916826.10946  20981720.844                    20981725.180
 11  7 27  3  9  0.0000000  0  7G12G10G29G05G04G25G02
 109416969.863 8  85260031.07946  20821354.031                    20821360.234
 114890360.803 7  89525049.61945  21862898.234                    21862904.984
 125180712.715 7  97543470.45644  23821099.250                    23821107.555
 107209263.603 8  83539777.02246  20401232.828                    20401238.957
 124972661.010 6  97381441.19243  23781491.688                    23781499.484
 115594856.386 8  90073997.64246  21996973.094                    21996982.492
 110289454.788 8  85939963.88846  20987371.156                    20987375.535
 11  7 27  3  9 30.0000000  0  7G12G10G29G05G04G25G02
 109437292.275 8  85275866.71746  20825221.180                    20825227.105
 114965328.969 7  89583466.38645  21877164.289                    21877170.980
 125097816.262 7  97478875.91644  23805325.172                    23805332.613
 107181870.296 8  83518431.60746  20396020.133                    20396026.133
 125055085.297 6  97445667.91244  23797175.891                    23797183.820
 115547193.641 8  90036857.87646  21987903.031                    21987912.141
 110319299.087 8  85963219.20146  20993050.203                    20993054.258
 11  7 27  3 10  0.0000000  0  7G12G10G29G05G04G25G02
 109458188.895 8  85292149.80546  20829197.445                    20829203.594
 115040732.851 7  89642222.66945  21891513.367                    21891519.406
 125014891.110 7  97414258.98544  23789545.180                    23789552.426
 107155047.232 8  83497530.54846  20390915.516                    20390921.566
 125137476.814 7  97509869.12344  23812855.445                    23812862.457
 115500054.371 8  90000126.00346  21978933.211                    21978941.859
 110349292.360 8  85986590.59846  20998757.414                    20998761.871
 11  7 27  3 10 30.0000000  0  7G12G10G29G05G04G25G02
 109479658.460 7  85308879.33546  20833283.336                    20833289.516
 115116570.952 7  89701317.29445  21905944.609                    21905951.000
 124931938.788 6  97349620.89544  23773759.375                    23773767.168
 107128796.207 8  83477075.22746  20385920.125                    20385926.207
 125219835.520 6  97574044.75543  23828527.313                    23828534.297
 115453440.956 8  89963803.89646  21970062.594                    21970071.227
 110379434.639 8  86010078.10246  21004493.672                    21004497.539
 11  7 27  3 11  0.0000000  0  7G12G10G29G05G04G25G02
 109501700.616 8  85326055.04946  20837477.688                    20837483.723
 115192840.697 7  89760748.27445  21920458.336                    21920465.012
 124848960.754 7  97284962.76544  23757969.164                    23757976.621
 107103117.393 8  83457065.78346  20381033.859                    20381039.926
 125302160.859 6  97638194.40443  23844193.203                    23844199.902
 115407355.188 8  89927892.93346  21961293.203                    21961301.523
 110409725.357 8  86033681.26946  21010257.570                    21010261.805
 11  7 27  3 11 30.0000000  0  7G12G10G29G05G04G25G02
 109524314.565 8  85343676.31146  20841781.125                    20841787.246
 115269538.641 7  89820512.92345  21935053.109                    21935059.527
 124765957.406 7  97220284.90844  23742174.867                    23742181.977
 107078011.591 8  83437502.84146  20376256.242                    20376262.141
 125384451.780 6  97702317.22143  23859852.719                    23859859.863
 115361798.229 8  89892394.03546  21952623.656                    21952632.156
 110440163.206 8  86057399.08746  21016049.922                    21016054.074
 11  7 27  3 12  0.0000000  0  7G12G10G29G05G04G25G02
 109547499.223 8  85361742.27746  20846193.219                    20846198.785
 115346662.090 7  89880609.13045  21949729.422                    21949735.727
 124682929.903 7  97155588.22444  23726374.547                    23726381.953
 107053478.963 8  83418386.53346  20371587.672                    20371594.012
 125466707.955 6  97766412.94543  23875505.414                    23875513.074
 115316771.857 8  89857308.58046  21944055.461                    21944064.215
 110470747.469 8  86081230.99546  21021869.992                    21021874.418
 11  7 27  3 12 30.0000000  0  7G12G10G29G05G04G25G02
 109571254.033 8  85380252.52346  20850713.234                    20850719.090
 115424208.580 7  89941034.96145  21964486.281                    21964492.848
 124599879.235 7  97090873.48244  23710570.680                    23710577.809
 107029519.918 8  83399717.16546  20367028.664                    20367034.762
 125548928.669 6  97830481.06243  23891151.227                    23891159.023
 115272277.635 8  89822637.78746  21935588.086                    21935597.539
 110501477.387 8  86105176.40246  21027717.539                    21027721.738
 11  7 27  3 13  0.0000000  0  7G12G10G29G05G04G25G02
 109595578.062 8  85399206.31146  20855342.148                    20855348.273
 115502175.434 7  90001788.35245  21979322.766                    21979329.336
 124516806.834 7  97026141.82244  23694762.531                    23694769.758
 107006135.414 8  83381495.49147  20362578.422                    20362584.691
 125631113.466 6  97894521.16443  23906790.820                    23906798.074
 115228317.086 8  89788382.83846  21927223.102                    21927231.973
 110532352.482 8  86129234.92546  21033592.867                    21033596.805
 11  7 27  3 13 30.0000000  0  7G12G10G29G05G04G25G02
 109620469.962 8  85418602.60046  20860078.750                    20860084.598
 115580559.907 7  90062867.17245  21994239.141                    21994245.793
 124433713.741 7  96961394.04244  23678950.094                    23678956.969
 106983325.503 8  83363721.54847  20358238.070                    20358243.715
 125713261.664 6  97958532.72443  23922423.227                    23922430.406
 115184891.695 8  89754544.90146  21918959.766                    21918968.527
 110563371.606 8  86153405.67946  21039495.680                    21039499.645
 11  7 27  3 14  0.0000000  0  7G12G10G29G05G04G25G02
 109645929.024 8  85438440.85046  20864923.352                    20864929.438
 115659358.962 7  90124269.05545  22009233.617                    22009240.332
 124350601.008 7  96896630.92544  23663133.852                    23663141.063
 106961090.575 8  83346395.65347  20354007.211                    20354012.941
 125795372.663 6  98022515.32843  23938048.680                    23938055.547
 115142003.127 8  89721125.26946  21910798.195                    21910806.961
 110594534.154 8  86177688.19946  21045425.688                    21045429.902
 11  7 27  3 14 30.0000000  0  7G12G10G29G05G04G25G02
 109671954.537 8  85458720.47046  20869875.922                    20869881.773
 115738569.864 7  90185991.84945  22024306.578                    22024313.305
 124267469.176 7  96831852.95144  23647314.578                    23647321.602
 106939430.960 8  83329518.05147  20349885.102                    20349891.465
 125877445.838 6  98086468.43543  23953666.313                    23953673.496
 115099652.571 7  89688124.86546  21902739.063                    21902747.590
 110625839.090 8  86202081.66246  21051382.953                    21051386.859
 11  7 27  3 15  0.0000000  0  7G12G10G29G05G04G25G02
 109698545.368 8  85479440.61346  20874935.789                    20874941.699
 115818190.641 7  90248034.03445  22039458.258                    22039465.008
 124184320.326 6  96767061.71044  23631491.828                    23631498.816
 106918347.384 8  83313089.30247  20345872.945                    20345879.176
 125959480.811 6  98150391.76243  23969277.000                    23969284.422
 115057841.934 8  89655545.18646  21894782.297                    21894791.367
 110657286.211 8  86226585.91846  21057366.992                    21057371.086
 11  7 27  3 15 30.0000000  0  7G12G10G29G05G04G25G02
 109725700.144 8  85500600.18146  20880103.367                    20880109.410
 115898217.633 7  90310392.73145  22054687.031                    22054693.738
 124101154.772 6  96702257.45644  23615666.289                    23615673.320
 106897839.562 8  83297109.20247  20341970.563                    20341976.852
 126041476.761 6  98214284.68843  23984880.602                    23984887.773
 115016572.026 8  89623386.83746  21886929.195                    21886937.949
 110688873.993 8  86251199.78246  21063377.883                    21063381.844
 11  7 27  3 16  0.0000000  0  7G12G10G29G05G04G25G02
 109753418.087 8  85522198.58746  20885377.922                    20885383.773
 115978648.433 7  90373066.10245  22069992.039                    22069998.953
 124017973.832 6  96637441.25144  23599836.578                    23599844.324
 106877907.909 8  83281578.06647  20338177.867                    20338183.406
 126123433.431 6  98278146.98643  24000475.734                    24000483.449
 114975844.669 8  89591651.27546  21879179.039                    21879187.492
 110720602.219 8  86275923.08046  21069415.477                    21069419.816
 11  7 27  3 16 30.0000000  0  7G12G10G29G05G04G25G02
 109781698.207 8  85544235.03846  20890759.156                    20890765.457
 116059480.463 7  90436052.11045  22085373.953                    22085380.660
 123934779.294 7  96572614.42444  23584005.781                    23584012.801
 106858553.336 8  83266496.59847  20334494.523                    20334500.250
 126205350.234 6  98341978.23743  24016064.859                    24016071.934
 114935661.516 8  89560339.76546  21871532.500                    21871540.906
 110752470.369 8  86300755.41446  21075480.023                    21075484.313
 11  7 27  3 17  0.0000000  0  7G12G10G29G05G04G25G02
 109810538.774 8  85566708.20546  20896247.648                    20896253.719
 116140709.718 7  90499347.64645  22100831.969                    22100837.730
 123851571.523 7  96507777.29444  23568171.695                    23568179.191
 106839775.050 8  83251864.18447  20330921.180                    20330927.102
 126287226.289 6  98405777.74943  24031644.750                    24031652.074
 114896023.089 8  89529452.70346  21863989.195                    21863998.090
 110784476.742 7  86325695.45946  21081570.414                    21081574.855
 11  7 27  3 17 30.0000000  0  7G12G10G29G05G04G25G02
 109839938.923 8  85589617.41146  20901842.266                    20901848.473
 116222333.860 7  90562950.89045  22116364.203                    22116370.398
 123768351.406 7  96442930.56144  23552335.172                    23552342.680
 106821573.429 8  83237681.12446  20327457.352                    20327463.852
 126369061.107 6  98469545.12543  24047217.578                    24047225.184
 114856930.941 8  89498991.32646  21856550.047                    21856558.781
 110816620.776 8  86350742.76546  21087687.414                    21087691.438
 11  7 27  3 18  0.0000000  0  7G12G10G29G05G04G25G02
 109869897.795 7  85612961.98546  20907543.047                    20907549.348
 116304350.839 7  90626860.22945  22131971.336                    22131978.227
 123685120.451 7  96378075.37644  23536496.859                    23536503.750
 106803949.369 8  83223948.11247  20324103.766                    20324109.820
 126450854.559 6  98533280.25643  24062782.258                    24062790.027
 114818386.910 8  89468957.04046  21849215.367                    21849224.664
 110848902.249 8  86375897.17346  21093830.195                    21093834.219
 11  7 27  3 18 30.0000000  0  7G12G10G29G05G04G25G02
 109900414.148 7  85636740.96246  20913350.383                    20913356.367
 116386757.773 7  90691073.41645  22147652.734                    22147659.512
 123601880.263 7  96313212.96944  23520657.289                    23520664.039
 106786902.801 8  83210665.09646  20320860.047                    20320866.379
 126532606.144 6  98596982.77743  24078339.461                    24078346.813
 114780392.267 8  89439350.84546  21841985.320                    21841994.664
 110881320.549 7  86401158.19846  21099999.328                    21100003.414
 11  7 27  3 19  0.0000000  0  7G12G10G29G05G04G25G02
 109931486.424 8  85660953.11846  20919263.273                    20919269.570
 116469551.305 7  90755587.85745  22163407.922                    22163414.719
 123518631.781 7  96248344.14044  23504814.805                    23504822.344
 106770433.451 8  83197831.85747  20317726.063                    20317731.883
 126614314.960 6  98660651.96343  24093887.758                    24093895.172
 114742947.772 8  89410173.33246  21834859.836                    21834868.770
 110913874.442 8  86426524.87946  21106193.750                    21106198.082
 11  7 27  3 19 30.0000000  0  7G12G10G29G05G04G25G02
 109963113.581 8  85685597.64246  20925281.594                    20925287.895
 116552728.198 7  90820401.02145  22179236.086                    22179242.727
 123435375.758 7  96183469.41244  23488971.328                    23488979.125
 106754541.350 8  83185448.42447  20314701.781                    20314707.902
 126695980.338 6  98724287.34543  24109429.414                    24109435.137
 114706054.671 8  89381425.48746  21827839.344                    21827848.258
 110946562.958 8  86451996.46246  21112414.438                    21112418.707
 11  7 27  3 20  0.0000000  0  7G12G10G29G05G04G25G02
 109995294.388 8  85710673.59146  20931405.570                    20931411.586
 116636286.233 7  90885511.17445  22195136.781                    22195143.277
 123352113.860 7  96118590.09944  23473127.586                    23473135.020
 106739226.837 8  83173515.06447  20311787.477                    20311793.195
 126777602.331 6  98787888.89743  24124960.031                    24124967.613
 114669714.623 8  89353108.57246  21820923.898                    21820932.738
 110979385.984 8  86477572.85146  21118660.359                    21118664.457
 11  7 27  3 20 30.0000000  0  7G12G10G29G05G04G25G02
 110028027.909 8  85736180.23446  20937634.555                    20937640.359
 116720223.370 7  90950916.72945  22211109.164                    22211115.418
 123268847.544 7  96053707.34744  23457282.422                    23457289.875
 106724490.639 8  83162032.32947  20308983.367                    20308989.023
 126859180.833 6  98851456.55243  24140484.000                    24140491.332
 114633929.343 7  89325223.95146  21814114.625                    21814122.863
 111012343.412 8  86503253.96546  21124931.977                    21124936.324
 11  7 27  3 21  0.0000000  0  7G12G10G29G05G04G25G02
 110061312.332 8  85762116.13546  20943968.289                    20943974.523
 116804535.425 7  91016614.42445  22227153.648                    22227159.684
 123185577.299 7  95988821.51244  23441436.430                    23441443.457
 106710331.554 8  83150999.31147  20306288.750                    20306294.750
 126940714.515 6  98914989.28843  24155999.852                    24156006.879
 114598698.839 8  89297771.62646  21807410.172                    21807419.012
 111045433.278 8  86529038.28946  21131228.797                    21131233.066
 11  7 27  3 21 30.0000000  0  7G12G10G29G05G04G25G02
 110095146.477 8  85788480.40346  20950406.813                    20950412.730
 116889220.011 7  91082602.40945  22243268.742                    22243275.156
 123102304.829 7  95923933.95444  23425590.570                    23425597.855
 106696750.559 8  83140416.73947  20303704.266                    20303710.395
 127022203.379 6  98978487.14543  24171506.406                    24171513.555
 114564024.916 8  89270752.98546  21800811.984                    21800821.133
 111078655.509 8  86554925.74346  21137550.703                    21137555.234
 11  7 27  3 22  0.0000000  0  7G12G10G29G05G04G25G02
 110129528.945 8  85815271.94446  20956949.414                    20956955.438
 116974274.601 7  91148878.72545  22259454.258                    22259460.340
 123019031.467 7  95859045.68544  23409744.070                    23409751.199
 106683747.426 8  83130284.46047  20301229.773                    20301236.184
 127103647.149 6  99041949.77543  24187005.320                    24187011.875
 114529908.955 8  89244169.12646  21794319.984                    21794328.961
 111112009.560 8  86580915.91446  21143898.031                    21143902.121
 11  7 27  3 22 30.0000000  0  7G12G10G29G05G04G25G02
 110164458.583 7  85842489.84146  20963596.523                    20963602.512
 117059695.920 7  91215440.79645  22275709.078                    22275715.469
 122935758.098 6  95794157.40344  23393897.352                    23393904.398
 106671322.057 8  83120602.38147  20298865.570                    20298871.922
 127185045.150 6  99105376.77043  24202494.672                    24202501.602
 114496351.697 8  89218020.62346  21787934.414                    21787943.230
 111145494.563 7  86607008.12546  21150269.953                    21150274.047
 11  7 27  3 23  0.0000000  0  7G12G10G29G05G04G25G02
 110199933.832 8  85870132.88846  20970346.859                    20970353.289
 117145481.579 7  91282286.76145  22292033.281                    22292039.691
 122852486.515 7  95729270.51444  23378051.320                    23378058.742
 106659474.395 8  83111370.46347  20296610.953                    20296617.008
 127266397.063 6  99168767.86243  24217974.609                    24217982.281
 114463354.524 8  89192308.54746  21781655.453                    21781663.668
 111179110.112 8  86633202.05646  21156666.609                    21156670.766
 11  7 27  3 23 30.0000000  0  7G12G10G29G05G04G25G02
 110235953.150 8  85898199.88646  20977201.039                    20977207.160
 117231628.048 7  91349413.88945  22308426.828                    22308432.484
 122769217.178 7  95664385.35044  23362205.578                    23362212.582
 106648203.579 8  83102588.02847  20294466.141                    20294472.313
 127347701.815 6  99232122.21243  24233446.766                    24233454.371
 114430917.846 8  89167033.21946  21775482.688                    21775491.168
 111212854.613 8  86659496.48746  21163088.227                    21163092.047
 11  7 27  3 24  0.0000000  0  7G12G10G29G05G04G25G02
 110272515.463 8  85926690.00146  20984159.117                    20984164.887
 117318133.130 7  91416820.44145  22324888.070                    22324894.457
 122685952.341 7  95599503.69644  23346360.859                    23346367.758
 106637510.933 8  83094256.12547  20292431.555                    20292437.375
 127428960.010 6  99295440.26043  24248909.359                    24248916.883
 114399043.700 8  89142196.23146  21769417.422                    21769425.746
 111246728.751 8  86685891.92346  21169534.102                    21169538.574
 11  7 27  3 24 30.0000000  0  7G12G10G29G05G04G25G02
 110309619.076 8  85955601.90546  20991219.195                    20991225.363
 117404993.468 7  91484503.83244  22341416.773                    22341423.406
 122602692.604 7  95534626.01344  23330516.789                    23330524.078
 106627395.684 8  83086374.13247  20290506.227                    20290512.766
 127510170.801 6  99358721.38143  24264363.625                    24264371.539
 114367732.574 8  89117797.96046  21763458.914                    21763467.578
 111280731.064 8  86712387.23946  21176004.531                    21176008.789
 11  7 27  3 25  0.0000000  0  7G12G10G29G05G04G25G02
 110347262.447 8  85984934.40246  20998382.805                    20998389.027
 117492206.598 7  91552462.11644  22358012.836                    22358019.645
 122519439.660 6  95469753.61544  23314674.094                    23314681.398
 106617857.404 8  83078941.72747  20288691.313                    20288697.488
 127591333.712 6  99421965.19043  24279808.430                    24279816.137
 114336985.531 8  89093839.23746  21757607.969                    21757616.398
 111314861.056 8  86738982.03646  21182499.234                    21182503.512
 11  7 27  3 25 30.0000000  0  7G12G10G29G05G04G25G02
 110385443.932 8  86014686.21246  21005648.633                    21005654.691
 117579769.480 7  91620692.94645  22374675.422                    22374681.914
 122436194.720 7  95404887.43044  23298833.516                    23298840.281
 106608895.876 8  83071958.73447  20286986.039                    20286992.246
 127672448.263 6  99485171.31243  24295243.695                    24295251.410
 114306803.515 8  89070320.80646  21751864.422                    21751873.035
 111349117.949 8  86765675.72446  21189018.133                    21189022.367
 11  7 27  3 26  0.0000000  0  7G12G10G29G05G04G25G02
 110424162.577 8  86044856.57546  21013016.078                    21013022.195
 117667679.563 7  91689194.29944  22391404.719                    22391411.039
 122352959.192 7  95340028.61244  23282994.648                    23283000.969
 106600511.645 8  83065425.58947  20285390.539                    20285396.449
 127753514.734 6  99548339.99043  24310670.297                    24310678.676
 114277187.947 8  89047243.75946  21746228.750                    21746237.543
 111383501.998 8  86792468.50246  21195560.898                    21195565.262
 11  7 27  3 26 30.0000000  0  7G12G10G29G05G04G25G02
 110463416.062 8  86075443.70546  21020486.156                    21020492.281
 117755932.995 7  91757963.21444  22408198.555                    22408204.742
 122269733.539 7  95275177.48544  23267156.570                    23267163.750
 106592702.986 8  83059340.94147  20283904.898                    20283910.699
 127834531.601 6  99611469.99743  24326087.898                    24326095.082
 114248138.639 8  89024607.95046  21740701.039                    21740709.129
 111418011.002 8  86819358.64046  21202128.133                    21202132.242
 11  7 27  3 27  0.0000000  0  7G12G10G29G05G04G25G02
 110503202.937 8  86106446.45746  21028057.102                    21028062.914
 117844527.499 7  91826997.89244  22425057.422                    22425063.770
 122186520.054 7  95210335.83344  23251322.063                    23251328.793
 106585470.649 8  83053705.36947  20282528.031                    20282534.254
 127915499.301 6  99674561.71343  24341495.016                    24341502.629
 114219657.277 8  89002414.69246  21735281.156                    21735289.527
 111452645.162 8  86846346.31146  21208718.859                    21208723.277
 11  7 27  3 27 30.0000000  0  8G12G10G26G29G05G04G25G02
 110543522.175 8  86137864.03946  21035729.688                    21035735.844
 117933460.550 7  91896296.38344  22441980.742                    22441986.984
 130268379.12116 101507878.71753  24789255.500                    24789263.172
 122103320.321 7  95145504.90744  23235490.000                    23235496.871
 106578814.759 8  83048518.98147  20281261.828                    20281267.645
 127996417.575 6  99737614.91143  24356893.992                    24356900.633
 114191745.094 8  88980664.95346  21729969.445                    21729977.574
 111487404.474 8  86873431.50146  21215333.094                    21215337.516
 11  7 27  3 28  0.0000000  0  8G12G10G26G29G05G04G25G02
 110584372.270 8  86169695.28046  21043503.320                    21043508.898
 118022729.238 7  91965856.40145  22458968.055                    22458974.230
 130173178.324 6 101433696.25742  24771138.734                    24771147.254
 122020135.526 7  95080685.62744  23219660.352                    23219667.047
 106572734.638 8  83043781.24247  20280104.805                    20280110.762
 128077286.011 6  99800629.26643  24372282.563                    24372289.766
 114164402.696 8  88959359.20546  21724766.273                    21724774.563
 111522287.767 8  86900613.29046  21221971.289                    21221975.195
 11  7 27  3 28 30.0000000  0  8G12G10G26G29G05G04G25G02
 110625750.688 8  86201938.20146  21051377.180                    21051383.699
 118112330.228 7  92035675.36244  22476018.742                    22476024.813
 130077861.74216 101359423.15652  24753000.570                    24753008.895
 121936966.586 7  95015878.69344  23203833.719                    23203840.152
 106567229.558 8  83039491.58647  20279057.289                    20279063.031
 128158103.947 6  99863604.28743  24387661.133                    24387668.746
 114137630.630 8  88938497.87346  21719671.805                    21719680.352
 111557294.266 8  86927891.09346  21228632.563                    21228636.734
 11  7 27  3 29  0.0000000  0  8G12G10G26G29G05G04G25G02
 110667656.645 8  86234592.19946  21059352.031                    21059357.957
 118202261.019 7  92105751.31644  22493131.625                    22493138.508
 129982431.002 6 101285061.98042  24734841.094                    24734849.246
 121853815.219 7  94951085.47745  23188010.227                    23188016.773
 106562299.716 8  83035650.17147  20278119.273                    20278124.781
 128238871.395 6  99926539.96143  24403030.602                    24403038.172
 114111430.128 8  88918081.92346  21714686.125                    21714694.559
 111592423.858 8  86955264.80746  21235317.500                    21235322.051
 11  7 27  3 29 30.0000000  0  8G12G10G26G29G05G04G25G02
 110710087.270 8  86267655.02046  21067426.008                    21067432.262
 118292518.132 7  92176081.51644  22510306.867                    22510313.453
 129886890.215 6 101210614.62842  24716659.797                    24716667.387
 121770682.728 7  94886306.95644  23172190.273                    23172197.777
 106557943.946 8  83032256.08547  20277289.969                    20277296.246
 128319587.557 6  99989435.68943  24418390.273                    24418398.277
 114085801.322 8  88898111.45246  21709809.008                    21709817.680
 111627675.397 8  86982733.54746  21242025.484                    21242029.617
 11  7 27  3 30  0.0000000  0  8G12G10G26G29G05G04G25G02
 110753041.751 8  86301126.03946  21075600.055                    21075605.973
 118383098.934 7  92246663.96944  22527544.102                    22527550.434
 129791242.124 6 101136083.74242  24698459.063                    24698465.996
 121687570.483 7  94821544.22844  23156375.352                    23156381.984
 106554162.405 8  83029309.44647  20276570.398                    20276576.563
 128400252.253 6 100052291.31143  24433740.688                    24433748.465
 114060745.307 8  88878587.30446  21705041.273                    21705049.832
 111663048.572 8  87010297.07646  21248757.055                    21248761.035
 11  7 27  3 30 30.0000000  0  8G12G10G26G29G05G04G25G02
 110796518.210 8  86335003.79246  21083873.820                    21083879.566
 118474000.672 7  92317496.50244  22544841.859                    22544848.695
 129695489.677 6 101061471.49443  24680237.844                    24680245.027
 121604479.804 7  94756798.29944  23140563.461                    23140570.230
 106550954.663 8  83026809.91647  20275960.336                    20275966.074
 128480865.477 6 100115106.80243  24449081.320                    24449087.813
 114036263.069 8  88859510.26046  21700382.063                    21700390.996
 111698542.991 8  87037955.07146  21255511.492                    21255515.590
 11  7 27  3 31  0.0000000  0  8G12G10G26G29G05G04G25G02
 110840514.400 8  86369286.53246  21092245.617                    21092251.813
 118565220.163 7  92388576.61644  22562200.531                    22562207.059
 129599635.637 6 100986780.10343  24661997.258                    24662005.598
 121521411.848 7  94692070.08345  23124755.875                    23124762.520
 106548319.693 8  83024756.71747  20275458.703                    20275464.703
 128561426.591 6 100177881.67343  24464411.586                    24464418.449
 114012354.983 8  88840880.60246  21695832.602                    21695841.219
 111734157.737 8  87065706.82846  21262288.680                    21262292.762
 11  7 27  3 31 30.0000000  0  8G12G10G26G29G05G04G25G02
 110885029.201 8  86403973.38646  21100716.313                    21100722.605
 118656754.867 7  92459902.37644  22579618.883                    22579625.211
 129503683.142 6 100912011.95043  24643738.125                    24643746.313
 121438368.560 7  94627361.08244  23108953.188                    23108960.020
 106546257.685 8  83023149.96647  20275066.133                    20275072.172
 128641935.548 6 100240615.95742  24479730.797                    24479738.844
 113989021.928 8  88822699.01846  21691392.422                    21691400.855
 111769892.374 8  87093552.00146  21269088.852                    21269092.699
 11  7 27  3 32  0.0000000  0  8G12G10G26G29G05G04G25G02
 110930060.627 8  86439062.80846  21109285.039                    21109291.516
 118748601.821 7  92531471.44044  22597097.023                    22597102.840
 129407634.988 6 100837169.33943  24625459.664                    24625468.945
 121355351.316 7  94562672.37744  23093155.469                    23093161.965
 106544768.050 7  83021989.23047  20274782.906                    20274788.668
 128722392.052 6 100303309.27142  24495042.430                    24495048.766
 113966264.555 8  88804966.02446  21687062.203                    21687070.625
 111805746.524 8  87121490.31446  21275911.469                    21275915.805
